[[{"header":{"parameterUnit":"m.s-1","parameterCategory":1,"la1":31.0,"la2":29.5877,"lo1":-88.7671,"lo2":-86.6584,"dx":0.0162,"dy":0.0185,"nx":115,"ny":88,"refTime":"2022-12-24T06:00:00:Z","depth":0,"parameterNumber":2,"parameterNumberName":"U-component_of_WINDS"},"data":[0.0,0.0,0.0,0.0,0.0,0.0,0.0,0.0,0.0,0.0,0.0,0.0,0.0,0.0,0.0,0.0,0.0,0.0,0.0,0.0,0.0,0.0,0.0,0.0,0.0,0.0,0.0,0.0,0.0,0.0,0.0,0.0,0.0,0.0,0.0,0.0,0.0,0.0,0.0,0.0,0.0,0.0,0.0,0.0,0.0,0.0,0.0,0.0,0.0,0.0,0.0,0.0,0.0,0.0,0.0,0.0,0.0,0.0,0.0,0.0,0.0,0.0,0.0,0.0,0.0,0.0,0.0,0.0,0.0,0.0,0.0,0.0,0.0,0.0,0.0,0.0,0.0,0.0,0.0,0.0,0.0,0.0,0.0,0.0,0.0,0.0,0.0,0.0,0.0,0.0,0.0,0.0,0.0,0.0,0.0,0.0,0.0,0.0,0.0,0.0,0.0,0.0,0.0,0.0,0.0,0.0,0.0,0.0,0.0,0.0,0.0,0.0,0.0,0.0,0.0,0.0,0.0,0.0,0.0,0.0,0.0,0.0,0.0,0.0,0.0,0.0,0.0,0.0,0.0,0.0,0.0,0.0,0.0,0.0,0.0,0.0,0.0,0.0,0.0,0.0,0.0,0.0,0.0,0.0,0.0,0.0,0.0,0.0,0.0,0.0,0.0,0.0,0.0,0.0,0.0,0.0,0.0,0.0,0.0,0.0,0.0,0.0,0.0,0.0,0.0,0.0,0.0,0.0,0.0,0.0,0.0,0.0,0.0,0.0,0.0,0.0,0.0,0.0,0.0,0.0,0.0,0.0,0.0,0.0,0.0,0.0,0.0,0.0,0.0,0.0,0.0,0.0,0.0,0.0,0.0,0.0,0.0,0.0,0.0,0.0,0.0,0.0,0.0,0.0,0.0,0.0,0.0,0.0,0.0,0.0,0.0,0.0,0.0,0.0,0.0,0.0,0.0,0.0,0.0,0.0,0.0,0.0,0.0,0.0,0.0,0.0,0.0,0.0,0.0,0.0,0.0,0.0,0.0,0.0,0.0,0.0,0.0,0.0,0.0,0.0,0.0,0.0,0.0,0.0,0.0,0.0,0.0,0.0,0.0,0.0,0.0,0.0,0.0,0.0,0.0,0.0,0.0,0.0,0.0,0.0,0.0,0.0,0.0,0.0,0.0,0.0,0.0,0.0,0.0,0.0,0.0,0.0,0.0,0.0,0.0,0.0,0.0,0.0,0.0,0.0,0.0,0.0,0.0,0.0,0.0,0.0,0.0,0.0,0.0,0.0,0.0,0.0,0.0,0.0,0.0,0.0,0.0,0.0,0.0,0.0,0.0,0.0,0.0,0.0,0.0,0.0,0.0,0.0,0.0,0.0,0.0,0.0,0.0,0.0,0.0,0.0,0.0,0.0,0.0,0.0,0.0,0.0,0.0,0.0,0.0,0.0,0.0,0.0,0.0,0.0,0.0,0.0,0.0,0.0,0.0,0.0,0.0,0.0,0.0,0.0,0.0,0.0,0.0,0.0,0.0,0.0,0.0,0.0,0.0,0.0,0.0,0.0,0.0,0.0,0.0,0.0,0.0,0.0,0.0,0.0,0.0,0.0,0.0,0.0,0.0,0.0,0.0,0.0,0.0,0.0,0.0,0.0,0.0,0.0,0.0,0.0,0.0,0.0,0.0,0.0,0.0,0.0,0.0,0.0,0.0,0.0,0.0,0.0,0.0,0.0,0.0,0.0,0.0,0.0,0.0,0.0,0.0,0.0,0.0,0.0,0.0,0.0,0.0,0.0,0.0,0.0,0.0,0.0,0.0,0.0,0.0,0.0,0.0,0.0,0.0,0.0,0.0,0.0,0.0,0.0,0.0,0.0,0.0,0.0,0.0,0.0,0.0,0.0,0.0,0.0,0.0,0.0,0.0,0.0,0.0,0.0,0.0,0.0,0.0,0.0,0.0,0.0,0.0,0.0,0.0,0.0,0.0,0.0,0.0,0.0,0.0,0.0,0.0,0.0,0.0,0.0,0.0,0.0,0.0,0.0,0.0,0.0,0.0,0.0,0.0,0.0,0.0,0.0,0.0,0.0,0.0,0.0,0.0,0.0,0.0,0.0,0.0,0.0,0.0,0.0,0.0,0.0,0.0,0.0,0.0,0.0,0.0,0.0,0.0,0.0,0.0,0.0,0.0,0.0,0.0,0.0,0.0,0.0,0.0,0.0,0.0,0.0,0.0,0.0,0.0,0.0,0.0,0.0,0.0,0.0,0.0,0.0,0.0,0.0,0.0,0.0,0.0,0.0,0.0,0.0,0.0,0.0,0.0,0.0,0.0,0.0,0.0,0.0,0.0,0.0,0.0,0.0,0.0,0.0,0.0,0.0,0.0,0.0,0.0,0.0,0.0,0.0,0.0,0.0,0.0,0.0,0.0,0.0,0.0,0.0,0.0,0.0,0.0,0.0,0.0,0.0,0.0,0.0,0.0,0.0,0.0,0.0,0.0,0.0,0.0,0.0,0.0,0.0,0.0,0.0,0.0,0.0,0.0,0.0,0.0,0.0,0.0,0.0,0.0,0.0,0.0,0.0,0.0,0.0,0.0,0.0,0.0,0.0,0.0,0.0,0.0,0.0,0.0,0.0,0.0,0.0,0.0,0.0,0.0,0.0,0.0,0.0,0.0,0.0,0.0,0.0,0.0,0.0,0.0,0.0,0.0,0.0,0.0,0.0,0.0,0.0,0.0,0.0,0.0,0.0,0.0,0.0,0.0,0.0,0.0,0.0,0.0,0.0,0.0,0.0,0.0,0.0,0.0,0.0,0.0,0.0,0.0,0.0,0.0,0.0,0.0,0.0,0.0,0.0,0.0,0.0,0.0,0.0,0.0,0.0,0.0,0.0,0.0,0.0,0.0,0.0,0.0,0.0,0.0,0.0,0.0,0.0,0.0,0.0,0.0,0.0,0.0,0.0,0.0,0.0,0.0,0.0,0.0,0.0,0.0,0.0,0.0,0.0,0.0,0.0,0.0,0.0,0.0,0.0,0.0,0.0,0.0,0.0,0.0,0.0,0.0,0.0,0.0,0.0,0.0,0.0,0.0,0.0,0.0,0.0,0.0,0.0,0.0,0.0,0.0,0.0,0.0,0.0,0.0,0.0,0.0,0.0,0.0,0.0,0.0,0.0,0.0,0.0,0.0,0.0,0.0,0.0,0.0,0.0,0.0,0.0,0.0,0.0,0.0,0.0,0.0,0.0,0.0,0.0,0.0,0.0,0.0,0.0,0.0,0.0,0.0,0.0,0.0,0.0,0.0,0.0,0.0,0.0,0.0,0.0,0.0,0.0,0.0,0.0,0.0,0.0,0.0,0.0,0.0,0.0,0.0,0.0,0.0,0.0,0.0,0.0,0.0,0.0,0.0,0.0,0.0,0.0,0.0,0.0,0.0,0.0,0.0,0.0,0.0,0.0,0.0,0.0,0.0,0.0,0.0,0.0,0.0,0.0,0.0,0.0,0.0,0.0,0.0,0.0,0.0,0.0,0.0,0.0,0.0,0.0,0.0,0.0,0.0,0.0,0.0,0.0,0.0,0.0,0.0,0.0,0.0,0.0,0.0,0.0,0.0,0.0,0.0,0.0,0.0,0.0,0.0,0.0,0.0,0.0,0.0,0.0,0.0,0.0,0.0,0.0,0.0,0.0,0.0,0.0,0.0,0.0,0.0,0.0,0.0,0.0,0.0,0.0,0.0,0.0,0.0,0.0,0.0,0.0,0.0,0.0,0.0,0.0,0.0,0.0,0.0,0.0,0.0,0.0,0.0,0.0,0.0,0.0,0.0,0.0,0.0,0.0,0.0,0.0,0.0,0.0,0.0,0.0,0.0,0.0,0.0,0.0,0.0,0.0,0.0,0.0,0.0,0.0,0.0,0.0,0.0,0.0,0.0,0.0,0.0,0.0,0.0,0.0,0.0,0.0,0.0,0.0,0.0,0.0,0.0,0.0,0.0,0.0,0.0,0.0,0.0,0.0,0.0,0.0,0.0,0.0,0.0,0.0,0.0,0.0,0.0,0.0,0.0,0.0,0.0,0.0,0.0,0.0,0.0,0.0,0.0,0.0,0.0,0.0,0.0,0.0,0.0,0.0,0.0,0.0,0.0,0.0,0.0,0.0,0.0,0.0,0.0,0.0,0.0,0.0,0.0,0.0,0.0,0.0,0.0,0.0,0.0,0.0,0.0,0.0,0.0,0.0,0.0,0.0,0.0,0.0,0.0,0.0,4.6549,0.0,0.0,0.0,4.4783,0.0,0.0,0.0,0.0,0.0,0.0,0.0,0.0,0.0,0.0,0.0,0.0,0.0,0.0,0.0,0.0,0.0,0.0,0.0,0.0,0.0,0.0,0.0,0.0,0.0,0.0,0.0,0.0,0.0,0.0,0.0,0.0,0.0,0.0,0.0,0.0,0.0,0.0,0.0,0.0,0.0,0.0,0.0,0.0,0.0,0.0,0.0,0.0,0.0,0.0,0.0,0.0,0.0,0.0,0.0,0.0,0.0,0.0,0.0,0.0,0.0,0.0,0.0,0.0,0.0,0.0,0.0,0.0,0.0,0.0,0.0,0.0,0.0,0.0,0.0,0.0,0.0,0.0,0.0,0.0,0.0,0.0,0.0,0.0,0.0,0.0,0.0,0.0,0.0,0.0,0.0,0.0,0.0,0.0,0.0,0.0,0.0,0.0,0.0,0.0,0.0,0.0,0.0,0.0,0.0,0.0,0.0,0.0,0.0,0.0,4.7251,4.7111,4.8175,4.7713,4.5405,0.0,0.0,0.0,0.0,0.0,0.0,0.0,0.0,0.0,0.0,0.0,0.0,0.0,0.0,0.0,0.0,0.0,0.0,0.0,0.0,0.0,0.0,0.0,0.0,0.0,0.0,0.0,0.0,0.0,0.0,0.0,0.0,0.0,0.0,0.0,0.0,0.0,0.0,0.0,0.0,0.0,0.0,0.0,0.0,0.0,0.0,0.0,0.0,0.0,0.0,0.0,0.0,0.0,0.0,0.0,0.0,0.0,0.0,0.0,0.0,0.0,0.0,0.0,0.0,0.0,0.0,0.0,0.0,0.0,0.0,0.0,0.0,0.0,0.0,0.0,0.0,0.0,0.0,0.0,0.0,0.0,0.0,0.0,0.0,0.0,0.0,0.0,0.0,0.0,0.0,0.0,0.0,0.0,0.0,0.0,0.0,0.0,0.0,0.0,0.0,0.0,0.0,0.0,0.0,0.0,0.0,0.0,0.0,0.0,0.0,0.0,0.0,4.9236,4.8653,4.5805,0.0,0.0,0.0,0.0,0.0,0.0,0.0,0.0,0.0,0.0,0.0,0.0,0.0,0.0,0.0,0.0,0.0,0.0,0.0,0.0,0.0,0.0,0.0,0.0,0.0,0.0,0.0,0.0,0.0,0.0,0.0,0.0,0.0,0.0,0.0,0.0,0.0,0.0,0.0,0.0,0.0,0.0,0.0,0.0,0.0,0.0,0.0,0.0,0.0,0.0,0.0,0.0,0.0,0.0,0.0,0.0,0.0,0.0,0.0,0.0,0.0,0.0,0.0,0.0,0.0,0.0,0.0,0.0,0.0,0.0,0.0,0.0,0.0,0.0,0.0,0.0,0.0,0.0,0.0,0.0,0.0,0.0,0.0,0.0,0.0,0.0,0.0,0.0,0.0,0.0,0.0,0.0,0.0,0.0,0.0,0.0,0.0,0.0,0.0,0.0,0.0,0.0,0.0,0.0,0.0,0.0,0.0,0.0,0.0,0.0,4.8945,4.8674,4.9069,0.0,4.6067,0.0,0.0,0.0,0.0,0.0,0.0,0.0,0.0,0.0,0.0,0.0,0.0,0.0,0.0,0.0,0.0,0.0,0.0,0.0,0.0,0.0,0.0,0.0,0.0,0.0,0.0,0.0,0.0,0.0,0.0,0.0,0.0,0.0,0.0,0.0,0.0,0.0,0.0,0.0,0.0,0.0,0.0,0.0,0.0,0.0,0.0,0.0,0.0,0.0,0.0,0.0,0.0,0.0,0.0,0.0,0.0,0.0,0.0,0.0,0.0,0.0,0.0,0.0,0.0,0.0,0.0,0.0,0.0,0.0,0.0,0.0,0.0,0.0,0.0,0.0,0.0,0.0,0.0,0.0,0.0,0.0,0.0,0.0,0.0,0.0,0.0,0.0,0.0,0.0,0.0,0.0,0.0,0.0,0.0,0.0,0.0,0.0,0.0,0.0,0.0,0.0,0.0,0.0,0.0,0.0,0.0,0.0,0.0,0.0,0.0,5.003,4.9307,4.8291,4.799,0.0,0.0,0.0,0.0,0.0,0.0,0.0,0.0,0.0,0.0,0.0,0.0,0.0,0.0,0.0,0.0,0.0,0.0,0.0,0.0,0.0,0.0,0.0,0.0,0.0,0.0,0.0,0.0,0.0,0.0,0.0,0.0,0.0,0.0,0.0,0.0,0.0,0.0,0.0,0.0,0.0,0.0,0.0,0.0,0.0,0.0,0.0,0.0,0.0,0.0,0.0,0.0,0.0,0.0,0.0,0.0,0.0,0.0,0.0,0.0,0.0,0.0,0.0,0.0,0.0,0.0,0.0,0.0,0.0,0.0,0.0,0.0,0.0,0.0,0.0,0.0,0.0,0.0,0.0,0.0,0.0,0.0,0.0,0.0,0.0,0.0,0.0,0.0,0.0,0.0,0.0,0.0,0.0,0.0,0.0,0.0,0.0,0.0,0.0,0.0,0.0,0.0,0.0,0.0,0.0,0.0,0.0,0.0,0.0,0.0,5.0994,5.1073,5.0039,4.9159,4.8875,4.918,0.0,0.0,0.0,0.0,0.0,0.0,0.0,0.0,0.0,0.0,0.0,0.0,0.0,0.0,0.0,0.0,0.0,0.0,0.0,0.0,0.0,0.0,0.0,0.0,0.0,0.0,0.0,0.0,0.0,0.0,0.0,0.0,0.0,0.0,0.0,0.0,0.0,0.0,0.0,0.0,0.0,0.0,0.0,0.0,0.0,0.0,0.0,0.0,0.0,0.0,0.0,0.0,0.0,0.0,0.0,0.0,0.0,0.0,0.0,0.0,0.0,0.0,0.0,0.0,0.0,0.0,0.0,0.0,0.0,0.0,0.0,0.0,0.0,0.0,0.0,0.0,0.0,0.0,0.0,0.0,0.0,0.0,0.0,0.0,0.0,0.0,0.0,0.0,0.0,0.0,0.0,0.0,0.0,0.0,0.0,0.0,0.0,0.0,0.0,0.0,0.0,0.0,0.0,0.0,0.0,0.0,0.0,0.0,4.983,5.1483,5.1963,5.1194,5.2573,5.1387,0.0,0.0,0.0,0.0,0.0,0.0,0.0,0.0,0.0,0.0,0.0,0.0,0.0,0.0,0.0,0.0,0.0,0.0,0.0,0.0,0.0,0.0,0.0,0.0,0.0,0.0,0.0,0.0,0.0,0.0,0.0,0.0,0.0,0.0,0.0,0.0,0.0,0.0,0.0,0.0,0.0,0.0,0.0,0.0,0.0,0.0,0.0,0.0,0.0,0.0,0.0,0.0,0.0,0.0,0.0,0.0,0.0,0.0,0.0,0.0,0.0,0.0,0.0,0.0,0.0,0.0,0.0,0.0,0.0,0.0,0.0,0.0,0.0,0.0,0.0,0.0,0.0,0.0,0.0,0.0,0.0,0.0,0.0,0.0,0.0,0.0,0.0,0.0,0.0,0.0,0.0,0.0,0.0,0.0,0.0,0.0,0.0,0.0,0.0,0.0,0.0,0.0,0.0,0.0,0.0,0.0,0.0,0.0,0.0,5.1128,5.1492,5.2272,5.3349,5.1359,4.9366,0.0,0.0,0.0,0.0,0.0,0.0,0.0,0.0,0.0,0.0,0.0,0.0,0.0,0.0,0.0,0.0,0.0,0.0,0.0,0.0,0.0,0.0,0.0,0.0,0.0,0.0,0.0,0.0,0.0,0.0,0.0,0.0,0.0,0.0,0.0,0.0,0.0,0.0,0.0,0.0,0.0,0.0,0.0,0.0,0.0,0.0,0.0,0.0,0.0,0.0,0.0,0.0,0.0,0.0,0.0,0.0,0.0,0.0,0.0,0.0,0.0,0.0,0.0,0.0,0.0,0.0,0.0,0.0,0.0,0.0,0.0,0.0,0.0,0.0,0.0,0.0,0.0,0.0,0.0,0.0,0.0,0.0,0.0,0.0,0.0,0.0,0.0,0.0,0.0,0.0,0.0,0.0,0.0,0.0,0.0,0.0,0.0,0.0,0.0,0.0,0.0,0.0,0.0,0.0,0.0,0.0,0.0,0.0,0.0,5.1899,5.1901,5.2644,5.4054,5.121,4.9162,0.0,0.0,0.0,0.0,0.0,0.0,0.0,0.0,0.0,0.0,0.0,0.0,0.0,0.0,0.0,0.0,0.0,0.0,0.0,0.0,0.0,0.0,0.0,0.0,0.0,0.0,0.0,0.0,0.0,0.0,0.0,0.0,0.0,0.0,0.0,0.0,0.0,0.0,0.0,0.0,0.0,0.0,0.0,0.0,0.0,0.0,0.0,0.0,0.0,0.0,0.0,0.0,0.0,0.0,0.0,0.0,0.0,0.0,0.0,0.0,0.0,0.0,0.0,0.0,0.0,0.0,0.0,0.0,0.0,0.0,0.0,0.0,0.0,0.0,0.0,0.0,0.0,0.0,0.0,0.0,0.0,0.0,0.0,0.0,0.0,0.0,0.0,0.0,0.0,0.0,0.0,0.0,0.0,0.0,0.0,0.0,0.0,0.0,0.0,0.0,0.0,0.0,0.0,0.0,0.0,0.0,0.0,0.0,4.9749,5.194,5.2821,5.3256,5.3182,5.2554,5.1167,0.0,0.0,0.0,0.0,0.0,0.0,0.0,0.0,0.0,0.0,0.0,0.0,0.0,0.0,0.0,0.0,0.0,0.0,0.0,0.0,0.0,0.0,0.0,0.0,0.0,0.0,0.0,0.0,0.0,0.0,0.0,0.0,0.0,0.0,0.0,0.0,0.0,0.0,0.0,0.0,0.0,0.0,0.0,0.0,0.0,0.0,0.0,0.0,0.0,0.0,0.0,0.0,0.0,0.0,0.0,0.0,0.0,0.0,0.0,0.0,0.0,0.0,0.0,0.0,0.0,0.0,0.0,0.0,0.0,0.0,0.0,0.0,0.0,0.0,0.0,0.0,0.0,0.0,0.0,0.0,0.0,0.0,0.0,0.0,0.0,0.0,0.0,0.0,0.0,0.0,0.0,0.0,0.0,0.0,0.0,0.0,0.0,0.0,0.0,0.0,0.0,0.0,0.0,0.0,0.0,0.0,0.0,0.0,0.0,5.2013,5.3885,5.4415,5.3472,5.2753,5.1155,0.0,0.0,0.0,0.0,0.0,0.0,0.0,0.0,0.0,0.0,0.0,0.0,0.0,0.0,0.0,0.0,0.0,0.0,0.0,0.0,0.0,0.0,0.0,0.0,0.0,0.0,0.0,0.0,0.0,0.0,0.0,0.0,0.0,0.0,0.0,0.0,0.0,0.0,0.0,0.0,0.0,0.0,0.0,0.0,0.0,0.0,0.0,0.0,0.0,0.0,0.0,0.0,0.0,0.0,0.0,0.0,0.0,0.0,0.0,0.0,0.0,0.0,0.0,0.0,0.0,0.0,0.0,0.0,0.0,0.0,0.0,0.0,0.0,0.0,0.0,0.0,0.0,0.0,0.0,0.0,0.0,0.0,0.0,0.0,0.0,0.0,0.0,0.0,0.0,0.0,0.0,0.0,0.0,0.0,0.0,0.0,0.0,0.0,0.0,0.0,0.0,0.0,0.0,0.0,0.0,0.0,0.0,0.0,0.0,5.2926,5.4862,5.5432,5.4309,5.3508,5.2051,4.9906,0.0,0.0,0.0,0.0,0.0,0.0,0.0,0.0,0.0,0.0,0.0,0.0,0.0,0.0,0.0,0.0,0.0,0.0,0.0,0.0,0.0,0.0,0.0,0.0,0.0,0.0,0.0,0.0,0.0,0.0,0.0,0.0,0.0,0.0,0.0,0.0,0.0,0.0,0.0,0.0,0.0,0.0,0.0,0.0,0.0,0.0,0.0,0.0,0.0,0.0,0.0,0.0,0.0,0.0,0.0,0.0,0.0,0.0,0.0,0.0,0.0,0.0,0.0,0.0,0.0,0.0,0.0,0.0,0.0,0.0,0.0,0.0,0.0,0.0,0.0,0.0,0.0,0.0,0.0,0.0,0.0,0.0,0.0,0.0,0.0,0.0,0.0,0.0,0.0,0.0,0.0,0.0,0.0,0.0,0.0,0.0,0.0,0.0,0.0,0.0,0.0,0.0,0.0,0.0,0.0,0.0,0.0,0.0,5.4371,5.5935,5.641,5.5651,5.4846,5.3781,0.0,0.0,0.0,0.0,0.0,0.0,0.0,0.0,0.0,0.0,0.0,0.0,0.0,0.0,0.0,0.0,0.0,0.0,0.0,0.0,0.0,0.0,0.0,0.0,0.0,0.0,0.0,0.0,0.0,0.0,0.0,0.0,0.0,0.0,0.0,0.0,0.0,0.0,0.0,0.0,0.0,0.0,0.0,0.0,0.0,0.0,0.0,0.0,0.0,0.0,0.0,0.0,0.0,0.0,0.0,0.0,0.0,0.0,0.0,0.0,0.0,0.0,0.0,0.0,0.0,0.0,0.0,0.0,0.0,0.0,0.0,0.0,0.0,0.0,0.0,0.0,0.0,0.0,0.0,0.0,0.0,0.0,0.0,0.0,0.0,0.0,0.0,0.0,0.0,0.0,0.0,0.0,0.0,0.0,0.0,0.0,0.0,0.0,0.0,0.0,0.0,0.0,0.0,0.0,0.0,0.0,0.0,0.0,0.0,5.5796,5.7899,5.8677,5.8103,5.7298,5.6306,0.0,0.0,0.0,0.0,0.0,0.0,0.0,0.0,0.0,0.0,0.0,0.0,0.0,0.0,0.0,0.0,0.0,0.0,0.0,0.0,0.0,0.0,0.0,0.0,0.0,0.0,0.0,0.0,0.0,0.0,0.0,0.0,0.0,0.0,0.0,0.0,0.0,0.0,0.0,0.0,0.0,0.0,0.0,0.0,0.0,0.0,0.0,0.0,0.0,0.0,0.0,0.0,0.0,0.0,0.0,0.0,0.0,0.0,0.0,0.0,0.0,0.0,0.0,0.0,0.0,0.0,0.0,0.0,0.0,0.0,0.0,0.0,0.0,0.0,0.0,0.0,0.0,0.0,0.0,0.0,0.0,0.0,0.0,0.0,0.0,0.0,0.0,0.0,0.0,0.0,0.0,0.0,0.0,0.0,0.0,0.0,0.0,0.0,0.0,0.0,0.0,0.0,0.0,0.0,0.0,0.0,0.0,0.0,5.4807,5.7364,5.8914,6.0077,6.0792,5.9127,5.7631,0.0,0.0,0.0,0.0,0.0,0.0,0.0,0.0,0.0,0.0,0.0,0.0,0.0,0.0,0.0,0.0,0.0,0.0,0.0,0.0,0.0,0.0,0.0,0.0,0.0,0.0,0.0,0.0,0.0,0.0,0.0,0.0,0.0,0.0,0.0,0.0,0.0,0.0,0.0,0.0,0.0,0.0,0.0,0.0,0.0,0.0,0.0,0.0,0.0,0.0,0.0,0.0,0.0,0.0,0.0,0.0,0.0,0.0,0.0,0.0,0.0,0.0,0.0,0.0,0.0,0.0,0.0,0.0,0.0,0.0,0.0,0.0,0.0,0.0,0.0,0.0,0.0,0.0,0.0,0.0,0.0,0.0,0.0,0.0,0.0,0.0,0.0,0.0,0.0,0.0,0.0,0.0,0.0,0.0,0.0,0.0,0.0,0.0,0.0,0.0,0.0,0.0,0.0,0.0,0.0,0.0,0.0,0.0,5.6441,5.881,5.9429,6.0864,6.3166,6.0595,5.8482,0.0,0.0,0.0,0.0,0.0,0.0,0.0,0.0,0.0,0.0,0.0,0.0,0.0,0.0,0.0,0.0,0.0,0.0,0.0,0.0,0.0,0.0,0.0,0.0,0.0,0.0,0.0,0.0,0.0,0.0,0.0,0.0,0.0,0.0,0.0,0.0,0.0,0.0,0.0,0.0,0.0,0.0,0.0,0.0,0.0,0.0,0.0,0.0,0.0,0.0,0.0,0.0,0.0,0.0,0.0,0.0,0.0,0.0,0.0,0.0,0.0,0.0,0.0,0.0,0.0,0.0,0.0,0.0,0.0,0.0,0.0,0.0,0.0,0.0,0.0,0.0,0.0,0.0,0.0,0.0,0.0,0.0,0.0,0.0,0.0,0.0,0.0,0.0,0.0,0.0,0.0,0.0,0.0,0.0,0.0,0.0,0.0,0.0,0.0,0.0,0.0,0.0,0.0,0.0,0.0,0.0,0.0,0.0,5.6884,5.9496,6.0175,6.1444,6.3348,6.1636,6.0587,0.0,0.0,0.0,0.0,0.0,0.0,0.0,0.0,0.0,0.0,0.0,0.0,0.0,0.0,0.0,0.0,0.0,0.0,0.0,0.0,0.0,0.0,0.0,0.0,0.0,0.0,0.0,0.0,0.0,0.0,0.0,0.0,0.0,0.0,0.0,0.0,0.0,0.0,0.0,0.0,0.0,0.0,0.0,0.0,0.0,0.0,0.0,0.0,5.5697,0.0,0.0,0.0,0.0,0.0,0.0,0.0,0.0,0.0,0.0,0.0,0.0,0.0,0.0,0.0,0.0,0.0,0.0,0.0,0.0,0.0,0.0,0.0,0.0,0.0,0.0,0.0,0.0,0.0,0.0,0.0,0.0,0.0,0.0,0.0,0.0,0.0,0.0,0.0,0.0,0.0,0.0,0.0,0.0,0.0,0.0,0.0,0.0,0.0,0.0,0.0,0.0,0.0,0.0,0.0,0.0,0.0,0.0,0.0,5.7239,5.975,6.0827,6.215,6.3747,6.3238,6.223,0.0,0.0,0.0,0.0,0.0,0.0,0.0,0.0,0.0,0.0,0.0,0.0,0.0,0.0,0.0,0.0,0.0,0.0,0.0,0.0,0.0,0.0,0.0,0.0,0.0,0.0,0.0,0.0,0.0,0.0,0.0,0.0,0.0,0.0,0.0,0.0,0.0,0.0,0.0,0.0,0.0,0.0,0.0,0.0,0.0,0.0,0.0,0.0,0.0,0.0,0.0,0.0,0.0,0.0,0.0,0.0,0.0,0.0,0.0,0.0,0.0,0.0,0.0,0.0,0.0,0.0,0.0,0.0,0.0,0.0,0.0,0.0,0.0,0.0,0.0,0.0,0.0,0.0,0.0,0.0,0.0,0.0,0.0,0.0,0.0,0.0,0.0,0.0,0.0,0.0,0.0,0.0,0.0,0.0,0.0,0.0,0.0,0.0,0.0,0.0,0.0,0.0,0.0,0.0,0.0,0.0,0.0,5.5458,5.7741,5.9699,6.1371,6.2911,6.4323,6.4639,6.3471,0.0,0.0,0.0,0.0,0.0,0.0,0.0,0.0,0.0,0.0,0.0,0.0,0.0,0.0,0.0,0.0,0.0,0.0,0.0,0.0,0.0,0.0,0.0,0.0,0.0,0.0,0.0,0.0,0.0,0.0,0.0,0.0,0.0,0.0,0.0,0.0,0.0,0.0,0.0,5.4324,5.7788,0.0,0.0,0.0,0.0,0.0,0.0,0.0,0.0,5.6804,0.0,0.0,0.0,0.0,0.0,0.0,0.0,0.0,0.0,0.0,0.0,0.0,0.0,0.0,0.0,0.0,0.0,0.0,0.0,0.0,0.0,0.0,0.0,0.0,0.0,0.0,0.0,0.0,0.0,0.0,0.0,0.0,0.0,0.0,0.0,0.0,0.0,0.0,0.0,0.0,0.0,0.0,0.0,0.0,0.0,0.0,0.0,0.0,0.0,0.0,0.0,0.0,0.0,0.0,0.0,0.0,5.26,5.6428,5.8783,5.9667,6.1824,6.3454,6.4359,6.4639,6.3928,6.2068,0.0,0.0,0.0,0.0,0.0,0.0,0.0,0.0,0.0,0.0,0.0,0.0,0.0,0.0,0.0,0.0,0.0,0.0,0.0,0.0,0.0,0.0,0.0,0.0,0.0,0.0,0.0,0.0,0.0,0.0,0.0,0.0,0.0,0.0,0.0,0.0,0.0,0.0,0.0,5.8713,6.0298,0.0,0.0,0.0,0.0,0.0,0.0,0.0,0.0,5.7125,0.0,0.0,0.0,0.0,0.0,0.0,0.0,0.0,0.0,0.0,0.0,0.0,0.0,0.0,0.0,0.0,0.0,0.0,0.0,0.0,0.0,0.0,0.0,0.0,0.0,0.0,0.0,0.0,0.0,0.0,0.0,0.0,0.0,0.0,0.0,0.0,0.0,0.0,0.0,0.0,0.0,0.0,0.0,0.0,0.0,0.0,0.0,0.0,0.0,0.0,0.0,0.0,0.0,0.0,0.0,5.336,5.7188,5.9502,6.016,6.2529,6.3997,6.4396,6.5476,6.4913,0.0,0.0,0.0,0.0,0.0,0.0,0.0,0.0,0.0,0.0,0.0,0.0,0.0,0.0,0.0,0.0,0.0,0.0,0.0,0.0,0.0,0.0,0.0,0.0,0.0,0.0,0.0,0.0,0.0,0.0,0.0,0.0,0.0,0.0,0.0,0.0,0.0,0.0,0.0,0.0,5.9797,6.1226,6.0335,0.0,0.0,0.0,0.0,0.0,0.0,5.7188,5.6932,0.0,0.0,0.0,0.0,0.0,0.0,0.0,0.0,0.0,0.0,0.0,0.0,0.0,0.0,0.0,0.0,0.0,0.0,0.0,0.0,0.0,0.0,0.0,0.0,0.0,0.0,0.0,0.0,0.0,0.0,0.0,0.0,0.0,0.0,0.0,0.0,0.0,0.0,0.0,0.0,0.0,0.0,0.0,0.0,0.0,0.0,0.0,0.0,0.0,0.0,0.0,0.0,0.0,0.0,0.0,5.3748,5.7391,5.9798,6.0846,6.3125,6.4468,6.4649,6.5985,6.535,0.0,0.0,0.0,0.0,0.0,0.0,0.0,0.0,0.0,0.0,0.0,0.0,0.0,0.0,0.0,0.0,0.0,0.0,0.0,0.0,0.0,0.0,0.0,0.0,0.0,0.0,0.0,0.0,0.0,0.0,0.0,0.0,0.0,0.0,0.0,0.0,0.0,0.0,0.0,0.0,0.0,6.1908,6.0627,6.0335,0.0,0.0,0.0,0.0,5.8249,5.7836,0.0,0.0,0.0,0.0,0.0,0.0,0.0,0.0,0.0,0.0,0.0,0.0,0.0,0.0,0.0,0.0,0.0,0.0,0.0,0.0,0.0,0.0,0.0,0.0,0.0,0.0,0.0,0.0,0.0,0.0,0.0,0.0,0.0,0.0,0.0,0.0,0.0,0.0,0.0,0.0,0.0,0.0,0.0,0.0,0.0,0.0,0.0,0.0,0.0,0.0,0.0,0.0,0.0,0.0,0.0,0.0,5.3203,5.6557,5.9439,6.1604,6.3336,6.4643,6.541,6.5221,6.422,0.0,0.0,0.0,0.0,0.0,0.0,0.0,0.0,0.0,0.0,0.0,0.0,0.0,0.0,0.0,0.0,0.0,0.0,0.0,0.0,0.0,0.0,0.0,0.0,0.0,0.0,0.0,0.0,0.0,0.0,0.0,0.0,0.0,0.0,0.0,0.0,0.0,0.0,0.0,0.0,0.0,6.1618,6.1286,6.0762,6.0382,0.0,0.0,5.8981,5.9774,6.0345,0.0,0.0,0.0,0.0,0.0,0.0,0.0,0.0,0.0,0.0,0.0,0.0,0.0,0.0,0.0,0.0,0.0,0.0,0.0,0.0,0.0,0.0,0.0,0.0,0.0,0.0,0.0,0.0,0.0,0.0,0.0,0.0,0.0,0.0,0.0,0.0,0.0,0.0,0.0,0.0,0.0,0.0,0.0,0.0,0.0,0.0,0.0,0.0,0.0,0.0,0.0,0.0,0.0,0.0,0.0,5.278,5.4035,5.7601,6.0411,6.2284,6.3964,6.5055,6.5591,6.5549,6.4329,0.0,0.0,0.0,0.0,0.0,0.0,0.0,0.0,0.0,0.0,0.0,0.0,0.0,0.0,0.0,0.0,0.0,0.0,0.0,0.0,0.0,0.0,0.0,0.0,0.0,0.0,0.0,0.0,0.0,0.0,0.0,0.0,0.0,0.0,0.0,0.0,0.0,0.0,0.0,0.0,0.0,0.0,6.2851,6.2091,0.0,0.0,0.0,6.0464,6.1419,0.0,0.0,0.0,0.0,0.0,0.0,0.0,0.0,0.0,0.0,0.0,0.0,0.0,0.0,0.0,0.0,0.0,0.0,0.0,0.0,0.0,0.0,0.0,0.0,0.0,0.0,0.0,0.0,0.0,0.0,0.0,0.0,0.0,0.0,0.0,0.0,0.0,0.0,0.0,0.0,0.0,0.0,0.0,0.0,0.0,0.0,0.0,0.0,0.0,0.0,0.0,0.0,0.0,0.0,0.0,0.0,0.0,5.4737,5.8412,6.1178,6.2902,6.4482,6.5429,6.5822,6.5929,0.0,0.0,0.0,0.0,0.0,0.0,0.0,0.0,0.0,0.0,0.0,0.0,0.0,0.0,0.0,0.0,0.0,0.0,0.0,0.0,0.0,0.0,0.0,0.0,0.0,0.0,0.0,0.0,0.0,0.0,0.0,0.0,0.0,0.0,0.0,0.0,0.0,0.0,0.0,0.0,0.0,0.0,6.2996,6.3877,6.3466,6.3121,0.0,0.0,6.2157,6.3064,6.3304,6.2887,0.0,0.0,0.0,0.0,0.0,0.0,0.0,0.0,0.0,0.0,0.0,0.0,0.0,0.0,0.0,0.0,0.0,0.0,0.0,0.0,0.0,0.0,0.0,0.0,0.0,0.0,0.0,0.0,0.0,0.0,0.0,0.0,0.0,0.0,0.0,0.0,0.0,0.0,0.0,0.0,0.0,0.0,0.0,0.0,0.0,0.0,0.0,0.0,0.0,0.0,0.0,0.0,0.0,0.0,0.0,5.4773,5.8268,6.1257,6.3513,6.4591,6.5563,6.6404,6.6011,6.4712,0.0,0.0,0.0,0.0,0.0,0.0,0.0,0.0,0.0,0.0,0.0,0.0,0.0,0.0,0.0,0.0,0.0,0.0,0.0,0.0,0.0,0.0,0.0,0.0,0.0,0.0,0.0,0.0,0.0,0.0,0.0,0.0,0.0,0.0,0.0,0.0,0.0,0.0,0.0,0.0,0.0,6.3617,6.3811,6.4327,6.4729,0.0,0.0,6.3868,6.4725,6.5494,6.4892,6.174,0.0,0.0,0.0,0.0,0.0,0.0,0.0,0.0,0.0,0.0,0.0,0.0,0.0,0.0,0.0,0.0,0.0,0.0,0.0,0.0,0.0,0.0,0.0,0.0,0.0,0.0,0.0,0.0,0.0,0.0,0.0,0.0,0.0,0.0,0.0,0.0,0.0,0.0,0.0,0.0,0.0,0.0,0.0,0.0,0.0,0.0,0.0,0.0,0.0,0.0,0.0,0.0,0.0,5.3889,5.6183,5.9348,6.2068,6.4337,6.5381,6.6042,6.6512,6.6519,6.5476,0.0,0.0,0.0,0.0,0.0,0.0,0.0,0.0,0.0,0.0,0.0,0.0,0.0,0.0,0.0,0.0,0.0,0.0,0.0,0.0,0.0,0.0,0.0,0.0,0.0,0.0,0.0,0.0,4.9241,4.9925,5.1588,0.0,0.0,0.0,0.0,0.0,0.0,0.0,0.0,0.0,0.0,6.2967,6.4002,6.4802,0.0,0.0,6.6646,6.6243,6.6589,6.6426,6.5257,6.25,6.1812,0.0,0.0,0.0,0.0,0.0,0.0,0.0,0.0,0.0,0.0,0.0,0.0,0.0,0.0,0.0,0.0,0.0,0.0,0.0,0.0,0.0,0.0,0.0,0.0,0.0,0.0,0.0,0.0,0.0,0.0,0.0,0.0,0.0,0.0,0.0,0.0,0.0,0.0,0.0,0.0,0.0,0.0,0.0,0.0,0.0,0.0,0.0,0.0,0.0,0.0,0.0,0.0,5.4807,5.7536,6.0411,6.2808,6.4839,6.5812,6.633,6.6488,6.7003,6.6328,0.0,0.0,0.0,0.0,0.0,0.0,0.0,0.0,0.0,0.0,0.0,0.0,0.0,0.0,0.0,0.0,0.0,0.0,0.0,0.0,0.0,0.0,0.0,0.0,0.0,0.0,0.0,0.0,5.0556,5.114,5.3163,0.0,0.0,0.0,0.0,0.0,0.0,0.0,0.0,0.0,0.0,6.229,6.4199,6.4773,6.5685,6.7634,6.7085,6.6589,6.6916,6.6553,6.5547,6.3335,0.0,0.0,0.0,0.0,0.0,0.0,0.0,0.0,0.0,0.0,0.0,0.0,0.0,0.0,0.0,0.0,0.0,0.0,0.0,0.0,0.0,0.0,0.0,0.0,0.0,0.0,0.0,0.0,0.0,0.0,0.0,0.0,0.0,0.0,0.0,0.0,0.0,0.0,0.0,0.0,0.0,0.0,0.0,0.0,0.0,0.0,0.0,0.0,0.0,0.0,0.0,0.0,0.0,0.0,5.8573,6.126,6.3382,6.4875,6.5848,6.6305,6.6402,6.7367,6.7339,6.5915,0.0,0.0,0.0,0.0,0.0,0.0,0.0,0.0,0.0,0.0,0.0,0.0,0.0,0.0,0.0,0.0,0.0,0.0,0.0,0.0,0.0,0.0,0.0,0.0,0.0,0.0,5.183,5.2553,5.32,0.0,0.0,0.0,0.0,0.0,0.0,0.0,0.0,0.0,0.0,5.9996,6.1852,6.4218,6.4188,6.4715,6.6353,6.5338,6.453,6.5338,6.5999,6.5873,0.0,0.0,0.0,0.0,0.0,0.0,0.0,0.0,0.0,0.0,0.0,0.0,0.0,0.0,0.0,0.0,0.0,0.0,0.0,0.0,0.0,0.0,0.0,0.0,0.0,0.0,0.0,0.0,5.1522,0.0,0.0,0.0,0.0,0.0,0.0,0.0,0.0,0.0,0.0,0.0,5.3895,5.492,0.0,0.0,0.0,0.0,0.0,0.0,0.0,0.0,0.0,0.0,0.0,0.0,5.6528,5.918,6.1492,6.3574,6.5466,6.654,6.7096,6.7096,6.8703,6.8463,6.6024,0.0,0.0,0.0,0.0,0.0,0.0,0.0,0.0,0.0,0.0,0.0,0.0,0.0,0.0,0.0,0.0,0.0,0.0,0.0,0.0,0.0,0.0,0.0,0.0,0.0,5.1339,0.0,0.0,0.0,0.0,0.0,0.0,0.0,0.0,0.0,0.0,0.0,5.7047,5.8355,6.0793,6.298,6.4271,6.6229,6.8182,0.0,0.0,0.0,0.0,0.0,0.0,0.0,0.0,0.0,0.0,0.0,0.0,0.0,0.0,6.2801,5.8297,5.6969,5.6437,5.6181,0.0,0.0,0.0,0.0,0.0,0.0,0.0,0.0,0.0,0.0,0.0,0.0,0.0,0.0,0.0,0.0,5.2779,0.0,0.0,0.0,0.0,0.0,0.0,0.0,0.0,5.7143,5.7391,5.6347,5.7371,5.7251,0.0,5.5377,5.4846,0.0,0.0,0.0,0.0,0.0,0.0,0.0,0.0,5.7764,6.0481,6.2233,6.4064,6.5922,6.6935,6.7635,6.7923,6.9622,6.9659,6.7777,6.6654,6.4869,0.0,0.0,0.0,0.0,0.0,0.0,0.0,0.0,0.0,0.0,0.0,0.0,0.0,0.0,0.0,0.0,0.0,0.0,0.0,0.0,0.0,0.0,0.0,5.2285,0.0,0.0,0.0,0.0,0.0,0.0,0.0,0.0,0.0,5.7145,5.7473,5.8141,5.9486,6.1732,6.3754,6.5162,0.0,0.0,0.0,0.0,0.0,0.0,0.0,6.776,6.7724,6.6728,6.6123,6.6653,6.6901,6.6494,6.4893,0.0,0.0,6.0528,5.9346,5.8823,5.8616,5.9688,6.0322,5.9262,6.0103,6.0857,0.0,0.0,0.0,0.0,0.0,0.0,0.0,0.0,5.5317,5.517,0.0,5.4399,0.0,0.0,0.0,0.0,0.0,0.0,0.0,0.0,5.9871,6.0262,6.0262,6.0262,6.0262,6.0225,5.9516,5.915,5.8871,5.504,0.0,0.0,0.0,0.0,0.0,0.0,6.0026,6.2235,6.3321,6.4687,6.6207,6.7132,6.7923,6.8814,7.0096,7.088,7.0945,6.9761,6.8166,6.5938,6.1865,0.0,0.0,0.0,0.0,0.0,0.0,0.0,0.0,0.0,0.0,0.0,0.0,0.0,0.0,0.0,0.0,0.0,0.0,0.0,0.0,5.4298,0.0,0.0,0.0,0.0,0.0,0.0,0.0,0.0,0.0,0.0,5.8932,5.935,6.0247,6.177,0.0,0.0,0.0,0.0,6.6812,6.8843,6.8421,6.7981,6.8054,6.9229,7.0146,7.0183,0.0,0.0,6.9323,6.8007,6.7061,6.6208,6.5727,6.4855,6.4001,6.3474,6.3162,6.2574,6.2923,6.358,6.3758,6.3816,6.4402,5.8584,0.0,0.0,0.0,0.0,5.4876,5.5236,5.599,5.6209,5.5843,5.5111,5.5111,0.0,0.0,0.0,0.0,0.0,0.0,5.9564,6.075,6.1056,6.1789,6.2786,6.2237,6.1931,6.1843,6.1003,6.093,6.1354,5.9078,5.6974,5.5094,0.0,0.0,0.0,0.0,6.018,6.1226,6.299,6.4627,6.6083,6.7573,6.9093,7.0681,7.1246,7.1284,7.088,7.0919,6.9621,6.6766,6.5143,0.0,0.0,0.0,0.0,0.0,0.0,0.0,0.0,0.0,0.0,0.0,0.0,0.0,0.0,0.0,0.0,0.0,0.0,0.0,5.5871,5.5816,5.5524,0.0,0.0,0.0,0.0,0.0,0.0,0.0,0.0,0.0,6.1802,6.1448,6.1266,0.0,0.0,6.6445,6.6646,6.8247,7.0059,7.1933,0.0,0.0,0.0,7.2465,7.2355,7.2777,7.2889,7.2555,7.1503,7.0646,6.9916,6.9409,6.9015,6.8568,6.7737,6.5311,6.353,6.3238,6.3401,6.3653,6.3832,6.4067,6.429,6.0786,5.9758,5.818,5.7336,5.7005,5.6859,5.7107,5.7637,5.7883,5.7784,5.7391,5.7344,5.6722,5.5831,5.6345,0.0,0.0,0.0,6.1189,6.2384,6.2778,6.3474,6.4391,6.3951,6.3679,6.3591,6.2786,6.2735,6.3487,6.2223,6.0468,5.8263,0.0,0.0,5.7836,5.9552,6.0893,6.186,6.3228,6.4795,6.6514,6.8543,7.0238,7.1458,7.1718,7.1684,7.1354,7.1838,7.1135,6.9036,6.8097,6.6221,0.0,0.0,0.0,0.0,0.0,0.0,0.0,0.0,0.0,0.0,0.0,5.3543,0.0,0.0,0.0,0.0,5.5769,5.6948,5.7423,5.746,0.0,0.0,0.0,0.0,0.0,0.0,0.0,6.1679,6.2172,6.3017,6.4858,6.4636,6.4254,6.4185,6.6207,6.7814,6.8128,0.0,7.1017,7.2632,7.3287,7.3713,7.4331,7.4437,7.457,7.4974,7.4885,7.4391,7.3579,7.2806,7.216,7.1591,7.0902,7.0202,6.9639,6.7346,6.5727,6.5803,6.5859,6.6007,6.6225,6.6262,6.6263,6.2989,6.2768,6.13,6.0162,5.9391,6.0089,5.9979,5.9344,5.9944,6.0237,6.0419,6.0237,5.9516,5.8336,5.8364,0.0,0.0,6.2091,6.3225,6.3978,6.4689,6.5144,6.5485,6.5448,6.5448,6.5485,6.4677,6.4626,6.5254,6.4552,6.3679,6.2688,6.1157,6.0747,6.1346,6.1308,6.2057,6.3564,6.407,6.5346,6.7599,6.9829,7.1175,7.1494,7.1729,7.1976,7.224,7.259,7.2558,7.2169,7.0747,6.8921,6.6687,0.0,0.0,0.0,0.0,0.0,0.0,0.0,0.0,0.0,0.0,0.0,0.0,0.0,0.0,0.0,5.8068,0.0,5.9211,5.9396,0.0,0.0,0.0,5.8128,5.8311,6.0149,6.174,6.2735,0.0,0.0,6.7633,0.0,6.8288,6.7266,6.7595,6.8633,7.0433,7.0201,7.0446,7.1976,7.2948,7.3676,7.4088,7.5448,7.6565,7.6602,7.6866,7.6452,7.5434,7.4586,7.3752,7.3175,7.1876,7.086,7.0254,6.9931,6.9755,6.969,6.9427,6.9391,6.9535,6.9462,6.9274,6.4361,6.3873,6.3468,6.2095,6.0162,6.0346,6.0309,6.0126,6.0164,6.0286,6.0419,6.0382,6.0588,6.1071,6.147,6.2118,6.3006,6.3994,6.4819,6.5442,6.5148,6.573,6.7063,6.6512,6.6512,6.7026,6.6292,6.6329,6.6973,6.5705,6.5124,6.5347,6.4343,6.2975,6.1339,6.2964,6.3748,6.3439,6.5099,6.7125,6.9408,7.0598,7.134,7.1531,7.2173,7.2626,7.296,7.3296,7.3275,7.2865,7.2224,7.0741,6.8323,6.448,0.0,0.0,0.0,0.0,0.0,0.0,0.0,0.0,0.0,5.6108,5.5302,0.0,5.6306,0.0,6.0777,6.2566,6.3184,6.3328,0.0,0.0,6.1689,6.1286,6.3079,6.3036,6.3439,6.4986,6.6792,6.796,6.8235,6.8872,6.9471,6.9672,6.989,7.0046,6.996,7.0579,7.134,7.2481,7.3468,7.4322,7.5251,7.653,7.7546,7.7661,7.7348,7.6973,7.6878,7.6269,7.572,7.5544,7.5109,7.4269,7.3091,7.2826,7.2395,7.175,7.0551,6.9675,6.9998,6.9998,6.9998,6.561,6.5285,6.4954,6.3996,6.2708,6.1912,6.1532,6.1484,6.1702,6.1935,6.2071,6.2537,6.3002,6.3578,6.3873,6.4112,6.4396,6.5111,6.5624,6.5915,6.5953,6.6591,6.7596,6.7247,6.7247,6.765,6.7247,6.743,6.8128,6.732,6.7266,6.7872,6.7488,6.6372,6.4656,6.5113,6.5132,6.464,6.699,6.8873,7.0175,7.0943,7.1223,7.1148,7.1874,7.2289,7.229,7.2856,7.2757,7.1911,7.1761,7.0921,6.9266,6.6165,6.4392,0.0,0.0,0.0,0.0,0.0,0.0,0.0,0.0,0.0,0.0,0.0,5.9174,0.0,6.3456,0.0,6.5221,6.5679,6.6007,6.6062,6.4908,6.4599,6.5825,6.5386,6.5493,6.6842,6.8101,6.9128,6.9529,7.0259,7.0821,7.1175,7.115,7.0944,7.0617,7.0925,7.1585,7.221,7.3416,7.4832,7.6544,7.743,7.79,7.7977,7.7756,7.7514,7.7319,7.7065,7.6843,7.6567,7.6219,7.5692,7.4755,7.4396,7.3905,7.3017,7.2057,7.1385,7.1191,7.1174,7.1118,6.6691,6.6699,6.5999,6.568,6.5558,6.4021,6.3248,6.3172,6.3716,6.4097,6.4324,6.5161,6.5506,6.5557,6.5667,6.5515,6.5254,6.5898,6.6134,6.6058,6.6935,6.7505,6.7652,6.789,6.7981,6.7981,6.8017,6.8385,6.9045,6.9045,6.9357,6.9905,7.0054,6.965,6.8677,6.7395,6.6774,6.6829,6.9018,7.0361,7.0615,7.1033,7.1096,7.0799,7.1587,7.1818,7.1458,7.2255,7.2075,7.0882,7.0893,7.0782,7.019,6.8247,6.6864,0.0,6.3416,0.0,0.0,0.0,0.0,0.0,0.0,0.0,0.0,6.1204,6.2457,6.3893,6.6022,6.7149,6.6587,6.7412,6.7963,6.7853,6.7853,6.7816,6.7595,6.7498,6.7746,6.8436,6.9282,7.0259,7.1216,7.1852,7.223,7.2316,7.1962,7.1702,7.1639,7.144,7.1376,7.1531,7.3062,7.503,7.7186,7.7937,7.8105,7.8051,7.8239,7.8183,7.751,7.7558,7.7503,7.7066,7.6755,7.6282,7.5736,7.5416,7.4831,7.3919,7.353,7.3149,7.2548,7.2349,7.2532,6.7221,6.6837,6.669,6.6347,6.5816,6.5386,6.5127,6.4977,6.5007,6.5096,6.5235,6.5432,6.557,6.5804,6.6371,6.6529,6.6323,6.7063,6.7213,6.6935,6.798,6.8457,6.8494,6.9284,6.9633,6.9633,6.9633,6.9743,6.9889,6.9889,6.9926,7.0054,7.011,6.9706,6.8954,0.0,0.0,0.0,6.9755,7.0277,7.1428,7.1114,7.1175,7.1709,7.251,0.0,7.3068,7.3296,7.3398,7.3239,7.2852,0.0,0.0,0.0,0.0,0.0,0.0,0.0,0.0,0.0,0.0,0.0,6.4647,6.4108,6.3036,6.4822,6.6114,6.6365,6.7928,6.9104,6.9552,7.0435,7.0738,7.0201,7.0186,6.9967,6.9462,6.9668,6.9999,7.0108,7.1016,7.1842,7.2632,7.3021,7.3386,7.3738,7.3224,7.2699,7.2472,7.1802,7.134,7.1639,7.3198,7.5103,7.7108,7.8182,7.8602,7.8274,7.8721,7.8964,7.8458,7.8379,7.8588,7.8541,7.8479,7.8013,7.7101,7.6681,7.6085,7.5058,7.4301,7.3566,7.2679,7.2532,7.2532,6.7589,0.0,6.7479,6.7358,0.0,6.7037,6.6888,6.6648,6.6124,6.6161,6.6581,6.6736,6.6801,6.6988,6.7802,6.807,6.7899,6.8549,6.8696,6.8299,6.8966,6.9206,6.9149,6.9778,7.011,7.011,7.011,7.0293,7.0697,7.0716,7.0992,7.1397,7.1397,7.1176,7.0845,7.1561,7.1736,7.1441,7.1003,7.1126,7.1744,7.138,7.1405,7.1903,0.0,0.0,0.0,0.0,0.0,0.0,0.0,0.0,0.0,0.0,0.0,7.1152,6.8782,6.731,6.7253,6.7061,6.7284,6.7893,6.8184,6.781,6.6587,6.7855,6.8886,6.9225,6.9987,7.0542,7.0915,7.1438,7.1696,7.1441,7.1464,7.1436,7.1165,7.0939,7.0943,7.1223,7.1709,7.2279,7.3118,7.3654,7.4019,7.4322,7.3942,7.3498,7.3197,7.2191,7.1621,7.2452,7.3924,7.5651,7.7524,7.8491,7.9135,7.9294,7.9743,7.9781,7.9131,7.9145,7.9246,7.9078,7.8966,7.8625,7.8064,7.77,7.7162,7.608,7.5506,7.4732,7.355,7.2961,7.276,6.8305,6.8513,6.8365,6.8504,6.8716,6.8568,6.8453,6.8231,0.0,0.0,0.0,6.8225,6.8402,6.855,6.942,6.9614,6.9426,6.9944,6.9905,6.9559,6.9973,7.001,6.9894,7.0328,7.0513,7.0513,7.0513,7.0844,7.1505,7.1673,7.206,7.265,7.2723,7.2723,7.2723,7.2553,7.2438,7.2321,7.2057,7.1878,7.1842,7.1573,7.1646,7.2121,7.2777,7.3213,7.3508,7.4251,7.4152,7.2871,7.2994,7.3314,7.3591,7.3066,7.3149,7.4048,7.3429,7.2659,7.1887,7.1714,7.1532,7.1266,7.1311,7.0835,6.9866,7.0252,7.0842,7.1458,7.1531,7.1494,7.1494,7.1801,7.2023,7.2024,7.2254,7.2446,7.2321,7.1772,7.1487,7.2036,7.2182,7.2571,7.3617,7.4274,7.4686,7.4796,7.4696,7.4324,7.3877,7.2834,7.2481,7.3652,7.4885,7.6391,7.795,7.913,7.969,8.039,8.0765,8.0617,8.0004,7.9799,7.9642,7.9276,7.9028,7.8775,7.8565,7.8367,7.7942,7.6876,7.6618,7.6195,7.4789,7.3776,7.3258,7.0015,7.0101,6.9436,6.9702,7.0462,6.9656,6.9562,6.9814,6.8218,6.7981,6.8752,6.9036,6.951,7.0175,7.0546,7.0634,7.048,7.0434,7.0293,0.0,7.0787,7.1024,7.0945,7.1778,7.2165,7.2165,7.2165,7.2239,7.2312,7.2483,7.2613,7.2723,7.2872,7.2872,7.2723,7.2553,7.2496,7.2438,7.1778,7.1626,7.2204,7.1487,7.1933,7.3333,7.3433,7.3836,7.4675,7.4822,7.4749,7.4529,7.4706,7.5269,7.6143,7.5782,7.6106,7.7141,7.6563,7.5746,7.4864,7.5085,7.4974,7.4338,7.4031,7.3078,7.1412,7.1277,7.1386,7.1494,7.1692,7.1656,7.1531,7.2273,7.2605,7.2206,7.2644,7.2911,7.2621,7.238,7.2446,7.3154,7.3143,7.369,7.5055,7.553,7.5896,7.6371,7.588,7.507,7.424,7.374,7.3892,7.4591,7.569,7.6789,7.8098,7.9727,8.0542,8.057,8.1339,8.1566,8.0824,8.0209,7.9834,7.9912,7.9402,7.8976,7.885,7.8655,7.8349,7.7829,7.7328,7.6642,7.6085,7.5144,7.4104,7.1746,7.1833,7.1004,7.0946,7.1413,7.0443,7.0191,7.0327,6.9573,6.9319,6.9577,6.9741,7.0085,7.0544,7.1198,7.1398,7.1383,7.1706,7.1711,7.1431,7.1798,7.2144,7.2431,7.2475,7.2716,7.312,7.2716,7.2553,7.261,7.2779,7.2927,7.2945,7.3091,7.3037,7.2872,7.2667,7.261,7.261,7.2108,7.1992,7.2263,7.1838,7.2363,7.4055,7.4007,7.4591,7.5859,7.6056,7.6118,7.6081,7.6383,7.686,7.7422,7.7473,7.7653,7.7779,7.7635,7.7081,7.6075,7.6032,7.575,7.5232,7.4882,7.4165,7.3098,7.2834,7.2525,7.2219,7.2246,7.2246,7.2183,7.2672,7.3078,7.3337,7.3665,7.3824,7.3832,7.3758,7.3846,7.4129,7.4409,7.4858,7.5775,7.6188,7.6554,7.692,7.6537,7.5916,7.5393,7.5255,7.5086,7.4988,7.5804,7.7116,7.8406,7.9599,8.0677,8.1585,8.2149,8.2193,8.1566,8.0861,8.0301,8.0069,7.9725,7.9589,7.9552,7.9396,7.9129,7.8833,7.8165,7.7515,7.6829,7.5884,7.4789,7.3517,7.3643,7.2721,7.2331,7.2251,7.1611,7.1373,7.141,7.1595,7.147,7.1269,7.09,7.0823,7.1189,7.1939,7.2251,7.2272,7.2795,7.2945,7.2904,7.2847,7.3135,7.3713,7.3281,7.3266,7.3597,7.3104,7.2794,7.276,7.2927,7.3091,7.3252,7.3199,7.3145,7.3037,7.2779,7.2723,7.2667,7.2438,7.2358,7.2358,7.2144,7.2814,7.4409,7.4457,7.5223,7.682,7.7056,7.7155,7.7155,7.7547,7.7842,7.7957,7.8404,7.8499,7.8054,7.8189,7.7974,7.7228,7.6766,7.6398,7.6106,7.5669,7.5251,7.4915,7.4464,7.3935,7.316,7.3043,7.3043,7.3016,7.3361,7.3806,7.4332,7.4577,7.4701,7.4859,7.4918,7.4969,7.5031,7.5395,7.576,7.6178,7.6627,7.6893,7.6929,7.6773,7.6643,7.6512,7.6378,7.5918,7.5701,7.6125,7.7341,7.8887,7.969,8.0772,8.2499,8.2806,8.2631,8.2251,8.166,8.0917,8.041,8.0069,8.0076,8.0114,8.0024,7.9887,7.9689,7.9149,7.8239,7.7126,7.6513,7.5733,7.5384,7.5236,7.4495,7.3808,7.3357,7.3808,7.3976,7.4033,7.4626,7.494,7.457,7.2721,7.231,7.2939,7.3119,7.3261,7.3261,7.3215,7.3498,7.3997,7.3885,7.4117,7.4735,7.4698,7.4331,7.3817,7.375,7.346,7.2834,7.3074,7.3252,7.332,7.3252,7.3273,7.3182,7.2872,7.2723,7.2723,7.2553,7.2496,7.2438,7.2358,7.3127,7.4785,7.4738,7.5471,7.7169,7.7279,7.7279,7.7304,7.7643,7.7783,7.7842,7.8349,7.8723,7.8765,7.8916,7.8879,7.8653,7.8394,7.8143,7.7998,7.7334,7.6913,7.6737,7.6287,7.5406,7.4211,7.3978,7.3942,7.3849,7.4559,7.4897,7.4624,7.5124,7.5359,7.5115,7.4918,7.5175,7.5909,7.5947,7.6178,7.6888,7.7082,7.7029,7.6866,7.6838,7.6708,7.6445,7.6378,7.6378,7.6445,7.6989,7.7751,7.8862,7.9931,8.0947,8.215,8.2721,8.2793,8.2713,8.2288,8.166,8.0895,8.0427,8.0196,8.0278,8.0254,8.0309,8.0562,8.0005,7.9037,7.7625,7.7125,7.681,7.7107,7.7089,7.6217,7.5456,7.4896,7.5102,7.5142,7.5162,7.5513,7.5569,7.544,7.4586,7.4158,7.3902,7.3956,7.4063,7.4183,7.401,7.4347,7.5051,7.4922,7.5138,7.5721,7.5257,7.5073,7.5242,7.4896,7.4347,7.385,7.3919,7.4063,7.419,7.4508,7.4768,7.4714,7.4552,7.4441,7.4441,7.4253,7.4139,7.4086,7.3508,7.3685,7.4808,7.5299,7.6069,7.7194,7.7341,7.7341,7.7304,7.7607,7.7783,7.7783,7.8386,7.8708,7.8812,7.9016,7.9304,7.9804,7.9177,7.8655,7.8441,7.8014,7.7607,7.7243,7.6801,7.625,7.564,7.503,7.4711,7.4645,7.5196,7.5607,7.5817,7.6209,7.6434,7.6326,7.6313,7.6497,7.679,7.6704,7.6752,7.7169,7.7279,7.7056,7.6866,7.6838,7.6672,7.6512,7.6378,7.6378,7.6548,7.6772,7.7461,7.8784,7.9464,8.0532,8.181,8.2534,8.2819,8.289,8.2453,8.1809,8.1177,8.0858,8.0795,8.1093,8.1042,8.1035,8.1269,8.0489,7.941,7.9205,7.8833,7.8573,7.8165,7.8165,7.7274,7.6569,7.6159,7.6159,7.6104,7.6087,7.6327,7.6439,7.6384,7.6439,7.5993,7.5179,7.4883,7.4879,7.5038,7.4879,7.5271,7.603,7.5884,7.6158,7.6648,7.6148,7.6096,7.6317,7.5838,7.5309,7.4846,7.4879,7.4933,7.5007,7.5527,7.5787,7.5787,7.5624,7.5606,7.5514,7.5383,7.5306,7.5195,7.4727,7.4684,7.5308,7.5799,7.6497,7.7268,7.7341,7.7341,7.7341,7.7607,7.7783,7.7783,7.8332,7.873,7.9022,7.9078,7.9616,8.0692,7.9855,7.9112,7.8901,7.8573,7.8064,7.7463,7.7056,7.6838,7.6541,7.5937,7.5508,7.5442,7.5705,7.619,7.6728,7.6929,7.7155,7.7206,7.7341,7.7268,7.7243,7.7144,7.7217,7.7279,7.7279,7.7181,7.6966,7.6866,7.6801,7.6643,7.6512,7.6445,7.6643,7.6512,7.7202,7.8711,7.9281,8.0107,8.1432,8.2444,8.2758,8.2904,8.2468,8.2124,8.1792,8.1605,8.1564,8.1777,8.1852,8.1837,8.1921,8.1308,8.0265,8.032,8.0097,7.9762,7.8276,7.8165,7.7422,7.7087,7.7013,7.7013,7.7013,7.7087,7.7756,7.8128,7.8053,7.809,7.7682,7.6902,7.6121,7.575,7.5804,7.575,7.6142,7.6736,7.6755,7.7143,7.771,7.7533,7.7164,7.6749,7.6639,7.6235,7.5787,7.575,7.575,7.575,7.5899,7.5861,7.5936,7.5864,7.5643,7.5792,7.568,7.5437,7.5396,7.5927,7.6258,7.6369,7.619,7.6533,7.7194,7.7341,7.7341,7.7341,7.7607,7.7783,7.7842,7.8276,7.8954,7.9762,7.9429,7.9867,8.1144,8.0591,7.9987,7.9866,7.9484,7.8787,7.7828,7.7389,7.7039,7.6614,7.6505,7.63,7.6233,7.6294,7.6563,7.6765,7.7029,7.7155,7.7279,7.7341,7.7341,7.7341,7.7341,7.7279,7.7341,7.7341,7.7217,7.7092,7.7092,7.7029,7.6801,7.6643,7.6708,7.6902,7.6883,7.7159,7.8644,7.9178,8.0107,8.1293,8.2196,8.2758,8.2904,8.2876,8.2607,8.237,8.2184,8.2182,8.2457,8.2548,8.2586,8.2499,8.2258,8.168,8.138,8.0877,8.0542,7.8495,7.8404,7.8034,7.783,7.7868,7.783,7.7923,7.8031,7.822,7.8332,7.8386,7.8332,7.8128,7.783,7.7533,7.7196,7.6909,7.6766,7.7266,7.8027,7.7994,7.7979,7.8071,7.7937,7.7731,7.753,7.755,7.7162,7.6679,7.6604,7.6696,7.6824,7.7216,7.7439,7.7494,7.7385,7.733,7.7274,7.7162,7.7012,7.6955,7.7113,7.74,7.7878,7.7218,7.7011,7.7304,7.7341,7.7341,7.7341,7.7607,7.7783,7.7842,7.8332,7.9044,7.9964,8.0005,8.043,8.1369,8.1243,8.099,8.0885,8.0525,7.9891,7.884,7.8137,7.7578,7.6919,7.6512,7.6378,7.6342,7.6578,7.6737,7.6801,7.7056,7.7279,7.7279,7.7341,7.7341,7.7463,7.7463,7.7402,7.7316,7.7279,7.7217,7.6929,7.7029,7.7029,7.6902,7.6773,7.6838,7.6966,7.6939,7.7138,7.8325,7.9084,7.991,8.0919,8.1801,8.2423,8.2819,8.3136,8.2979,8.2536,8.2426,8.2705,8.2944,8.3297,8.3297,8.3338,8.3004,8.2817,8.2309,8.1954,8.1545,7.8602,7.8495,7.8332,7.8332,7.8332,7.8386,7.8441,7.8549,7.8495,7.8441,7.8495,7.8386,7.8332,7.8276,7.8276,7.818,7.7819,7.7729,7.808,7.8775,7.8602,7.8441,7.8332,7.8127,7.8071,7.8071,7.8071,7.7831,7.7533,7.7459,7.7514,7.7642,7.8126,7.8386,7.8495,7.8386,7.8386,7.8332,7.8183,7.8071,7.8014,7.7783,7.7901,7.8283,7.7953,7.7855,7.8075,7.7892,7.7745,7.777,7.7791,7.7879,7.7994,7.8386,7.9044,7.9912,8.0165,8.068,8.1519,8.1857,8.1843,8.1425,8.1343,8.0879,7.9792,7.9167,7.8437,7.7741,7.7116,7.6875,7.6735,7.6789,7.6838,7.6866,7.7118,7.7304,7.7341,7.7341,7.7402,7.756,7.762,7.7573,7.7671,7.7646,7.762,7.7395,7.7495,7.7495,7.7395,7.7075,7.7112,7.7385,7.7176,7.7249,7.8044,7.8839,7.9727,8.0772,8.1774,8.236,8.2869,8.3187,8.3254,8.2776,8.2799,8.3061,8.3433,8.3842,8.4104,8.4218,8.4312,8.4141,8.3653,8.3165,8.2586,7.8495,7.8495,7.8332,7.8386,7.8495,7.8495,7.8549,7.8708,7.8655,7.8602,7.8549,7.8495,7.8441,7.8332,7.8276,7.8349,7.8383,7.84,7.8491,7.8708,7.8602,7.8549,7.8495,7.8183,7.8127,7.8276,7.8276,7.8276,7.8202,7.8165,7.8165,7.8294,7.8367,7.8495,7.8495,7.8495,7.8495,7.8441,7.8332,7.8221,7.8014,7.7842,7.7836,7.7841,7.8309,7.8956,7.9653,7.8993,7.8552,7.8504,7.8196,7.7974,7.8369,7.8627,7.9013,7.9717,8.0062,8.0652,8.1557,8.2345,8.2444,8.1911,8.1995,8.1754,8.0761,8.0161,7.9653,7.8975,7.8406,7.7939,7.7734,7.732,7.6911,7.6801,7.7118,7.7304,7.7341,7.7341,7.7402,7.7597,7.7731,7.7989,7.8517,7.8651,7.8589,7.8526,7.8526,7.8526,7.8453,7.7814,7.7668,7.816,7.795,7.7631,7.8123,7.8699,7.9673,8.0699,8.1663,8.2508,8.288,8.3213,8.3618,8.3388,8.3653,8.3974,8.4143,8.4591,8.5095,8.5302,8.5377,8.53,8.4717,8.4116,8.3462,7.8655,7.8602,7.8386,7.8386,7.8495,7.8495,7.8655,7.8812,7.876,7.8708,7.876,7.8602,7.8495,7.8441,7.8332,7.8386,7.8495,7.8602,7.8708,7.8775,7.8775,7.8708,7.8602,7.8404,7.8332,7.8276,7.8276,7.8276,7.8276,7.8276,7.8332,7.8441,7.8495,7.8549,7.8602,7.8549,7.8495,7.8495,7.8386,7.8221,7.8014,7.7957,7.81,7.8467,7.9179,7.9926,8.0534,7.9837,7.9176,7.8662,7.9069,7.9201,7.9183,7.9763,7.9779,7.9381,8.087,8.1664,8.1731,8.2871,8.3547,8.3254,8.3189,8.2669,8.1809,8.1192,8.0504,7.9783,7.9223,7.888,7.8668,7.8216,7.7587,7.7066,7.7217,7.7341,7.7341,7.7524,7.7901,7.832,7.8514,7.8883,7.9388,7.9522,7.9433,7.9433,7.9396,7.9396,7.9286,7.8673,7.849,7.9176,7.8563,7.816,7.8626,7.9213,8.0067,8.08,8.159,8.2434,8.2818,8.3374,8.378,8.422,8.4488,8.4737,8.4947,8.5321,8.5788,8.6106,8.6069,8.588,8.552,8.4919,8.4227,7.876,7.876,7.8549,7.8549,7.8655,7.8655,7.876,7.8966,7.8915,7.8864,7.8864,7.8708,7.8363,7.8123,7.7885,7.77,7.7548,7.767,7.7826,7.8027,7.8728,7.8775,7.8708,7.8495,7.8386,7.8369,7.8276,7.8276,7.8276,7.8313,7.8332,7.8441,7.8549,7.8602,7.8746,7.8954,7.9066,7.8996,7.8888,7.8722,7.8498,7.8219,7.8122,7.8537,7.9191,7.9731,8.0184,8.0257,7.99,7.9276,7.9437,7.9519,7.9443,8.0228,8.0321,7.9813,8.0795,8.1762,8.1393,8.2608,8.3622,8.3607,8.3634,8.3378,8.2705,8.2126,8.1501,8.0791,8.0166,7.9815,7.9669,7.8821,7.8117,7.7767,7.7426,7.7341,7.7341,7.7901,7.8352,7.8869,7.9261,7.9852,8.0321,8.0393,8.0304,8.0241,8.0241,8.0241,8.0094,7.9543,7.9727,7.98,7.947,7.925,7.9176,7.98,8.0571,8.1048,8.1517,8.2186,8.2707,8.346,8.3991,8.4717,8.5061,8.5276,8.5487,8.5975,8.6443,8.6555,8.6762,8.6929,8.674,8.5685,8.4956,7.8915,7.8864,7.876,7.876,7.8864,7.8864,7.8966,7.9066,7.9116,7.9016,7.8915,7.876,7.832,7.7564,7.7382,7.6919,7.6064,7.6327,7.6579,7.7004,7.7966,7.8714,7.8708,7.8441,7.8332,7.8276,7.8276,7.8276,7.8332,7.8332,7.8369,7.8535,7.8677,7.8783,7.9022,7.9687,7.9897,7.9791,7.9667,7.9558,7.9465,7.8647,7.8162,7.8216,7.8795,7.9057,7.9204,8.0198,8.0651,8.0037,7.9731,7.9601,7.9817,8.0394,8.0786,7.9999,8.0725,8.096,8.0943,8.2045,8.2909,8.2932,8.3463,8.3675,8.3321,8.2898,8.2536,8.2022,8.1314,8.0817,8.0495,7.9544,7.873,7.8416,7.7781,7.7378,7.7378,7.821,7.8869,7.9224,7.9934,8.0807,8.1403,8.1328,8.1203,8.1112,8.1085,8.1085,8.0901,8.0571,8.0388,8.0351,8.0314,8.0057,7.9947,8.0571,8.1232,8.1122,8.1663,8.2343,8.2929,8.3645,8.446,8.5126,8.573,8.585,8.6026,8.6498,8.6911,8.7249,8.7586,8.8111,8.7677,8.6623,8.5589,7.8812,7.8915,7.876,7.876,7.8915,7.8915,7.8966,7.9116,7.9116,7.9066,7.8979,7.8915,7.8611,7.8282,7.7527,7.7047,7.6638,7.6364,7.6616,7.7191,7.7804,7.8391,7.8596,7.8549,7.8386,7.8332,7.8332,7.8332,7.8441,7.8441,7.8756,7.9423,7.906,7.9163,7.9687,8.0001,8.0076,8.0009,7.9796,8.0023,8.0377,7.9596,7.9055,7.9014,7.9468,7.9399,7.8946,7.9756,8.0923,8.1833,8.1194,8.0933,8.1074,8.1896,8.1698,8.045,8.1157,8.1489,8.0877,8.1843,8.2758,8.2819,8.3479,8.373,8.3546,8.326,8.2904,8.2597,8.2123,8.1884,8.1644,8.0837,7.9847,7.8699,7.7928,7.7451,7.7524,7.8223,7.9104,7.9889,8.0725,8.1538,8.2068,8.2165,8.1975,8.1847,8.1819,8.1819,8.1562,8.1269,8.0938,8.1269,8.1269,8.0901,8.0865,8.1452,8.1709,8.1379,8.1884,8.2822,8.3445,8.4139,8.494,8.5738,8.6362,8.6645,8.6548,8.6705,8.7249,8.7735,8.8167,8.8523,8.8143,8.7407,8.643,7.8915,7.8966,7.8915,7.8915,7.9016,7.9016,7.9066,7.9116,7.9116,7.9116,7.9066,7.8966,7.8677,7.82,7.7648,7.6909,7.626,7.628,7.6419,7.6568,7.7441,7.8179,7.8625,7.8655,7.8495,7.8386,7.8478,7.8495,7.8495,7.8549,7.8917,7.9269,7.9425,7.9664,8.0039,8.0578,8.0877,8.0975,8.0443,8.041,8.1438,7.9893,7.9335,7.9297,7.9459,7.9172,7.9459,8.0149,8.1096,8.1945,8.182,8.1659,8.1911,8.2675,8.2384,8.0879,8.1866,8.1975,8.1574,8.2242,8.2946,8.3322,8.3742,8.3971,8.405,8.386,8.3566,8.3275,8.3087,8.2711,8.2178,8.1489,8.0277,7.8919,7.8442,7.8185,7.7928,7.8713,7.967,8.0604,8.1538,8.2166,8.2659,8.2534,8.2444,8.2215,8.2113,8.2113,8.2076,8.1709,8.1525,8.1782,8.1929,8.1562,8.1415,8.1856,8.2178,8.1819,8.1884,8.2895,8.3704,8.4423,8.5186,8.5939,8.6771,8.7241,8.698,8.6855,8.7286,8.7792,8.841,8.8673,8.8388,8.7988,8.7049,7.9079,7.9116,7.9116,7.9116,7.9116,7.9116,7.9116,7.9116,7.9116,7.9116,7.9116,7.9016,7.8629,7.7792,7.7728,7.6779,7.5496,7.6194,7.6144,7.653,7.7453,7.8654,7.884,7.9037,7.8805,7.8624,7.8693,7.873,7.864,7.8708,7.8783,7.9149,7.9702,8.0015,8.0278,8.1055,8.1792,8.1739,8.09,8.087,8.1435,8.0095,7.924,7.9483,7.8906,7.9237,8.0119,8.0923,8.1452,8.183,8.183,8.1963,8.2251,8.2883,8.2718,8.2201,8.2146,8.2294,8.2382,8.2451,8.3059,8.3622,8.3922,8.4267,8.4405,8.4253,8.402,8.3559,8.364,8.3033,8.2325,8.1489,8.0534,7.9433,7.9507,7.936,7.9176,7.9595,8.0481,8.1366,8.2264,8.2708,8.2758,8.2696,8.2571,8.2251,8.2186,8.2251,8.2186,8.2003,8.1929,8.2039,8.2113,8.215,8.2141,8.2215,8.2361,8.2361,8.2141,8.2711,8.3704,8.4435,8.5163,8.6013,8.672,8.6989,8.6852,8.6967,8.7416,8.7717,8.8186,8.856,8.8728,8.8313,8.7503,7.9016,7.9116,7.9116,7.9116,7.9116,7.9116,7.9165,7.9263,7.9128,7.9165,7.9263,7.9214,7.9004,7.8578,7.8067,7.7454,7.6817,7.6731,7.668,7.7565,7.9079,7.9417,7.9367,7.944,7.9374,7.9044,7.9381,7.9359,7.8999,7.8939,7.9252,7.9841,7.9579,7.9667,8.038,8.1018,8.1294,8.1018,8.0915,8.1162,8.1297,8.0314,7.9498,7.965,7.9297,7.9591,8.0385,8.1215,8.1978,8.2616,8.2728,8.269,8.2883,8.3032,8.2867,8.2404,8.2221,8.2072,8.1788,8.2308,8.2767,8.3247,8.381,8.4042,8.3844,8.3956,8.369,8.3261,8.3016,8.295,8.2361,8.1525,8.0901,8.0424,8.0094,8.0057,8.0351,8.0635,8.0882,8.1402,8.2117,8.2696,8.2571,8.2721,8.2597,8.2316,8.2251,8.2316,8.2251,8.2186,8.2186,8.2186,8.2186,8.2186,8.2316,8.2353,8.2573,8.2647,8.25,8.2638,8.363,8.4077,8.4694,8.5641,8.6713,8.6719,8.661,8.7398,8.7847,8.7961,8.7979,8.8467,8.8673,8.8334,8.7919,7.9066,7.9116,7.9116,7.9116,7.9116,7.9116,7.9165,7.9263,7.9177,7.9263,7.9359,7.9406,7.9263,7.9079,7.8677,7.829,7.7729,7.7354,7.7689,7.8489,7.9428,7.9541,7.9466,7.9817,7.994,7.9411,7.9388,7.9402,7.9402,7.9153,7.9204,7.9792,7.9679,7.998,8.0318,8.0843,8.1031,8.0919,8.0492,8.0629,8.1229,8.0137,7.9605,7.9874,8.0171,8.0761,8.1323,8.2007,8.266,8.3127,8.3239,8.318,8.318,8.318,8.2957,8.2718,8.2685,8.265,8.2593,8.2777,8.3276,8.3397,8.3847,8.4117,8.4311,8.4554,8.4365,8.3975,8.3966,8.4083,8.2949,8.2647,8.2031,8.1122,8.1039,8.1066,8.1103,8.1039,8.1223,8.1708,8.2313,8.256,8.2696,8.2782,8.2782,8.2508,8.238,8.238,8.2316,8.2251,8.2186,8.2186,8.2186,8.2251,8.2343,8.2555,8.2812,8.2822,8.2684,8.2996,8.3667,8.3892,8.4039,8.5232,8.6399,8.6437,8.6478,8.7378,8.7829,8.7286,8.738,8.8186,8.8598,8.8523,8.8072,7.9116,7.9116,7.9116,7.9116,7.9116,7.9266,7.9327,7.9311,7.9462,7.9595,7.95,7.9546,7.9453,7.9321,7.9273,7.8812,7.8301,7.8189,7.8575,7.9112,7.9478,7.9526,7.9526,7.9954,8.0267,8.0141,7.9742,7.9654,7.9616,7.9442,7.9142,7.9266,7.9754,7.9942,8.013,8.0393,8.0706,8.1007,8.043,8.043,8.1294,8.0291,7.986,8.0207,8.1121,8.1772,8.2127,8.2665,8.3223,8.3413,8.3413,8.3355,8.3297,8.318,8.318,8.3143,8.3186,8.3189,8.3284,8.3563,8.3747,8.411,8.411,8.432,8.4758,8.4966,8.487,8.4949,8.4941,8.4995,8.3537,8.3309,8.2647,8.181,8.1948,8.2002,8.1597,8.1287,8.1718,8.215,8.246,8.2597,8.2696,8.2819,8.2758,8.2733,8.2571,8.2407,8.2343,8.2316,8.2251,8.2186,8.2186,8.2316,8.2508,8.2597,8.2829,8.2839,8.2711,8.2996,8.3445,8.3423,8.3682,8.4993,8.5898,8.601,8.6536,8.7455,8.7455,8.6667,8.6874,8.7829,8.8335,8.8617,8.8129,7.9116,7.9116,7.9116,7.9116,7.9229,7.983,7.9902,7.9642,8.0075,8.0057,7.9713,7.9638,7.9592,7.95,7.9453,7.9246,7.8914,7.8876,7.9085,7.9424,7.9763,7.9886,7.9632,7.9978,8.0293,8.0417,8.0192,7.9905,7.9479,7.9154,7.9116,7.9154,7.9304,7.9417,7.9642,7.9942,8.0493,8.0918,8.0744,8.1157,8.1433,8.1332,8.0952,8.1169,8.1885,8.2277,8.252,8.3023,8.3376,8.3546,8.3433,8.347,8.347,8.3355,8.3239,8.3239,8.3239,8.3413,8.3546,8.3602,8.3805,8.4057,8.411,8.402,8.4084,8.4143,8.4497,8.4785,8.4953,8.4754,8.2692,8.33,8.3153,8.2463,8.2132,8.2334,8.2186,8.2213,8.2313,8.2497,8.2633,8.2696,8.2795,8.2954,8.3089,8.3041,8.2917,8.2681,8.2508,8.238,8.2223,8.2223,8.2186,8.238,8.2633,8.2721,8.2893,8.2744,8.2681,8.2618,8.2892,8.288,8.3423,8.4605,8.5544,8.6012,8.6687,8.7324,8.7249,8.6593,8.6986,8.7565,8.781,8.8073,8.8223,7.9116,7.9116,7.9165,7.9478,7.9891,8.0267,8.0602,8.083,8.0698,8.0566,8.0333,7.9999,7.9766,7.9638,7.9592,7.9453,7.9273,7.9225,7.9359,7.9519,7.9746,7.9915,7.9584,7.9896,8.0139,8.0365,8.0429,8.0255,7.9754,7.9304,7.9154,7.9116,7.9116,7.9116,7.9154,7.959,8.0166,8.0553,8.0956,8.132,8.1821,8.2021,8.2181,8.2249,8.2628,8.3022,8.3134,8.3358,8.3657,8.3712,8.3657,8.3602,8.3546,8.3527,8.3376,8.3355,8.3297,8.3413,8.3583,8.3602,8.375,8.4057,8.411,8.4073,8.4026,8.4199,8.4459,8.48,8.474,8.4645,8.3871,8.3825,8.3503,8.3079,8.2702,8.2571,8.2633,8.2758,8.2721,8.2659,8.2721,8.2819,8.2893,8.3089,8.3358,8.3312,8.3263,8.2954,8.2608,8.238,8.226,8.2545,8.2508,8.2591,8.2807,8.2819,8.2904,8.2782,8.2696,8.2659,8.2659,8.2721,8.3136,8.3974,8.4797,8.5452,8.5657,8.5954,8.6162,8.6462,8.6442,8.6664,8.7189,8.7472,8.7772,7.9116,7.9116,7.9451,7.9951,8.0553,8.093,8.1452,8.1943,8.1509,8.1187,8.0997,8.0466,8.0005,7.9766,7.9683,7.9546,7.9311,7.9359,7.9453,7.95,7.9584,7.963,7.9676,7.9668,7.9793,8.0112,8.044,8.0467,8.0255,7.9754,7.9341,7.9154,7.9116,7.9116,7.9203,7.9338,7.9876,8.0602,8.0817,8.1268,8.216,8.2772,8.3044,8.2939,8.3447,8.3747,8.3801,8.3747,8.3822,8.3822,8.3822,8.3767,8.3712,8.3657,8.3602,8.3489,8.3433,8.3527,8.3602,8.3602,8.375,8.4057,8.411,8.4148,8.4508,8.4778,8.5036,8.494,8.499,8.4694,8.4395,8.421,8.3888,8.3603,8.3113,8.2758,8.2819,8.288,8.2964,8.2964,8.2964,8.2941,8.2978,8.3446,8.3752,8.3507,8.3362,8.3102,8.2755,8.2353,8.2296,8.2831,8.2969,8.294,8.2979,8.288,8.2904,8.2843,8.2782,8.2782,8.2843,8.2904,8.3276,8.3676,8.3826,8.4368,8.4496,8.4904,8.5617,8.6009,8.5633,8.5709,8.6326,8.7189,8.7865,7.9116,7.9154,8.0053,8.0516,8.0817,8.2021,8.247,8.233,8.2642,8.217,8.13,8.0959,8.0504,7.9968,7.9766,7.9546,7.9453,7.95,7.9546,7.9546,7.9592,7.9766,7.981,7.9592,7.9735,8.0057,8.0376,8.0429,8.0368,8.0255,7.9754,7.9266,7.9116,7.9165,7.9263,7.9359,8.0283,8.1632,8.1743,8.2348,8.3486,8.381,8.3847,8.3832,8.3854,8.3876,8.402,8.3929,8.3876,8.402,8.3876,8.3876,8.3967,8.3876,8.3784,8.3675,8.3602,8.3489,8.3712,8.3712,8.3805,8.402,8.411,8.4486,8.4792,8.5339,8.5243,8.344,8.4518,8.499,8.4583,8.4151,8.404,8.3756,8.3411,8.3028,8.2941,8.3001,8.3061,8.3121,8.3121,8.3024,8.3001,8.3641,8.4146,8.3766,8.346,8.3337,8.3076,8.2711,8.2223,8.2619,8.3144,8.3187,8.2979,8.2978,8.3001,8.2964,8.2941,8.2941,8.2964,8.3024,8.3202,8.347,8.3489,8.3862,8.4475,8.5033,8.5575,8.5687,8.5575,8.55,8.55,8.6551,8.7865,7.9677,7.9191,8.0225,8.0962,8.1527,8.2745,8.3455,8.3625,8.338,8.3011,8.2399,8.1452,8.0656,8.0049,7.9766,7.9592,7.95,7.9592,7.9592,7.9592,7.9683,7.9854,7.9968,8.0226,8.0364,8.0452,8.0849,8.0941,8.0692,8.033,7.9942,7.9229,7.9165,7.9263,7.9359,7.9453,8.0574,8.1906,8.2858,8.3527,8.3975,8.411,8.411,8.411,8.402,8.402,8.402,8.402,8.402,8.411,8.402,8.402,8.4073,8.402,8.3929,8.3967,8.3767,8.3712,8.3784,8.373,8.3876,8.411,8.4163,8.417,8.4625,8.5396,8.5636,8.4211,8.4949,8.5237,8.4966,8.483,8.4497,8.4102,8.3645,8.3274,8.3039,8.3121,8.318,8.318,8.318,8.3121,8.3284,8.4198,8.4555,8.4198,8.4015,8.3977,8.364,8.3263,8.2729,8.226,8.2886,8.3361,8.3115,8.2941,8.3158,8.3158,8.3158,8.3098,8.3061,8.318,8.3372,8.347,8.3546,8.4029,8.462,8.4786,8.4936,8.5274,8.5575,8.58,8.61,8.6851,8.8015,8.0283,7.9698,8.0622,8.15,8.2368,8.3342,8.4117,8.4703,8.4079,8.371,8.3233,8.2147,8.1084,8.0396,8.0157,8.0037,7.9546,7.9721,7.9676,7.9683,7.9766,8.0049,8.0352,8.0845,8.1097,8.1233,8.201,8.1603,8.0854,8.0568,8.0293,7.9191,7.9214,7.9311,7.9444,7.9924,8.0931,8.2425,8.3737,8.418,8.4163,8.411,8.411,8.411,8.411,8.411,8.411,8.411,8.411,8.411,8.411,8.411,8.411,8.411,8.4073,8.402,8.3913,8.3876,8.3876,8.3876,8.3982,8.4238,8.4666,8.4861,8.462,8.5526,8.6067,8.5073,8.5269,8.5558,8.5558,8.5287,8.4768,8.4262,8.3854,8.3483,8.315,8.3195,8.318,8.318,8.318,8.318,8.3663,8.4778,8.5038,8.4606,8.4558,8.4606,8.4046,8.3447,8.2876,8.2223,8.2591,8.3176,8.3016,8.2978,8.3136,8.344,8.344,8.3514,8.3626,8.3552,8.3669,8.3674,8.3732,8.3787,8.4175,8.4245,8.4335,8.5011,8.5725,8.6513,8.7039,8.7732,8.8128,8.0817,8.1084,8.1641,8.2378,8.3171,8.4211,8.4732,8.4901,8.4647,8.4172,8.3475,8.2846,8.1972,8.1241,8.0984,8.0596,7.9759,7.9854,7.981,7.9766,7.9892,8.0315,8.0694,8.1073,8.1452,8.2082,8.2452,8.1859,8.1178,8.114,8.0429,7.9391,7.9311,7.9406,7.9877,8.0658,8.1603,8.2954,8.399,8.4293,8.4215,8.411,8.411,8.411,8.411,8.411,8.411,8.411,8.411,8.411,8.411,8.411,8.411,8.411,8.411,8.411,8.411,8.402,8.402,8.3929,8.3929,8.4486,8.5215,8.5794,8.523,8.6443,8.6665,8.6159,8.611,8.5804,8.5483,8.5038,8.4903,8.416,8.3826,8.3604,8.3307,8.3158,8.318,8.318,8.3217,8.3254,8.3812,8.4889,8.5298,8.4926,8.5053,8.516,8.3687,8.2941,8.2655,8.2325,8.2544,8.2807,8.2807,8.3028,8.3529,8.396,8.4146,8.422,8.4332,8.428,8.4205,8.4158,8.4161,8.3994,8.3897,8.4267,8.4749,8.5237,8.5966,8.6809,8.7636,8.8367,8.8651,8.2314,8.2689,8.2354,8.2687,8.3574,8.4475,8.4854,8.4901,8.4954,8.4296,8.3323,8.3404,8.2832,8.1839,8.1496,8.1263,8.0591,8.022,7.9979,7.9772,7.993,8.039,8.0889,8.1393,8.1706,8.2342,8.2374,8.2,8.1317,8.1476,8.0756,7.9993,7.966,7.9924,8.0507,8.162,8.2708,8.3171,8.399,8.4331,8.4163,8.411,8.411,8.411,8.411,8.411,8.411,8.411,8.411,8.411,8.411,8.411,8.411,8.411,8.411,8.411,8.411,8.411,8.4163,8.4125,8.4177,8.4581,8.5687,8.644,8.5785,8.7117,8.7528,8.7263,8.7049,8.6794,8.5632,8.5669,8.5595,8.4332,8.37,8.3589,8.3477,8.3403,8.3217,8.3217,8.3329,8.3403,8.4109,8.4963,8.5149,8.5298,8.5497,8.5419,8.3982,8.2904,8.2692,8.2435,8.2618,8.267,8.2733,8.3312,8.3997,8.4443,8.4852,8.5,8.5112,8.5112,8.5061,8.4882,8.4795,8.4779,8.474,8.4792,8.5049,8.5455,8.6222,8.7125,8.8044,8.8888,8.9023,8.3519,8.3856,8.3112,8.3291,8.4133,8.4681,8.4901,8.4947,8.5089,8.4736,8.3792,8.4327,8.3678,8.2493,8.2186,8.1537,8.0918,8.0342,8.0064,8.0017,8.0157,8.0737,8.1431,8.2129,8.2821,8.3053,8.2596,8.2218,8.1913,8.1672,8.1254,8.0756,8.0472,8.0794,8.1135,8.2619,8.3596,8.3823,8.4103,8.4381,8.4215,8.411,8.411,8.411,8.411,8.4163,8.4163,8.4163,8.4163,8.4163,8.4163,8.411,8.411,8.411,8.411,8.411,8.4125,8.4163,8.4177,8.4229,8.4419,8.4669,8.5952,8.6354,8.6576,8.764,8.8241,8.7919,8.8003,8.7637,8.6176,8.6325,8.5966,8.4852,8.4257,8.4072,8.3886,8.3737,8.344,8.3254,8.3589,8.4183,8.448,8.5261,8.5855,8.6004,8.6004,8.5741,8.4663,8.3696,8.3198,8.2867,8.2729,8.2681,8.2733,8.3534,8.4369,8.5038,8.5446,8.5818,8.5966,8.5966,8.5706,8.5381,8.5371,8.5544,8.5377,8.5037,8.5162,8.5432,8.6312,8.7245,8.7976,8.8692,8.8979,8.4289,8.4478,8.4015,8.4263,8.4899,8.4909,8.4947,8.4992,8.5176,8.5197,8.5131,8.5435,8.4594,8.3255,8.3019,8.2261,8.1116,8.0656,8.0459,8.0562,8.0975,8.1744,8.2475,8.3285,8.3788,8.4899,8.4135,8.3104,8.2835,8.2796,8.23,8.1955,8.1949,8.2006,8.1512,8.2785,8.3945,8.4524,8.4541,8.4481,8.4331,8.4229,8.4177,8.4229,8.4177,8.4229,8.428,8.4215,8.4215,8.4266,8.4163,8.4163,8.411,8.411,8.411,8.411,8.4215,8.4317,8.4317,8.4317,8.4431,8.4854,8.609,8.6707,8.7108,8.8028,8.8879,8.8409,8.8399,8.7944,8.7301,8.6832,8.6176,8.5446,8.4815,8.4518,8.4332,8.4072,8.3812,8.396,8.474,8.5372,8.5335,8.5632,8.6486,8.6722,8.666,8.6064,8.5207,8.4571,8.4073,8.3365,8.3124,8.2855,8.3078,8.3891,8.4703,8.5446,8.6115,8.6598,8.6784,8.6784,8.651,8.5953,8.6095,8.6478,8.5807,8.5095,8.5327,8.5611,8.6354,8.7197,8.789,8.8583,8.9022,8.4897,8.5427,8.4519,8.4708,8.5435,8.5349,8.5266,8.5308,8.5473,8.5436,8.5158,8.5185,8.4609,8.373,8.3427,8.2975,8.2336,8.2261,8.2149,8.1954,8.218,8.2871,8.3523,8.3754,8.4366,8.4977,8.4516,8.4054,8.4199,8.3941,8.3556,8.3211,8.3372,8.3402,8.3302,8.3968,8.4772,8.4732,8.477,8.4732,8.4541,8.4443,8.4492,8.4579,8.4431,8.4393,8.4518,8.4406,8.428,8.4317,8.4266,8.4215,8.4163,8.411,8.411,8.4163,8.4229,8.4419,8.4518,8.4579,8.4665,8.5204,8.6036,8.6883,8.7084,8.8323,8.8784,8.8823,8.8592,8.7966,8.725,8.698,8.6338,8.5595,8.5075,8.4963,8.4815,8.448,8.4295,8.4815,8.5521,8.6004,8.6189,8.6449,8.7155,8.7415,8.7291,8.6931,8.6212,8.566,8.5132,8.4156,8.3556,8.3275,8.3362,8.4323,8.5038,8.5669,8.6696,8.7589,8.77,8.7551,8.7562,8.7213,8.7295,8.7395,8.6387,8.5633,8.556,8.5826,8.6644,8.7336,8.8104,8.8797,8.9452,8.5427,8.5884,8.513,8.5206,8.5813,8.5628,8.5551,8.5628,8.5704,8.5616,8.5406,8.5324,8.467,8.3978,8.3901,8.3341,8.3013,8.317,8.3175,8.3066,8.3295,8.3716,8.4059,8.4322,8.4972,8.5312,8.4771,8.4263,8.472,8.4729,8.4541,8.4506,8.4701,8.4595,8.4542,8.4919,8.5186,8.5051,8.5094,8.5013,8.4878,8.4825,8.493,8.5006,8.4959,8.4751,8.4902,8.4767,8.4381,8.4381,8.428,8.4266,8.4163,8.411,8.4163,8.4177,8.4331,8.4568,8.4713,8.476,8.4808,8.4968,8.6133,8.6755,8.7059,8.8089,8.8722,8.8841,8.8671,8.833,8.7764,8.7436,8.698,8.6213,8.5916,8.5841,8.5669,8.5372,8.4963,8.5521,8.6264,8.6709,8.7044,8.7452,8.7898,8.791,8.7947,8.7513,8.7079,8.6528,8.6,8.517,8.431,8.3966,8.4164,8.4805,8.5483,8.5966,8.6994,8.8072,8.8171,8.8009,8.8242,8.8436,8.8218,8.7772,8.6817,8.6192,8.6101,8.6329,8.6958,8.77,8.8355,8.8934,8.9464,8.5887,8.5996,8.5852,8.5884,8.5992,8.5704,8.5667,8.5815,8.5815,8.5884,8.6055,8.594,8.5087,8.4055,8.4516,8.3989,8.3009,8.3355,8.3518,8.36,8.4136,8.4479,8.4936,8.543,8.5766,8.5719,8.5445,8.5176,8.5055,8.5099,8.5339,8.5542,8.5542,8.5436,8.5437,8.5436,8.5473,8.5352,8.5352,8.5426,8.5457,8.5219,8.5632,8.5779,8.5538,8.541,8.5402,8.5233,8.4703,8.453,8.4381,8.4266,8.42,8.4148,8.4252,8.443,8.4745,8.4864,8.4959,8.5044,8.4854,8.4976,8.5583,8.6322,8.7133,8.789,8.8474,8.8877,8.8879,8.886,8.8633,8.8324,8.807,8.7525,8.7055,8.6882,8.6784,8.6449,8.5892,8.6226,8.7118,8.7601,8.7712,8.8084,8.8084,8.8084,8.8021,8.7947,8.7513,8.709,8.6629,8.6148,8.5397,8.483,8.5102,8.5497,8.5929,8.6338,8.7192,8.8146,8.8232,8.8354,8.8473,8.8554,8.8671,8.8148,8.721,8.6771,8.6628,8.7009,8.7601,8.7977,8.8631,8.8783,8.9237,8.6031,8.606,8.5996,8.5992,8.606,8.5992,8.5958,8.6026,8.6026,8.606,8.6055,8.5543,8.5074,8.4651,8.4882,8.4542,8.4555,8.483,8.5185,8.527,8.5197,8.5497,8.5877,8.63,8.6483,8.6406,8.6286,8.617,8.5863,8.5747,8.5747,8.595,8.5992,8.5958,8.5923,8.5923,8.5704,8.559,8.559,8.5858,8.5972,8.5741,8.639,8.6694,8.588,8.5876,8.6138,8.5513,8.4992,8.4675,8.4637,8.4643,8.4936,8.4974,8.514,8.5898,8.5751,8.5447,8.5517,8.5195,8.4939,8.4939,8.5204,8.5943,8.6868,8.7739,8.8428,8.8834,8.8954,8.8879,8.8803,8.8592,8.8473,8.8093,8.7697,8.7427,8.7328,8.7081,8.6598,8.6969,8.7861,8.7824,8.7973,8.8084,8.8084,8.8084,8.8084,8.8021,8.7947,8.7587,8.7227,8.682,8.6275,8.5671,8.5695,8.6078,8.6375,8.6821,8.7564,8.8208,8.8354,8.8473,8.8533,8.8575,8.8673,8.8279,8.7677,8.741,8.7419,8.7876,8.8432,8.862,8.8832,8.901,8.9199,8.6026,8.606,8.6031,8.6065,8.6094,8.6126,8.6159,8.6126,8.6094,8.6094,8.6017,8.569,8.5298,8.5028,8.5298,8.5298,8.4959,8.5549,8.5906,8.5906,8.6094,8.6022,8.6324,8.6632,8.6709,8.6709,8.6709,8.6594,8.644,8.617,8.6094,8.6094,8.6094,8.6094,8.606,8.6026,8.5958,8.5887,8.589,8.6197,8.6235,8.6161,8.6887,8.7349,8.6202,8.6355,8.6927,8.608,8.5371,8.525,8.5326,8.5232,8.5508,8.5681,8.5997,8.6553,8.648,8.6101,8.5981,8.565,8.528,8.5014,8.4976,8.5801,8.6652,8.7537,8.8381,8.8941,8.8952,8.8936,8.8823,8.8708,8.8592,8.8533,8.819,8.7846,8.7687,8.7589,8.7638,8.7861,8.7935,8.7824,8.7898,8.801,8.8084,8.8084,8.8084,8.8084,8.8084,8.791,8.7761,8.7502,8.6994,8.6511,8.6573,8.6635,8.6895,8.723,8.7675,8.8171,8.8414,8.8533,8.8629,8.8653,8.8636,8.8316,8.8053,8.8313,8.8474,8.8782,8.8923,8.915,8.9286,8.94,8.9552,8.6065,8.6094,8.6031,8.6065,8.6094,8.6191,8.6261,8.6261,8.6236,8.6094,8.6088,8.6153,8.5792,8.5483,8.5792,8.5753,8.5568,8.5889,8.6094,8.6094,8.6094,8.6094,8.6132,8.6324,8.6863,8.694,8.6978,8.7017,8.6901,8.6517,8.6094,8.6094,8.6094,8.6094,8.6094,8.6094,8.606,8.6026,8.6065,8.6219,8.6257,8.6261,8.638,8.711,8.6696,8.643,8.7313,8.6968,8.597,8.6171,8.6252,8.6104,8.6254,8.6703,8.7057,8.7108,8.7248,8.702,8.6701,8.637,8.581,8.5393,8.509,8.5962,8.6852,8.7247,8.7978,8.8956,8.9173,8.9047,8.8936,8.8879,8.8766,8.865,8.8421,8.819,8.8009,8.7948,8.7898,8.801,8.7898,8.7824,8.7973,8.8084,8.8084,8.8084,8.8084,8.8084,8.8084,8.8084,8.8047,8.7935,8.7638,8.7242,8.7415,8.7415,8.7452,8.7712,8.801,8.8171,8.8354,8.857,8.8762,8.8973,8.9217,8.8841,8.8671,8.8856,8.8888,8.8857,8.9125,8.9528,8.9692,8.979,8.979,8.606,8.6094,8.606,8.606,8.6094,8.6191,8.6569,8.7109,8.6555,8.6254,8.6223,8.6285,8.6277,8.6084,8.62,8.6122,8.6131,8.5998,8.6055,8.6094,8.6094,8.6094,8.6401,8.7094,8.7248,8.7055,8.7094,8.7286,8.6632,8.6247,8.6094,8.6094,8.6094,8.6094,8.6094,8.6094,8.6094,8.6094,8.6132,8.644,8.6863,8.6632,8.6637,8.718,8.7145,8.6959,8.7499,8.7463,8.7236,8.7457,8.7534,8.7617,8.77,8.8444,8.8706,8.8654,8.8243,8.7927,8.7647,8.7241,8.6682,8.6114,8.5924,8.6493,8.6938,8.7031,8.7651,8.8706,8.9318,8.9157,8.9047,8.8936,8.8917,8.886,8.882,8.8607,8.8391,8.8269,8.8183,8.7973,8.7824,8.7898,8.8047,8.8084,8.8084,8.8084,8.8084,8.8084,8.8084,8.8084,8.8084,8.801,8.8047,8.7898,8.801,8.7935,8.7886,8.796,8.8282,8.8307,8.8428,8.8869,8.9344,8.9742,8.9855,8.9536,8.9235,8.9122,8.9136,8.9084,8.9149,8.9503,8.9692,8.979,8.979,8.6094,8.6094,8.6094,8.6126,8.6159,8.6254,8.6624,8.6924,8.6607,8.6414,8.6345,8.6414,8.6414,8.6414,8.6414,8.6452,8.6354,8.6223,8.6126,8.6094,8.6094,8.6094,8.6748,8.7478,8.7363,8.7171,8.7478,8.7325,8.6286,8.6094,8.6094,8.6094,8.6094,8.6094,8.6094,8.6094,8.6094,8.6094,8.6094,8.6594,8.7248,8.6824,8.6478,8.6945,8.6983,8.7103,8.7679,8.7837,8.8037,8.8308,8.8492,8.8739,8.8948,8.9335,8.9578,8.9452,8.9199,8.8945,8.8567,8.8112,8.7516,8.6947,8.6227,8.6568,8.763,8.7798,8.7965,8.8871,8.9295,8.9265,8.9047,8.8992,8.8936,8.8879,8.9215,8.9302,8.8899,8.853,8.8295,8.8047,8.7973,8.801,8.8084,8.8084,8.8084,8.8084,8.8084,8.8084,8.8084,8.8084,8.8084,8.8084,8.8084,8.8084,8.8047,8.8109,8.8134,8.8307,8.853,8.9197,8.9676,8.9772,9.0001,9.0474,9.0569,9.0174,8.9911,8.9666,8.9345,8.9272,8.9362,8.9438,8.9591,8.9779,8.979,8.6094,8.6094,8.6094,8.6126,8.6184,8.6354,8.6529,8.6693,8.6539,8.6577,8.6693,8.6577,8.6472,8.6443,8.6472,8.6443,8.6384,8.6254,8.6159,8.6094,8.6094,8.6094,8.6401,8.6978,8.7171,8.7209,8.7248,8.6863,8.6132,8.6094,8.6094,8.6094,8.6094,8.6094,8.6094,8.6094,8.6094,8.617,8.6324,8.6709,8.6786,8.6709,8.6594,8.6401,8.6517,8.7248,8.7979,8.8444,8.8567,8.9074,8.9491,8.963,8.9806,9.0015,8.9961,8.9953,8.9859,8.9479,8.909,8.8842,8.8274,8.763,8.6796,8.6985,8.8084,8.8415,8.8495,8.8936,8.9324,8.9431,8.927,8.9179,8.9179,8.9123,8.9572,8.9831,8.9355,8.8838,8.8493,8.8183,8.8146,8.8146,8.8146,8.8146,8.8146,8.8146,8.8121,8.8084,8.8084,8.8084,8.8084,8.8084,8.8084,8.8084,8.8084,8.8245,8.8344,8.8716,8.9075,9.0102,9.09,9.09,9.1071,9.1337,9.1339,9.1057,9.0493,9.0097,8.983,8.9461,8.9475,8.9489,8.9629,8.9729,8.979,8.6094,8.6094,8.6094,8.6159,8.6223,8.6354,8.6868,8.735,8.6826,8.6904,8.7146,8.6788,8.6556,8.6472,8.65,8.6472,8.6384,8.6254,8.6191,8.6094,8.6094,8.6094,8.6286,8.6786,8.7286,8.7209,8.6863,8.6286,8.6094,8.6094,8.6094,8.6094,8.6094,8.6094,8.6094,8.6094,8.617,8.6324,8.6786,8.7248,8.7401,8.7325,8.7248,8.7401,8.7863,8.8286,8.8709,8.921,8.9906,9.0488,9.0646,9.0491,9.0488,9.0478,9.0394,9.0307,9.0257,9.0053,8.9741,8.9517,8.9014,8.8511,8.7943,8.7933,8.8577,8.8539,8.8859,8.944,8.9754,8.9899,8.9813,8.9836,8.9855,8.9649,8.9797,8.9814,8.9585,8.8996,8.8479,8.8368,8.8293,8.8293,8.8232,8.8232,8.8293,8.8269,8.8381,8.8381,8.8183,8.8183,8.8158,8.8158,8.8158,8.8084,8.8084,8.8418,8.8628,8.9038,8.9658,9.0707,9.1462,9.1912,9.218,9.2371,9.2278,9.2035,9.1451,9.0528,8.9996,8.9612,8.9565,8.9591,8.9629,8.9881,9.0044]},{"header":{"parameterUnit":"m.s-1","parameterCategory":1,"la1":31.0,"la2":29.5877,"lo1":-88.7671,"lo2":-86.6584,"dx":0.0162,"dy":0.0185,"nx":115,"ny":88,"refTime":"2022-12-24T06:00:00:Z","depth":0,"parameterNumber":3,"parameterNumberName":"V-component_of_WINDS"},"data":[0.0,0.0,0.0,0.0,0.0,0.0,0.0,0.0,0.0,0.0,0.0,0.0,0.0,0.0,0.0,0.0,0.0,0.0,0.0,0.0,0.0,0.0,0.0,0.0,0.0,0.0,0.0,0.0,0.0,0.0,0.0,0.0,0.0,0.0,0.0,0.0,0.0,0.0,0.0,0.0,0.0,0.0,0.0,0.0,0.0,0.0,0.0,0.0,0.0,0.0,0.0,0.0,0.0,0.0,0.0,0.0,0.0,0.0,0.0,0.0,0.0,0.0,0.0,0.0,0.0,0.0,0.0,0.0,0.0,0.0,0.0,0.0,0.0,0.0,0.0,0.0,0.0,0.0,0.0,0.0,0.0,0.0,0.0,0.0,0.0,0.0,0.0,0.0,0.0,0.0,0.0,0.0,0.0,0.0,0.0,0.0,0.0,0.0,0.0,0.0,0.0,0.0,0.0,0.0,0.0,0.0,0.0,0.0,0.0,0.0,0.0,0.0,0.0,0.0,0.0,0.0,0.0,0.0,0.0,0.0,0.0,0.0,0.0,0.0,0.0,0.0,0.0,0.0,0.0,0.0,0.0,0.0,0.0,0.0,0.0,0.0,0.0,0.0,0.0,0.0,0.0,0.0,0.0,0.0,0.0,0.0,0.0,0.0,0.0,0.0,0.0,0.0,0.0,0.0,0.0,0.0,0.0,0.0,0.0,0.0,0.0,0.0,0.0,0.0,0.0,0.0,0.0,0.0,0.0,0.0,0.0,0.0,0.0,0.0,0.0,0.0,0.0,0.0,0.0,0.0,0.0,0.0,0.0,0.0,0.0,0.0,0.0,0.0,0.0,0.0,0.0,0.0,0.0,0.0,0.0,0.0,0.0,0.0,0.0,0.0,0.0,0.0,0.0,0.0,0.0,0.0,0.0,0.0,0.0,0.0,0.0,0.0,0.0,0.0,0.0,0.0,0.0,0.0,0.0,0.0,0.0,0.0,0.0,0.0,0.0,0.0,0.0,0.0,0.0,0.0,0.0,0.0,0.0,0.0,0.0,0.0,0.0,0.0,0.0,0.0,0.0,0.0,0.0,0.0,0.0,0.0,0.0,0.0,0.0,0.0,0.0,0.0,0.0,0.0,0.0,0.0,0.0,0.0,0.0,0.0,0.0,0.0,0.0,0.0,0.0,0.0,0.0,0.0,0.0,0.0,0.0,0.0,0.0,0.0,0.0,0.0,0.0,0.0,0.0,0.0,0.0,0.0,0.0,0.0,0.0,0.0,0.0,0.0,0.0,0.0,0.0,0.0,0.0,0.0,0.0,0.0,0.0,0.0,0.0,0.0,0.0,0.0,0.0,0.0,0.0,0.0,0.0,0.0,0.0,0.0,0.0,0.0,0.0,0.0,0.0,0.0,0.0,0.0,0.0,0.0,0.0,0.0,0.0,0.0,0.0,0.0,0.0,0.0,0.0,0.0,0.0,0.0,0.0,0.0,0.0,0.0,0.0,0.0,0.0,0.0,0.0,0.0,0.0,0.0,0.0,0.0,0.0,0.0,0.0,0.0,0.0,0.0,0.0,0.0,0.0,0.0,0.0,0.0,0.0,0.0,0.0,0.0,0.0,0.0,0.0,0.0,0.0,0.0,0.0,0.0,0.0,0.0,0.0,0.0,0.0,0.0,0.0,0.0,0.0,0.0,0.0,0.0,0.0,0.0,0.0,0.0,0.0,0.0,0.0,0.0,0.0,0.0,0.0,0.0,0.0,0.0,0.0,0.0,0.0,0.0,0.0,0.0,0.0,0.0,0.0,0.0,0.0,0.0,0.0,0.0,0.0,0.0,0.0,0.0,0.0,0.0,0.0,0.0,0.0,0.0,0.0,0.0,0.0,0.0,0.0,0.0,0.0,0.0,0.0,0.0,0.0,0.0,0.0,0.0,0.0,0.0,0.0,0.0,0.0,0.0,0.0,0.0,0.0,0.0,0.0,0.0,0.0,0.0,0.0,0.0,0.0,0.0,0.0,0.0,0.0,0.0,0.0,0.0,0.0,0.0,0.0,0.0,0.0,0.0,0.0,0.0,0.0,0.0,0.0,0.0,0.0,0.0,0.0,0.0,0.0,0.0,0.0,0.0,0.0,0.0,0.0,0.0,0.0,0.0,0.0,0.0,0.0,0.0,0.0,0.0,0.0,0.0,0.0,0.0,0.0,0.0,0.0,0.0,0.0,0.0,0.0,0.0,0.0,0.0,0.0,0.0,0.0,0.0,0.0,0.0,0.0,0.0,0.0,0.0,0.0,0.0,0.0,0.0,0.0,0.0,0.0,0.0,0.0,0.0,0.0,0.0,0.0,0.0,0.0,0.0,0.0,0.0,0.0,0.0,0.0,0.0,0.0,0.0,0.0,0.0,0.0,0.0,0.0,0.0,0.0,0.0,0.0,0.0,0.0,0.0,0.0,0.0,0.0,0.0,0.0,0.0,0.0,0.0,0.0,0.0,0.0,0.0,0.0,0.0,0.0,0.0,0.0,0.0,0.0,0.0,0.0,0.0,0.0,0.0,0.0,0.0,0.0,0.0,0.0,0.0,0.0,0.0,0.0,0.0,0.0,0.0,0.0,0.0,0.0,0.0,0.0,0.0,0.0,0.0,0.0,0.0,0.0,0.0,0.0,0.0,0.0,0.0,0.0,0.0,0.0,0.0,0.0,0.0,0.0,0.0,0.0,0.0,0.0,0.0,0.0,0.0,0.0,0.0,0.0,0.0,0.0,0.0,0.0,0.0,0.0,0.0,0.0,0.0,0.0,0.0,0.0,0.0,0.0,0.0,0.0,0.0,0.0,0.0,0.0,0.0,0.0,0.0,0.0,0.0,0.0,0.0,0.0,0.0,0.0,0.0,0.0,0.0,0.0,0.0,0.0,0.0,0.0,0.0,0.0,0.0,0.0,0.0,0.0,0.0,0.0,0.0,0.0,0.0,0.0,0.0,0.0,0.0,0.0,0.0,0.0,0.0,0.0,0.0,0.0,0.0,0.0,0.0,0.0,0.0,0.0,0.0,0.0,0.0,0.0,0.0,0.0,0.0,0.0,0.0,0.0,0.0,0.0,0.0,0.0,0.0,0.0,0.0,0.0,0.0,0.0,0.0,0.0,0.0,0.0,0.0,0.0,0.0,0.0,0.0,0.0,0.0,0.0,0.0,0.0,0.0,0.0,0.0,0.0,0.0,0.0,0.0,0.0,0.0,0.0,0.0,0.0,0.0,0.0,0.0,0.0,0.0,0.0,0.0,0.0,0.0,0.0,0.0,0.0,0.0,0.0,0.0,0.0,0.0,0.0,0.0,0.0,0.0,0.0,0.0,0.0,0.0,0.0,0.0,0.0,0.0,0.0,0.0,0.0,0.0,0.0,0.0,0.0,0.0,0.0,0.0,0.0,0.0,0.0,0.0,0.0,0.0,0.0,0.0,0.0,0.0,0.0,0.0,0.0,0.0,0.0,0.0,0.0,0.0,0.0,0.0,0.0,0.0,0.0,0.0,0.0,0.0,0.0,0.0,0.0,0.0,0.0,0.0,0.0,0.0,0.0,0.0,0.0,0.0,0.0,0.0,0.0,0.0,0.0,0.0,0.0,0.0,0.0,0.0,0.0,0.0,0.0,0.0,0.0,0.0,0.0,0.0,0.0,0.0,0.0,0.0,0.0,0.0,0.0,0.0,0.0,0.0,0.0,0.0,0.0,0.0,0.0,0.0,0.0,0.0,0.0,0.0,0.0,0.0,0.0,0.0,0.0,0.0,0.0,0.0,0.0,0.0,0.0,0.0,0.0,0.0,0.0,0.0,0.0,0.0,0.0,0.0,0.0,0.0,0.0,0.0,0.0,0.0,0.0,0.0,0.0,0.0,0.0,0.0,0.0,0.0,0.0,0.0,0.0,0.0,0.0,0.0,0.0,0.0,0.0,0.0,0.0,0.0,0.0,0.0,0.0,0.0,0.0,0.0,0.0,0.0,0.0,0.0,0.0,0.0,0.0,0.0,0.0,0.0,0.0,0.0,0.0,0.0,0.0,0.0,0.0,0.0,0.0,0.0,0.0,0.0,0.0,0.0,0.0,0.0,0.0,0.0,0.0,0.0,0.0,0.0,0.0,0.0,0.0,0.0,0.0,0.0,0.0,0.0,0.0,0.0,0.0,0.0,0.0,0.0,0.0,0.0,0.0,0.0,0.0,0.0,0.0,0.0,0.0,0.0,0.0,0.0,0.0,0.0,0.0,0.0,0.0,0.0,-2.6875,0.0,0.0,0.0,-2.508,0.0,0.0,0.0,0.0,0.0,0.0,0.0,0.0,0.0,0.0,0.0,0.0,0.0,0.0,0.0,0.0,0.0,0.0,0.0,0.0,0.0,0.0,0.0,0.0,0.0,0.0,0.0,0.0,0.0,0.0,0.0,0.0,0.0,0.0,0.0,0.0,0.0,0.0,0.0,0.0,0.0,0.0,0.0,0.0,0.0,0.0,0.0,0.0,0.0,0.0,0.0,0.0,0.0,0.0,0.0,0.0,0.0,0.0,0.0,0.0,0.0,0.0,0.0,0.0,0.0,0.0,0.0,0.0,0.0,0.0,0.0,0.0,0.0,0.0,0.0,0.0,0.0,0.0,0.0,0.0,0.0,0.0,0.0,0.0,0.0,0.0,0.0,0.0,0.0,0.0,0.0,0.0,0.0,0.0,0.0,0.0,0.0,0.0,0.0,0.0,0.0,0.0,0.0,0.0,0.0,0.0,0.0,0.0,0.0,0.0,-2.7143,-2.6519,-2.6293,-2.5503,-2.427,0.0,0.0,0.0,0.0,0.0,0.0,0.0,0.0,0.0,0.0,0.0,0.0,0.0,0.0,0.0,0.0,0.0,0.0,0.0,0.0,0.0,0.0,0.0,0.0,0.0,0.0,0.0,0.0,0.0,0.0,0.0,0.0,0.0,0.0,0.0,0.0,0.0,0.0,0.0,0.0,0.0,0.0,0.0,0.0,0.0,0.0,0.0,0.0,0.0,0.0,0.0,0.0,0.0,0.0,0.0,0.0,0.0,0.0,0.0,0.0,0.0,0.0,0.0,0.0,0.0,0.0,0.0,0.0,0.0,0.0,0.0,0.0,0.0,0.0,0.0,0.0,0.0,0.0,0.0,0.0,0.0,0.0,0.0,0.0,0.0,0.0,0.0,0.0,0.0,0.0,0.0,0.0,0.0,0.0,0.0,0.0,0.0,0.0,0.0,0.0,0.0,0.0,0.0,0.0,0.0,0.0,0.0,0.0,0.0,0.0,0.0,0.0,-2.5631,-2.5058,-2.4099,0.0,0.0,0.0,0.0,0.0,0.0,0.0,0.0,0.0,0.0,0.0,0.0,0.0,0.0,0.0,0.0,0.0,0.0,0.0,0.0,0.0,0.0,0.0,0.0,0.0,0.0,0.0,0.0,0.0,0.0,0.0,0.0,0.0,0.0,0.0,0.0,0.0,0.0,0.0,0.0,0.0,0.0,0.0,0.0,0.0,0.0,0.0,0.0,0.0,0.0,0.0,0.0,0.0,0.0,0.0,0.0,0.0,0.0,0.0,0.0,0.0,0.0,0.0,0.0,0.0,0.0,0.0,0.0,0.0,0.0,0.0,0.0,0.0,0.0,0.0,0.0,0.0,0.0,0.0,0.0,0.0,0.0,0.0,0.0,0.0,0.0,0.0,0.0,0.0,0.0,0.0,0.0,0.0,0.0,0.0,0.0,0.0,0.0,0.0,0.0,0.0,0.0,0.0,0.0,0.0,0.0,0.0,0.0,0.0,0.0,-2.5344,-2.5609,-2.5272,0.0,-2.5667,0.0,0.0,0.0,0.0,0.0,0.0,0.0,0.0,0.0,0.0,0.0,0.0,0.0,0.0,0.0,0.0,0.0,0.0,0.0,0.0,0.0,0.0,0.0,0.0,0.0,0.0,0.0,0.0,0.0,0.0,0.0,0.0,0.0,0.0,0.0,0.0,0.0,0.0,0.0,0.0,0.0,0.0,0.0,0.0,0.0,0.0,0.0,0.0,0.0,0.0,0.0,0.0,0.0,0.0,0.0,0.0,0.0,0.0,0.0,0.0,0.0,0.0,0.0,0.0,0.0,0.0,0.0,0.0,0.0,0.0,0.0,0.0,0.0,0.0,0.0,0.0,0.0,0.0,0.0,0.0,0.0,0.0,0.0,0.0,0.0,0.0,0.0,0.0,0.0,0.0,0.0,0.0,0.0,0.0,0.0,0.0,0.0,0.0,0.0,0.0,0.0,0.0,0.0,0.0,0.0,0.0,0.0,0.0,0.0,0.0,-2.4401,-2.4718,-2.3423,-2.3148,0.0,0.0,0.0,0.0,0.0,0.0,0.0,0.0,0.0,0.0,0.0,0.0,0.0,0.0,0.0,0.0,0.0,0.0,0.0,0.0,0.0,0.0,0.0,0.0,0.0,0.0,0.0,0.0,0.0,0.0,0.0,0.0,0.0,0.0,0.0,0.0,0.0,0.0,0.0,0.0,0.0,0.0,0.0,0.0,0.0,0.0,0.0,0.0,0.0,0.0,0.0,0.0,0.0,0.0,0.0,0.0,0.0,0.0,0.0,0.0,0.0,0.0,0.0,0.0,0.0,0.0,0.0,0.0,0.0,0.0,0.0,0.0,0.0,0.0,0.0,0.0,0.0,0.0,0.0,0.0,0.0,0.0,0.0,0.0,0.0,0.0,0.0,0.0,0.0,0.0,0.0,0.0,0.0,0.0,0.0,0.0,0.0,0.0,0.0,0.0,0.0,0.0,0.0,0.0,0.0,0.0,0.0,0.0,0.0,0.0,-2.2704,-2.3007,-2.3201,-2.2403,-2.2274,-2.3195,0.0,0.0,0.0,0.0,0.0,0.0,0.0,0.0,0.0,0.0,0.0,0.0,0.0,0.0,0.0,0.0,0.0,0.0,0.0,0.0,0.0,0.0,0.0,0.0,0.0,0.0,0.0,0.0,0.0,0.0,0.0,0.0,0.0,0.0,0.0,0.0,0.0,0.0,0.0,0.0,0.0,0.0,0.0,0.0,0.0,0.0,0.0,0.0,0.0,0.0,0.0,0.0,0.0,0.0,0.0,0.0,0.0,0.0,0.0,0.0,0.0,0.0,0.0,0.0,0.0,0.0,0.0,0.0,0.0,0.0,0.0,0.0,0.0,0.0,0.0,0.0,0.0,0.0,0.0,0.0,0.0,0.0,0.0,0.0,0.0,0.0,0.0,0.0,0.0,0.0,0.0,0.0,0.0,0.0,0.0,0.0,0.0,0.0,0.0,0.0,0.0,0.0,0.0,0.0,0.0,0.0,0.0,0.0,-2.0768,-2.1062,-2.1126,-2.0944,-2.2996,-2.4099,0.0,0.0,0.0,0.0,0.0,0.0,0.0,0.0,0.0,0.0,0.0,0.0,0.0,0.0,0.0,0.0,0.0,0.0,0.0,0.0,0.0,0.0,0.0,0.0,0.0,0.0,0.0,0.0,0.0,0.0,0.0,0.0,0.0,0.0,0.0,0.0,0.0,0.0,0.0,0.0,0.0,0.0,0.0,0.0,0.0,0.0,0.0,0.0,0.0,0.0,0.0,0.0,0.0,0.0,0.0,0.0,0.0,0.0,0.0,0.0,0.0,0.0,0.0,0.0,0.0,0.0,0.0,0.0,0.0,0.0,0.0,0.0,0.0,0.0,0.0,0.0,0.0,0.0,0.0,0.0,0.0,0.0,0.0,0.0,0.0,0.0,0.0,0.0,0.0,0.0,0.0,0.0,0.0,0.0,0.0,0.0,0.0,0.0,0.0,0.0,0.0,0.0,0.0,0.0,0.0,0.0,0.0,0.0,0.0,-1.9626,-2.0413,-2.0987,-2.1554,-2.2066,-2.2889,0.0,0.0,0.0,0.0,0.0,0.0,0.0,0.0,0.0,0.0,0.0,0.0,0.0,0.0,0.0,0.0,0.0,0.0,0.0,0.0,0.0,0.0,0.0,0.0,0.0,0.0,0.0,0.0,0.0,0.0,0.0,0.0,0.0,0.0,0.0,0.0,0.0,0.0,0.0,0.0,0.0,0.0,0.0,0.0,0.0,0.0,0.0,0.0,0.0,0.0,0.0,0.0,0.0,0.0,0.0,0.0,0.0,0.0,0.0,0.0,0.0,0.0,0.0,0.0,0.0,0.0,0.0,0.0,0.0,0.0,0.0,0.0,0.0,0.0,0.0,0.0,0.0,0.0,0.0,0.0,0.0,0.0,0.0,0.0,0.0,0.0,0.0,0.0,0.0,0.0,0.0,0.0,0.0,0.0,0.0,0.0,0.0,0.0,0.0,0.0,0.0,0.0,0.0,0.0,0.0,0.0,0.0,0.0,0.0,-1.9018,-1.9793,-2.0472,-2.1156,-2.1212,-2.2017,0.0,0.0,0.0,0.0,0.0,0.0,0.0,0.0,0.0,0.0,0.0,0.0,0.0,0.0,0.0,0.0,0.0,0.0,0.0,0.0,0.0,0.0,0.0,0.0,0.0,0.0,0.0,0.0,0.0,0.0,0.0,0.0,0.0,0.0,0.0,0.0,0.0,0.0,0.0,0.0,0.0,0.0,0.0,0.0,0.0,0.0,0.0,0.0,0.0,0.0,0.0,0.0,0.0,0.0,0.0,0.0,0.0,0.0,0.0,0.0,0.0,0.0,0.0,0.0,0.0,0.0,0.0,0.0,0.0,0.0,0.0,0.0,0.0,0.0,0.0,0.0,0.0,0.0,0.0,0.0,0.0,0.0,0.0,0.0,0.0,0.0,0.0,0.0,0.0,0.0,0.0,0.0,0.0,0.0,0.0,0.0,0.0,0.0,0.0,0.0,0.0,0.0,0.0,0.0,0.0,0.0,0.0,0.0,-1.9722,-1.8905,-1.9225,-1.9515,-1.9488,-2.0702,-2.1719,0.0,0.0,0.0,0.0,0.0,0.0,0.0,0.0,0.0,0.0,0.0,0.0,0.0,0.0,0.0,0.0,0.0,0.0,0.0,0.0,0.0,0.0,0.0,0.0,0.0,0.0,0.0,0.0,0.0,0.0,0.0,0.0,0.0,0.0,0.0,0.0,0.0,0.0,0.0,0.0,0.0,0.0,0.0,0.0,0.0,0.0,0.0,0.0,0.0,0.0,0.0,0.0,0.0,0.0,0.0,0.0,0.0,0.0,0.0,0.0,0.0,0.0,0.0,0.0,0.0,0.0,0.0,0.0,0.0,0.0,0.0,0.0,0.0,0.0,0.0,0.0,0.0,0.0,0.0,0.0,0.0,0.0,0.0,0.0,0.0,0.0,0.0,0.0,0.0,0.0,0.0,0.0,0.0,0.0,0.0,0.0,0.0,0.0,0.0,0.0,0.0,0.0,0.0,0.0,0.0,0.0,0.0,0.0,0.0,-1.8931,-1.9613,-2.021,-2.0929,-2.1046,-2.1846,0.0,0.0,0.0,0.0,0.0,0.0,0.0,0.0,0.0,0.0,0.0,0.0,0.0,0.0,0.0,0.0,0.0,0.0,0.0,0.0,0.0,0.0,0.0,0.0,0.0,0.0,0.0,0.0,0.0,0.0,0.0,0.0,0.0,0.0,0.0,0.0,0.0,0.0,0.0,0.0,0.0,0.0,0.0,0.0,0.0,0.0,0.0,0.0,0.0,0.0,0.0,0.0,0.0,0.0,0.0,0.0,0.0,0.0,0.0,0.0,0.0,0.0,0.0,0.0,0.0,0.0,0.0,0.0,0.0,0.0,0.0,0.0,0.0,0.0,0.0,0.0,0.0,0.0,0.0,0.0,0.0,0.0,0.0,0.0,0.0,0.0,0.0,0.0,0.0,0.0,0.0,0.0,0.0,0.0,0.0,0.0,0.0,0.0,0.0,0.0,0.0,0.0,0.0,0.0,0.0,0.0,0.0,0.0,0.0,-1.9394,-2.024,-2.0725,-2.1256,-2.0943,-2.1427,-2.2743,0.0,0.0,0.0,0.0,0.0,0.0,0.0,0.0,0.0,0.0,0.0,0.0,0.0,0.0,0.0,0.0,0.0,0.0,0.0,0.0,0.0,0.0,0.0,0.0,0.0,0.0,0.0,0.0,0.0,0.0,0.0,0.0,0.0,0.0,0.0,0.0,0.0,0.0,0.0,0.0,0.0,0.0,0.0,0.0,0.0,0.0,0.0,0.0,0.0,0.0,0.0,0.0,0.0,0.0,0.0,0.0,0.0,0.0,0.0,0.0,0.0,0.0,0.0,0.0,0.0,0.0,0.0,0.0,0.0,0.0,0.0,0.0,0.0,0.0,0.0,0.0,0.0,0.0,0.0,0.0,0.0,0.0,0.0,0.0,0.0,0.0,0.0,0.0,0.0,0.0,0.0,0.0,0.0,0.0,0.0,0.0,0.0,0.0,0.0,0.0,0.0,0.0,0.0,0.0,0.0,0.0,0.0,0.0,-2.0328,-2.1052,-2.1231,-2.0807,-2.0506,-2.0779,0.0,0.0,0.0,0.0,0.0,0.0,0.0,0.0,0.0,0.0,0.0,0.0,0.0,0.0,0.0,0.0,0.0,0.0,0.0,0.0,0.0,0.0,0.0,0.0,0.0,0.0,0.0,0.0,0.0,0.0,0.0,0.0,0.0,0.0,0.0,0.0,0.0,0.0,0.0,0.0,0.0,0.0,0.0,0.0,0.0,0.0,0.0,0.0,0.0,0.0,0.0,0.0,0.0,0.0,0.0,0.0,0.0,0.0,0.0,0.0,0.0,0.0,0.0,0.0,0.0,0.0,0.0,0.0,0.0,0.0,0.0,0.0,0.0,0.0,0.0,0.0,0.0,0.0,0.0,0.0,0.0,0.0,0.0,0.0,0.0,0.0,0.0,0.0,0.0,0.0,0.0,0.0,0.0,0.0,0.0,0.0,0.0,0.0,0.0,0.0,0.0,0.0,0.0,0.0,0.0,0.0,0.0,0.0,0.0,-2.1418,-2.237,-2.2524,-2.1724,-2.1423,-2.1614,0.0,0.0,0.0,0.0,0.0,0.0,0.0,0.0,0.0,0.0,0.0,0.0,0.0,0.0,0.0,0.0,0.0,0.0,0.0,0.0,0.0,0.0,0.0,0.0,0.0,0.0,0.0,0.0,0.0,0.0,0.0,0.0,0.0,0.0,0.0,0.0,0.0,0.0,0.0,0.0,0.0,0.0,0.0,0.0,0.0,0.0,0.0,0.0,0.0,0.0,0.0,0.0,0.0,0.0,0.0,0.0,0.0,0.0,0.0,0.0,0.0,0.0,0.0,0.0,0.0,0.0,0.0,0.0,0.0,0.0,0.0,0.0,0.0,0.0,0.0,0.0,0.0,0.0,0.0,0.0,0.0,0.0,0.0,0.0,0.0,0.0,0.0,0.0,0.0,0.0,0.0,0.0,0.0,0.0,0.0,0.0,0.0,0.0,0.0,0.0,0.0,0.0,0.0,0.0,0.0,0.0,0.0,0.0,-2.1589,-2.202,-2.3207,-2.3665,-2.3336,-2.2549,-2.1978,0.0,0.0,0.0,0.0,0.0,0.0,0.0,0.0,0.0,0.0,0.0,0.0,0.0,0.0,0.0,0.0,0.0,0.0,0.0,0.0,0.0,0.0,0.0,0.0,0.0,0.0,0.0,0.0,0.0,0.0,0.0,0.0,0.0,0.0,0.0,0.0,0.0,0.0,0.0,0.0,0.0,0.0,0.0,0.0,0.0,0.0,0.0,0.0,0.0,0.0,0.0,0.0,0.0,0.0,0.0,0.0,0.0,0.0,0.0,0.0,0.0,0.0,0.0,0.0,0.0,0.0,0.0,0.0,0.0,0.0,0.0,0.0,0.0,0.0,0.0,0.0,0.0,0.0,0.0,0.0,0.0,0.0,0.0,0.0,0.0,0.0,0.0,0.0,0.0,0.0,0.0,0.0,0.0,0.0,0.0,0.0,0.0,0.0,0.0,0.0,0.0,0.0,0.0,0.0,0.0,0.0,0.0,0.0,-2.1807,-2.2722,-2.371,-2.4436,-2.4882,-2.3412,-2.2157,0.0,0.0,0.0,0.0,0.0,0.0,0.0,0.0,0.0,0.0,0.0,0.0,0.0,0.0,0.0,0.0,0.0,0.0,0.0,0.0,0.0,0.0,0.0,0.0,0.0,0.0,0.0,0.0,0.0,0.0,0.0,0.0,0.0,0.0,0.0,0.0,0.0,0.0,0.0,0.0,0.0,0.0,0.0,0.0,0.0,0.0,0.0,0.0,0.0,0.0,0.0,0.0,0.0,0.0,0.0,0.0,0.0,0.0,0.0,0.0,0.0,0.0,0.0,0.0,0.0,0.0,0.0,0.0,0.0,0.0,0.0,0.0,0.0,0.0,0.0,0.0,0.0,0.0,0.0,0.0,0.0,0.0,0.0,0.0,0.0,0.0,0.0,0.0,0.0,0.0,0.0,0.0,0.0,0.0,0.0,0.0,0.0,0.0,0.0,0.0,0.0,0.0,0.0,0.0,0.0,0.0,0.0,0.0,-2.3127,-2.3436,-2.416,-2.4669,-2.4954,-2.3969,-2.3106,0.0,0.0,0.0,0.0,0.0,0.0,0.0,0.0,0.0,0.0,0.0,0.0,0.0,0.0,0.0,0.0,0.0,0.0,0.0,0.0,0.0,0.0,0.0,0.0,0.0,0.0,0.0,0.0,0.0,0.0,0.0,0.0,0.0,0.0,0.0,0.0,0.0,0.0,0.0,0.0,0.0,0.0,0.0,0.0,0.0,0.0,0.0,0.0,-2.0686,0.0,0.0,0.0,0.0,0.0,0.0,0.0,0.0,0.0,0.0,0.0,0.0,0.0,0.0,0.0,0.0,0.0,0.0,0.0,0.0,0.0,0.0,0.0,0.0,0.0,0.0,0.0,0.0,0.0,0.0,0.0,0.0,0.0,0.0,0.0,0.0,0.0,0.0,0.0,0.0,0.0,0.0,0.0,0.0,0.0,0.0,0.0,0.0,0.0,0.0,0.0,0.0,0.0,0.0,0.0,0.0,0.0,0.0,0.0,-2.2981,-2.3536,-2.4422,-2.511,-2.5432,-2.4592,-2.3732,0.0,0.0,0.0,0.0,0.0,0.0,0.0,0.0,0.0,0.0,0.0,0.0,0.0,0.0,0.0,0.0,0.0,0.0,0.0,0.0,0.0,0.0,0.0,0.0,0.0,0.0,0.0,0.0,0.0,0.0,0.0,0.0,0.0,0.0,0.0,0.0,0.0,0.0,0.0,0.0,0.0,0.0,0.0,0.0,0.0,0.0,0.0,0.0,0.0,0.0,0.0,0.0,0.0,0.0,0.0,0.0,0.0,0.0,0.0,0.0,0.0,0.0,0.0,0.0,0.0,0.0,0.0,0.0,0.0,0.0,0.0,0.0,0.0,0.0,0.0,0.0,0.0,0.0,0.0,0.0,0.0,0.0,0.0,0.0,0.0,0.0,0.0,0.0,0.0,0.0,0.0,0.0,0.0,0.0,0.0,0.0,0.0,0.0,0.0,0.0,0.0,0.0,0.0,0.0,0.0,0.0,0.0,-2.1427,-2.2454,-2.3666,-2.464,-2.5418,-2.5988,-2.5299,-2.4205,0.0,0.0,0.0,0.0,0.0,0.0,0.0,0.0,0.0,0.0,0.0,0.0,0.0,0.0,0.0,0.0,0.0,0.0,0.0,0.0,0.0,0.0,0.0,0.0,0.0,0.0,0.0,0.0,0.0,0.0,0.0,0.0,0.0,0.0,0.0,0.0,0.0,0.0,0.0,-2.1536,-2.1894,0.0,0.0,0.0,0.0,0.0,0.0,0.0,0.0,-2.0956,0.0,0.0,0.0,0.0,0.0,0.0,0.0,0.0,0.0,0.0,0.0,0.0,0.0,0.0,0.0,0.0,0.0,0.0,0.0,0.0,0.0,0.0,0.0,0.0,0.0,0.0,0.0,0.0,0.0,0.0,0.0,0.0,0.0,0.0,0.0,0.0,0.0,0.0,0.0,0.0,0.0,0.0,0.0,0.0,0.0,0.0,0.0,0.0,0.0,0.0,0.0,0.0,0.0,0.0,0.0,0.0,-2.3419,-2.2798,-2.3007,-2.3956,-2.4979,-2.5637,-2.6003,-2.5299,-2.454,-2.3826,0.0,0.0,0.0,0.0,0.0,0.0,0.0,0.0,0.0,0.0,0.0,0.0,0.0,0.0,0.0,0.0,0.0,0.0,0.0,0.0,0.0,0.0,0.0,0.0,0.0,0.0,0.0,0.0,0.0,0.0,0.0,0.0,0.0,0.0,0.0,0.0,0.0,0.0,0.0,-2.2538,-2.2096,0.0,0.0,0.0,0.0,0.0,0.0,0.0,0.0,-2.1216,0.0,0.0,0.0,0.0,0.0,0.0,0.0,0.0,0.0,0.0,0.0,0.0,0.0,0.0,0.0,0.0,0.0,0.0,0.0,0.0,0.0,0.0,0.0,0.0,0.0,0.0,0.0,0.0,0.0,0.0,0.0,0.0,0.0,0.0,0.0,0.0,0.0,0.0,0.0,0.0,0.0,0.0,0.0,0.0,0.0,0.0,0.0,0.0,0.0,0.0,0.0,0.0,0.0,0.0,0.0,-2.265,-2.3106,-2.3739,-2.4612,-2.5422,-2.5857,-2.6018,-2.5627,-2.4918,0.0,0.0,0.0,0.0,0.0,0.0,0.0,0.0,0.0,0.0,0.0,0.0,0.0,0.0,0.0,0.0,0.0,0.0,0.0,0.0,0.0,0.0,0.0,0.0,0.0,0.0,0.0,0.0,0.0,0.0,0.0,0.0,0.0,0.0,0.0,0.0,0.0,0.0,0.0,0.0,-2.2655,-2.2739,-2.2558,0.0,0.0,0.0,0.0,0.0,0.0,-2.1382,-2.1286,0.0,0.0,0.0,0.0,0.0,0.0,0.0,0.0,0.0,0.0,0.0,0.0,0.0,0.0,0.0,0.0,0.0,0.0,0.0,0.0,0.0,0.0,0.0,0.0,0.0,0.0,0.0,0.0,0.0,0.0,0.0,0.0,0.0,0.0,0.0,0.0,0.0,0.0,0.0,0.0,0.0,0.0,0.0,0.0,0.0,0.0,0.0,0.0,0.0,0.0,0.0,0.0,0.0,0.0,0.0,-2.1715,-2.3333,-2.4464,-2.5203,-2.5825,-2.6047,-2.612,-2.5826,-2.5086,0.0,0.0,0.0,0.0,0.0,0.0,0.0,0.0,0.0,0.0,0.0,0.0,0.0,0.0,0.0,0.0,0.0,0.0,0.0,0.0,0.0,0.0,0.0,0.0,0.0,0.0,0.0,0.0,0.0,0.0,0.0,0.0,0.0,0.0,0.0,0.0,0.0,0.0,0.0,0.0,0.0,-2.3146,-2.2668,-2.2558,0.0,0.0,0.0,0.0,-2.1778,-2.1768,0.0,0.0,0.0,0.0,0.0,0.0,0.0,0.0,0.0,0.0,0.0,0.0,0.0,0.0,0.0,0.0,0.0,0.0,0.0,0.0,0.0,0.0,0.0,0.0,0.0,0.0,0.0,0.0,0.0,0.0,0.0,0.0,0.0,0.0,0.0,0.0,0.0,0.0,0.0,0.0,0.0,0.0,0.0,0.0,0.0,0.0,0.0,0.0,0.0,0.0,0.0,0.0,0.0,0.0,0.0,0.0,-2.272,-2.3716,-2.462,-2.5517,-2.6235,-2.6446,-2.6427,-2.5527,-2.4652,0.0,0.0,0.0,0.0,0.0,0.0,0.0,0.0,0.0,0.0,0.0,0.0,0.0,0.0,0.0,0.0,0.0,0.0,0.0,0.0,0.0,0.0,0.0,0.0,0.0,0.0,0.0,0.0,0.0,0.0,0.0,0.0,0.0,0.0,0.0,0.0,0.0,0.0,0.0,0.0,0.0,-2.258,-2.2914,-2.2416,-2.1977,0.0,0.0,-2.2493,-2.2497,-2.2863,0.0,0.0,0.0,0.0,0.0,0.0,0.0,0.0,0.0,0.0,0.0,0.0,0.0,0.0,0.0,0.0,0.0,0.0,0.0,0.0,0.0,0.0,0.0,0.0,0.0,0.0,0.0,0.0,0.0,0.0,0.0,0.0,0.0,0.0,0.0,0.0,0.0,0.0,0.0,0.0,0.0,0.0,0.0,0.0,0.0,0.0,0.0,0.0,0.0,0.0,0.0,0.0,0.0,0.0,0.0,-2.1191,-2.2659,-2.4154,-2.5333,-2.6118,-2.6658,-2.678,-2.65,-2.5655,-2.4694,0.0,0.0,0.0,0.0,0.0,0.0,0.0,0.0,0.0,0.0,0.0,0.0,0.0,0.0,0.0,0.0,0.0,0.0,0.0,0.0,0.0,0.0,0.0,0.0,0.0,0.0,0.0,0.0,0.0,0.0,0.0,0.0,0.0,0.0,0.0,0.0,0.0,0.0,0.0,0.0,0.0,0.0,-2.3187,-2.3215,0.0,0.0,0.0,-2.321,-2.3116,0.0,0.0,0.0,0.0,0.0,0.0,0.0,0.0,0.0,0.0,0.0,0.0,0.0,0.0,0.0,0.0,0.0,0.0,0.0,0.0,0.0,0.0,0.0,0.0,0.0,0.0,0.0,0.0,0.0,0.0,0.0,0.0,0.0,0.0,0.0,0.0,0.0,0.0,0.0,0.0,0.0,0.0,0.0,0.0,0.0,0.0,0.0,0.0,0.0,0.0,0.0,0.0,0.0,0.0,0.0,0.0,0.0,-2.2393,-2.4644,-2.6126,-2.6863,-2.7039,-2.7102,-2.6761,-2.597,0.0,0.0,0.0,0.0,0.0,0.0,0.0,0.0,0.0,0.0,0.0,0.0,0.0,0.0,0.0,0.0,0.0,0.0,0.0,0.0,0.0,0.0,0.0,0.0,0.0,0.0,0.0,0.0,0.0,0.0,0.0,0.0,0.0,0.0,0.0,0.0,0.0,0.0,0.0,0.0,0.0,0.0,-2.4024,-2.3566,-2.3887,-2.3915,0.0,0.0,-2.3704,-2.3736,-2.3984,-2.3983,0.0,0.0,0.0,0.0,0.0,0.0,0.0,0.0,0.0,0.0,0.0,0.0,0.0,0.0,0.0,0.0,0.0,0.0,0.0,0.0,0.0,0.0,0.0,0.0,0.0,0.0,0.0,0.0,0.0,0.0,0.0,0.0,0.0,0.0,0.0,0.0,0.0,0.0,0.0,0.0,0.0,0.0,0.0,0.0,0.0,0.0,0.0,0.0,0.0,0.0,0.0,0.0,0.0,0.0,0.0,-2.2408,-2.4884,-2.6635,-2.7616,-2.7584,-2.7493,-2.7505,-2.6503,-2.5328,0.0,0.0,0.0,0.0,0.0,0.0,0.0,0.0,0.0,0.0,0.0,0.0,0.0,0.0,0.0,0.0,0.0,0.0,0.0,0.0,0.0,0.0,0.0,0.0,0.0,0.0,0.0,0.0,0.0,0.0,0.0,0.0,0.0,0.0,0.0,0.0,0.0,0.0,0.0,0.0,0.0,-2.4261,-2.3858,-2.4371,-2.4524,0.0,0.0,-2.4038,-2.42,-2.4487,-2.4424,-2.37,0.0,0.0,0.0,0.0,0.0,0.0,0.0,0.0,0.0,0.0,0.0,0.0,0.0,0.0,0.0,0.0,0.0,0.0,0.0,0.0,0.0,0.0,0.0,0.0,0.0,0.0,0.0,0.0,0.0,0.0,0.0,0.0,0.0,0.0,0.0,0.0,0.0,0.0,0.0,0.0,0.0,0.0,0.0,0.0,0.0,0.0,0.0,0.0,0.0,0.0,0.0,0.0,0.0,-2.1363,-2.2985,-2.5039,-2.6827,-2.7975,-2.7921,-2.7863,-2.755,-2.6707,-2.5627,0.0,0.0,0.0,0.0,0.0,0.0,0.0,0.0,0.0,0.0,0.0,0.0,0.0,0.0,0.0,0.0,0.0,0.0,0.0,0.0,0.0,0.0,0.0,0.0,0.0,0.0,0.0,0.0,-1.8656,-1.9164,-2.0061,0.0,0.0,0.0,0.0,0.0,0.0,0.0,0.0,0.0,0.0,-2.4962,-2.5211,-2.5526,0.0,0.0,-2.4752,-2.4603,-2.4566,-2.4671,-2.4561,-2.3679,-2.2957,0.0,0.0,0.0,0.0,0.0,0.0,0.0,0.0,0.0,0.0,0.0,0.0,0.0,0.0,0.0,0.0,0.0,0.0,0.0,0.0,0.0,0.0,0.0,0.0,0.0,0.0,0.0,0.0,0.0,0.0,0.0,0.0,0.0,0.0,0.0,0.0,0.0,0.0,0.0,0.0,0.0,0.0,0.0,0.0,0.0,0.0,0.0,0.0,0.0,0.0,0.0,0.0,-2.1589,-2.3392,-2.5333,-2.6984,-2.8193,-2.8105,-2.7985,-2.771,-2.7071,-2.6127,0.0,0.0,0.0,0.0,0.0,0.0,0.0,0.0,0.0,0.0,0.0,0.0,0.0,0.0,0.0,0.0,0.0,0.0,0.0,0.0,0.0,0.0,0.0,0.0,0.0,0.0,0.0,0.0,-1.9154,-1.9375,-1.9877,0.0,0.0,0.0,0.0,0.0,0.0,0.0,0.0,0.0,0.0,-2.5801,-2.5775,-2.6335,-2.6372,-2.5456,-2.4915,-2.4566,-2.4356,-2.4553,-2.4344,-2.368,0.0,0.0,0.0,0.0,0.0,0.0,0.0,0.0,0.0,0.0,0.0,0.0,0.0,0.0,0.0,0.0,0.0,0.0,0.0,0.0,0.0,0.0,0.0,0.0,0.0,0.0,0.0,0.0,0.0,0.0,0.0,0.0,0.0,0.0,0.0,0.0,0.0,0.0,0.0,0.0,0.0,0.0,0.0,0.0,0.0,0.0,0.0,0.0,0.0,0.0,0.0,0.0,0.0,0.0,-2.322,-2.5531,-2.7231,-2.8208,-2.8121,-2.8145,-2.8015,-2.7732,-2.6865,-2.5468,0.0,0.0,0.0,0.0,0.0,0.0,0.0,0.0,0.0,0.0,0.0,0.0,0.0,0.0,0.0,0.0,0.0,0.0,0.0,0.0,0.0,0.0,0.0,0.0,0.0,0.0,-1.8865,-1.9388,-1.9891,0.0,0.0,0.0,0.0,0.0,0.0,0.0,0.0,0.0,0.0,-2.5312,-2.6734,-2.5621,-2.6424,-2.6476,-2.4643,-2.3781,-2.3487,-2.3781,-2.4022,-2.4139,0.0,0.0,0.0,0.0,0.0,0.0,0.0,0.0,0.0,0.0,0.0,0.0,0.0,0.0,0.0,0.0,0.0,0.0,0.0,0.0,0.0,0.0,0.0,0.0,0.0,0.0,0.0,0.0,-1.9135,0.0,0.0,0.0,0.0,0.0,0.0,0.0,0.0,0.0,0.0,0.0,-2.0151,-2.0534,0.0,0.0,0.0,0.0,0.0,0.0,0.0,0.0,0.0,0.0,0.0,0.0,-2.2124,-2.391,-2.5786,-2.7478,-2.8806,-2.8588,-2.8481,-2.8481,-2.8282,-2.7314,-2.551,0.0,0.0,0.0,0.0,0.0,0.0,0.0,0.0,0.0,0.0,0.0,0.0,0.0,0.0,0.0,0.0,0.0,0.0,0.0,0.0,0.0,0.0,0.0,0.0,0.0,-1.9067,0.0,0.0,0.0,0.0,0.0,0.0,0.0,0.0,0.0,0.0,0.0,-2.1756,-2.3134,-2.4716,-2.5766,-2.5804,-2.659,-2.6858,0.0,0.0,0.0,0.0,0.0,0.0,0.0,0.0,0.0,0.0,0.0,0.0,0.0,0.0,-2.3324,-2.1651,-2.13,-2.1382,-2.1285,0.0,0.0,0.0,0.0,0.0,0.0,0.0,0.0,0.0,0.0,0.0,0.0,0.0,0.0,0.0,0.0,-1.934,0.0,0.0,0.0,0.0,0.0,0.0,0.0,0.0,-2.094,-2.1173,-2.1067,-2.145,-2.1548,0.0,-2.0981,-2.0506,0.0,0.0,0.0,0.0,0.0,0.0,0.0,0.0,-2.2609,-2.413,-2.5937,-2.7524,-2.8835,-2.8758,-2.871,-2.8832,-2.8306,-2.7264,-2.5848,-2.3931,-2.2653,0.0,0.0,0.0,0.0,0.0,0.0,0.0,0.0,0.0,0.0,0.0,0.0,0.0,0.0,0.0,0.0,0.0,0.0,0.0,0.0,0.0,0.0,0.0,-1.9549,0.0,0.0,0.0,0.0,0.0,0.0,0.0,0.0,0.0,-2.1936,-2.2062,-2.261,-2.3883,-2.5412,-2.6245,-2.5997,0.0,0.0,0.0,0.0,0.0,0.0,0.0,-2.4663,-2.4649,-2.3958,-2.3091,-2.214,-2.2385,-2.2734,-2.2821,0.0,0.0,-2.2932,-2.2632,-2.258,-2.2354,-2.2614,-2.2704,-2.2305,-2.2621,-2.3057,0.0,0.0,0.0,0.0,0.0,0.0,0.0,0.0,-2.0134,-2.008,0.0,-1.98,0.0,0.0,0.0,0.0,0.0,0.0,0.0,0.0,-2.2236,-2.2531,-2.2531,-2.2531,-2.2531,-2.2517,-2.1957,-2.1822,-2.2011,-2.099,0.0,0.0,0.0,0.0,0.0,0.0,-2.3042,-2.4046,-2.6067,-2.7458,-2.8274,-2.8496,-2.8832,-2.9033,-2.7965,-2.7031,-2.6525,-2.5219,-2.3638,-2.2063,-2.1302,0.0,0.0,0.0,0.0,0.0,0.0,0.0,0.0,0.0,0.0,0.0,0.0,0.0,0.0,0.0,0.0,0.0,0.0,0.0,0.0,-2.0301,0.0,0.0,0.0,0.0,0.0,0.0,0.0,0.0,0.0,0.0,-2.2622,-2.3379,-2.4189,-2.48,0.0,0.0,0.0,0.0,-2.7845,-2.5568,-2.4903,-2.4743,-2.477,-2.5197,-2.5531,-2.5545,0.0,0.0,-2.136,-2.1769,-2.2276,-2.1993,-2.3275,-2.441,-2.4568,-2.4524,-2.4246,-2.3707,-2.3997,-2.4247,-2.3997,-2.4178,-2.4722,-2.1323,0.0,0.0,0.0,0.0,-1.9973,-2.0241,-2.0795,-2.0876,-2.074,-2.0468,-2.0468,0.0,0.0,0.0,0.0,0.0,0.0,-2.1827,-2.2563,-2.2525,-2.2795,-2.3475,-2.327,-2.3309,-2.343,-2.3112,-2.3084,-2.3398,-2.2678,-2.1728,-2.0736,0.0,0.0,0.0,0.0,-2.3403,-2.4582,-2.6253,-2.7599,-2.8563,-2.8857,-2.8973,-2.8916,-2.8244,-2.7721,-2.7031,-2.5462,-2.3972,-2.2664,-2.1481,0.0,0.0,0.0,0.0,0.0,0.0,0.0,0.0,0.0,0.0,0.0,0.0,0.0,0.0,0.0,0.0,0.0,0.0,0.0,-2.0889,-2.1147,-2.1036,0.0,0.0,0.0,0.0,0.0,0.0,0.0,0.0,0.0,-2.4189,-2.3588,-2.3518,0.0,0.0,-2.5506,-2.4752,-2.6369,-2.7421,-2.6895,0.0,0.0,0.0,-2.5661,-2.5268,-2.5951,-2.492,-2.3575,-2.2373,-2.2105,-2.2212,-2.2888,-2.3932,-2.4957,-2.6171,-2.5727,-2.5025,-2.4592,-2.4496,-2.4275,-2.4024,-2.3954,-2.4357,-2.2124,-2.175,-2.1176,-2.0869,-2.0748,-2.0695,-2.0926,-2.1407,-2.1642,-2.1461,-2.1173,-2.1298,-2.1067,-2.0321,-2.0508,0.0,0.0,0.0,-2.2726,-2.3324,-2.316,-2.3417,-2.3755,-2.3593,-2.3651,-2.3776,-2.3475,-2.3612,-2.4053,-2.3419,-2.2759,-2.2074,0.0,0.0,-2.1768,-2.286,-2.3833,-2.468,-2.619,-2.7504,-2.8749,-2.9271,-2.9273,-2.8871,-2.8431,-2.7877,-2.7212,-2.5792,-2.4494,-2.3267,-2.2126,-2.1198,0.0,0.0,0.0,0.0,0.0,0.0,0.0,0.0,0.0,0.0,0.0,-2.0419,0.0,0.0,0.0,0.0,-2.1268,-2.1576,-2.1756,-2.1769,0.0,0.0,0.0,0.0,0.0,0.0,0.0,-2.2754,-2.3555,-2.419,-2.4734,-2.4327,-2.4344,-2.496,-2.558,-2.5862,-2.5472,0.0,-2.7974,-2.7699,-2.7401,-2.7377,-2.7054,-2.6177,-2.5677,-2.6182,-2.5238,-2.3992,-2.2671,-2.2259,-2.2234,-2.2744,-2.3723,-2.5032,-2.6558,-2.6528,-2.6056,-2.5755,-2.5611,-2.5338,-2.4761,-2.4774,-2.5105,-2.2926,-2.2846,-2.2311,-2.1897,-2.1617,-2.1871,-2.183,-2.1746,-2.2263,-2.2372,-2.1991,-2.2372,-2.1957,-2.1089,-2.1243,0.0,0.0,-2.3215,-2.3639,-2.408,-2.4186,-2.4195,-2.3834,-2.3821,-2.3821,-2.3834,-2.3541,-2.3682,-2.4235,-2.3655,-2.3651,-2.4064,-2.3476,-2.3015,-2.3089,-2.3842,-2.4288,-2.44,-2.5886,-2.7402,-2.8694,-2.9641,-2.9664,-2.8886,-2.8617,-2.799,-2.7189,-2.6241,-2.5161,-2.3623,-2.2817,-2.1731,-2.0229,0.0,0.0,0.0,0.0,0.0,0.0,0.0,0.0,0.0,0.0,0.0,0.0,0.0,0.0,0.0,-2.2582,0.0,-2.2877,-2.2503,0.0,0.0,0.0,-2.1878,-2.1947,-2.2939,-2.37,-2.3612,0.0,0.0,-2.4784,0.0,-2.6043,-2.6836,-2.7482,-2.773,-2.7213,-2.8541,-2.918,-2.799,-2.7637,-2.7363,-2.7149,-2.6718,-2.6363,-2.6376,-2.5719,-2.4472,-2.2883,-2.2448,-2.2372,-2.1849,-2.3008,-2.4572,-2.5918,-2.6669,-2.7126,-2.6752,-2.6999,-2.6985,-2.6171,-2.6143,-2.6418,-2.3267,-2.2776,-2.2631,-2.2295,-2.1897,-2.1964,-2.1951,-2.1884,-2.2345,-2.2241,-2.1991,-2.1977,-2.1753,-2.1327,-2.207,-2.2917,-2.3557,-2.3926,-2.4396,-2.4957,-2.452,-2.4412,-2.4409,-2.4209,-2.4209,-2.4396,-2.4128,-2.4142,-2.4542,-2.3915,-2.4025,-2.4432,-2.4217,-2.3859,-2.3546,-2.4327,-2.479,-2.4829,-2.6467,-2.7804,-2.8927,-2.9423,-2.9368,-2.89,-2.8977,-2.8791,-2.7824,-2.704,-2.5948,-2.438,-2.2945,-2.1797,-2.0889,-2.0485,0.0,0.0,0.0,0.0,0.0,0.0,0.0,0.0,0.0,-2.1257,-2.0402,0.0,-2.1614,0.0,-2.3483,-2.4488,-2.473,-2.4468,0.0,0.0,-2.3064,-2.2914,-2.3584,-2.4355,-2.4829,-2.4946,-2.5472,-2.5917,-2.5852,-2.6265,-2.6668,-2.7445,-2.753,-2.7239,-2.703,-2.8337,-2.9368,-2.8734,-2.857,-2.8529,-2.7948,-2.7289,-2.6512,-2.6174,-2.5506,-2.4639,-2.3504,-2.2954,-2.2609,-2.2377,-2.3142,-2.449,-2.5883,-2.6507,-2.6887,-2.6826,-2.6906,-2.6572,-2.5824,-2.5824,-2.5824,-2.3718,-2.3119,-2.3001,-2.2662,-2.2206,-2.2229,-2.2244,-2.2378,-2.2916,-2.2849,-2.2592,-2.2453,-2.231,-2.2203,-2.2776,-2.3493,-2.4077,-2.4506,-2.5027,-2.5468,-2.5152,-2.4898,-2.477,-2.4476,-2.4476,-2.4623,-2.4476,-2.4543,-2.4796,-2.4502,-2.4649,-2.5376,-2.5065,-2.4815,-2.4496,-2.4832,-2.5002,-2.4975,-2.6896,-2.8177,-2.8709,-2.9204,-2.9138,-2.8385,-2.8675,-2.8475,-2.7388,-2.6878,-2.6122,-2.4761,-2.349,-2.2531,-2.1674,-2.1498,-2.1389,0.0,0.0,0.0,0.0,0.0,0.0,0.0,0.0,0.0,0.0,0.0,-2.2863,0.0,-2.4677,0.0,-2.5527,-2.5212,-2.5008,-2.4864,-2.4268,-2.4313,-2.4939,-2.5427,-2.5798,-2.5994,-2.6312,-2.6363,-2.6516,-2.6794,-2.7186,-2.7678,-2.7848,-2.7946,-2.7817,-2.8836,-2.9286,-2.8992,-2.8919,-2.8725,-2.7482,-2.685,-2.6443,-2.6091,-2.564,-2.4999,-2.4193,-2.3561,-2.2944,-2.2499,-2.3121,-2.4411,-2.574,-2.6528,-2.7082,-2.7119,-2.712,-2.669,-2.6087,-2.5905,-2.6061,-2.3945,-2.3456,-2.3209,-2.2937,-2.2574,-2.2357,-2.2553,-2.2993,-2.3664,-2.3647,-2.3253,-2.3235,-2.3197,-2.3054,-2.3093,-2.3522,-2.4235,-2.4966,-2.5552,-2.5855,-2.5862,-2.5575,-2.5294,-2.4878,-2.4743,-2.4743,-2.4756,-2.489,-2.513,-2.513,-2.5415,-2.5963,-2.5671,-2.5523,-2.5677,-2.5534,-2.5299,-2.5153,-2.7187,-2.8249,-2.8351,-2.888,-2.8725,-2.7888,-2.8019,-2.7748,-2.6717,-2.6477,-2.6055,-2.5101,-2.4238,-2.334,-2.2637,-2.267,-2.2372,0.0,-2.1836,0.0,0.0,0.0,0.0,0.0,0.0,0.0,0.0,-2.4109,-2.4445,-2.4847,-2.584,-2.6282,-2.5894,-2.5709,-2.5579,-2.5538,-2.5538,-2.5524,-2.5778,-2.6248,-2.6686,-2.6958,-2.6942,-2.6794,-2.6804,-2.7222,-2.7546,-2.7759,-2.8347,-2.8788,-2.8944,-2.9227,-2.9383,-2.89,-2.8964,-2.8426,-2.6955,-2.6456,-2.6323,-2.6116,-2.5799,-2.5215,-2.4625,-2.4082,-2.3326,-2.2463,-2.3101,-2.4235,-2.5525,-2.6337,-2.7051,-2.727,-2.7309,-2.6986,-2.6585,-2.6333,-2.64,-2.397,-2.3177,-2.3126,-2.2683,-2.2181,-2.2355,-2.2743,-2.3169,-2.3661,-2.3532,-2.3261,-2.3171,-2.2898,-2.2337,-2.2853,-2.3233,-2.3813,-2.4409,-2.513,-2.5862,-2.5755,-2.5595,-2.5609,-2.5389,-2.5344,-2.5344,-2.5344,-2.5384,-2.5438,-2.5438,-2.5451,-2.5671,-2.5518,-2.5371,-2.5268,0.0,0.0,0.0,-2.7126,-2.7506,-2.8316,-2.7834,-2.7678,-2.7706,-2.8016,0.0,-2.7319,-2.704,-2.6533,-2.5935,-2.4907,0.0,0.0,0.0,0.0,0.0,0.0,0.0,0.0,0.0,0.0,0.0,-2.385,-2.4288,-2.4355,-2.5045,-2.571,-2.6142,-2.6757,-2.7395,-2.7748,-2.7745,-2.7508,-2.6948,-2.6766,-2.6683,-2.6143,-2.6918,-2.7573,-2.7616,-2.7438,-2.7577,-2.7699,-2.7665,-2.7803,-2.8305,-2.8659,-2.882,-2.9281,-2.9375,-2.9368,-2.8944,-2.8833,-2.8454,-2.7875,-2.7302,-2.6682,-2.619,-2.5958,-2.5466,-2.4738,-2.4337,-2.3652,-2.2707,-2.306,-2.3665,-2.4495,-2.5285,-2.6198,-2.6764,-2.6677,-2.6413,-2.6453,-2.64,-2.64,-2.4101,0.0,-2.3235,-2.2865,0.0,-2.2593,-2.3031,-2.3601,-2.3904,-2.3917,-2.3905,-2.3469,-2.3164,-2.2739,-2.3016,-2.3438,-2.4044,-2.4781,-2.5514,-2.656,-2.6129,-2.6047,-2.6198,-2.5742,-2.5518,-2.5518,-2.5518,-2.5585,-2.5732,-2.5564,-2.5489,-2.5634,-2.5634,-2.5555,-2.5436,-2.5869,-2.6643,-2.7423,-2.7255,-2.7481,-2.8261,-2.8117,-2.7947,-2.7961,0.0,0.0,0.0,0.0,0.0,0.0,0.0,0.0,0.0,0.0,0.0,-2.1923,-2.1522,-2.1384,-2.169,-2.2276,-2.284,-2.3709,-2.5323,-2.62,-2.5894,-2.6729,-2.7309,-2.7618,-2.7922,-2.8322,-2.8651,-2.8501,-2.8061,-2.7423,-2.7254,-2.6887,-2.6607,-2.6876,-2.741,-2.7876,-2.7706,-2.7745,-2.8067,-2.8089,-2.8228,-2.8529,-2.8754,-2.9137,-2.9573,-2.935,-2.9301,-2.9641,-2.912,-2.8662,-2.8217,-2.7603,-2.7056,-2.6339,-2.6102,-2.573,-2.533,-2.4765,-2.4039,-2.3237,-2.3204,-2.3664,-2.4426,-2.5059,-2.5818,-2.6568,-2.6553,-2.6281,-2.6226,-2.6016,-2.5766,-2.4188,-2.3591,-2.354,-2.3254,-2.2992,-2.2943,-2.3403,-2.4162,0.0,0.0,0.0,-2.3825,-2.3553,-2.3604,-2.3228,-2.3631,-2.4415,-2.494,-2.5963,-2.6875,-2.6336,-2.635,-2.6655,-2.5945,-2.5665,-2.5665,-2.5665,-2.5785,-2.6026,-2.5557,-2.5518,-2.5727,-2.5753,-2.5753,-2.5753,-2.6228,-2.6544,-2.686,-2.712,-2.7591,-2.8118,-2.8374,-2.8403,-2.8046,-2.8301,-2.8471,-2.8033,-2.7946,-2.754,-2.7064,-2.6387,-2.5602,-2.516,-2.4271,-2.3768,-2.3525,-2.3152,-2.2735,-2.2322,-2.3128,-2.3934,-2.4713,-2.6662,-2.7903,-2.7697,-2.8206,-2.8622,-2.8871,-2.89,-2.8886,-2.8886,-2.8646,-2.8189,-2.7647,-2.7374,-2.7086,-2.686,-2.6656,-2.7084,-2.7833,-2.7889,-2.7857,-2.8075,-2.8325,-2.8669,-2.8711,-2.886,-2.9277,-2.9661,-2.9427,-2.9468,-3.0319,-2.9876,-2.9133,-2.8757,-2.8021,-2.7245,-2.6509,-2.6242,-2.6194,-2.5802,-2.5161,-2.4349,-2.3671,-2.3409,-2.3709,-2.4395,-2.4897,-2.5701,-2.6658,-2.6569,-2.6236,-2.6118,-2.5583,-2.5046,-2.4622,-2.4138,-2.3909,-2.3491,-2.3064,-2.3138,-2.3783,-2.4723,-2.4661,-2.4743,-2.5024,-2.4109,-2.3934,-2.4163,-2.3433,-2.3292,-2.3753,-2.4252,-2.4892,0.0,-2.594,-2.6202,-2.6525,-2.6302,-2.6266,-2.6266,-2.6266,-2.6293,-2.6319,-2.5846,-2.5714,-2.5753,-2.5448,-2.5448,-2.5753,-2.6228,-2.6386,-2.6544,-2.6302,-2.6602,-2.7175,-2.7084,-2.6895,-2.7054,-2.7456,-2.7606,-2.7364,-2.7418,-2.7391,-2.731,-2.6822,-2.6285,-2.5662,-2.4258,-2.3087,-2.2485,-2.1954,-2.1541,-2.1644,-2.2956,-2.4723,-2.669,-2.7863,-2.8602,-2.8671,-2.8798,-2.8842,-2.8886,-2.8602,-2.8588,-2.89,-2.8834,-2.8417,-2.7717,-2.7885,-2.7624,-2.6612,-2.6702,-2.7086,-2.7533,-2.7894,-2.8103,-2.8249,-2.8428,-2.8565,-2.8744,-2.8938,-2.9193,-2.9807,-2.9793,-3.0042,-3.0706,-3.0389,-3.0055,-2.9589,-2.9018,-2.8127,-2.6958,-2.6625,-2.6306,-2.5678,-2.529,-2.4789,-2.3861,-2.352,-2.3581,-2.3731,-2.4235,-2.508,-2.6041,-2.6061,-2.6016,-2.6198,-2.5325,-2.4615,-2.4879,-2.4384,-2.4275,-2.4083,-2.3548,-2.3741,-2.3997,-2.4559,-2.4466,-2.4717,-2.5152,-2.4696,-2.4303,-2.429,-2.3823,-2.3716,-2.3885,-2.4516,-2.5218,-2.5999,-2.6132,-2.6437,-2.6901,-2.6558,-2.6466,-2.6613,-2.6466,-2.6228,-2.607,-2.5594,-2.5289,-2.5117,-2.4811,-2.497,-2.5448,-2.5911,-2.607,-2.607,-2.6423,-2.6738,-2.7018,-2.7038,-2.7416,-2.7688,-2.8039,-2.826,-2.8551,-2.8247,-2.8081,-2.8068,-2.7236,-2.6465,-2.5905,-2.4613,-2.3371,-2.267,-2.1895,-2.1558,-2.1814,-2.3064,-2.4613,-2.6272,-2.7255,-2.8284,-2.8979,-2.9427,-2.9671,-2.9178,-2.9006,-2.9006,-2.9164,-2.8993,-2.8602,-2.8151,-2.8277,-2.797,-2.7055,-2.7028,-2.7243,-2.7716,-2.8191,-2.8548,-2.8331,-2.8675,-2.8813,-2.895,-2.9188,-2.9713,-3.0079,-3.0214,-3.0527,-3.087,-3.0627,-3.0183,-3.0097,-2.9366,-2.8569,-2.7496,-2.7287,-2.6904,-2.6306,-2.5689,-2.5126,-2.4289,-2.3805,-2.3575,-2.3564,-2.4085,-2.4949,-2.5615,-2.5775,-2.5748,-2.5707,-2.5206,-2.4662,-2.5135,-2.4641,-2.4685,-2.4377,-2.4,-2.4309,-2.4402,-2.4414,-2.4478,-2.4959,-2.5413,-2.4933,-2.4559,-2.4339,-2.407,-2.4,-2.4182,-2.4711,-2.5474,-2.6175,-2.6334,-2.68,-2.7377,-2.6853,-2.6667,-2.6787,-2.6427,-2.6136,-2.5766,-2.5289,-2.4811,-2.4332,-2.4492,-2.4652,-2.497,-2.5594,-2.5753,-2.5911,-2.6544,-2.6874,-2.6874,-2.7333,-2.7769,-2.8191,-2.8395,-2.8687,-2.9104,-2.881,-2.8655,-2.8655,-2.7461,-2.6613,-2.6273,-2.4909,-2.3812,-2.3121,-2.2236,-2.1991,-2.2327,-2.347,-2.4639,-2.565,-2.6796,-2.7948,-2.8945,-3.0086,-3.0247,-2.9559,-2.9326,-2.9326,-2.95,-2.9268,-2.8887,-2.872,-2.8627,-2.8302,-2.7431,-2.7268,-2.7472,-2.7867,-2.8565,-2.8703,-2.8482,-2.884,-2.9132,-2.9146,-2.9663,-2.9998,-3.0332,-3.0665,-3.0866,-3.0778,-3.0563,-3.0465,-3.0479,-2.9795,-2.9,-2.8205,-2.7908,-2.7448,-2.6725,-2.614,-2.5513,-2.4776,-2.4289,-2.372,-2.3731,-2.3894,-2.4615,-2.5509,-2.5526,-2.5421,-2.5432,-2.5045,-2.479,-2.5223,-2.5174,-2.4926,-2.4517,-2.4012,-2.4517,-2.4752,-2.4951,-2.5514,-2.5804,-2.5677,-2.4685,-2.4194,-2.4405,-2.4111,-2.3804,-2.3804,-2.432,-2.4949,-2.566,-2.5983,-2.6611,-2.7201,-2.7188,-2.7054,-2.6867,-2.6479,-2.6013,-2.5792,-2.4983,-2.4332,-2.4,-2.4332,-2.4517,-2.4664,-2.5448,-2.5753,-2.5753,-2.6228,-2.6386,-2.6544,-2.6874,-2.7159,-2.7405,-2.7758,-2.803,-2.8278,-2.8318,-2.8318,-2.8136,-2.7304,-2.6783,-2.6613,-2.508,-2.388,-2.3331,-2.2815,-2.2804,-2.3298,-2.4155,-2.4826,-2.5531,-2.7006,-2.8184,-2.8882,-3.005,-3.0466,-2.9983,-2.9514,-2.95,-2.9837,-2.9746,-2.9314,-2.8832,-2.8837,-2.8551,-2.7525,-2.7268,-2.7362,-2.7629,-2.8207,-2.8482,-2.8365,-2.8628,-2.8992,-2.9314,-2.9495,-2.983,-3.0499,-3.0665,-3.0665,-3.0499,-3.0716,-3.102,-3.0866,-3.0483,-2.9662,-2.9091,-2.8281,-2.7702,-2.7075,-2.6737,-2.614,-2.4925,-2.4589,-2.4136,-2.3589,-2.3392,-2.417,-2.5208,-2.5417,-2.511,-2.5035,-2.5059,-2.5142,-2.5613,-2.542,-2.5317,-2.4882,-2.4335,-2.4583,-2.496,-2.5149,-2.5083,-2.5285,-2.5425,-2.4775,-2.4454,-2.4727,-2.4566,-2.4243,-2.3746,-2.4405,-2.4876,-2.5112,-2.5615,-2.6423,-2.7,-2.702,-2.6954,-2.683,-2.6522,-2.5963,-2.5248,-2.4554,-2.4243,-2.4106,-2.4389,-2.4474,-2.4637,-2.5126,-2.5451,-2.5451,-2.6112,-2.6436,-2.6235,-2.6573,-2.7001,-2.7228,-2.7593,-2.7875,-2.8096,-2.815,-2.815,-2.8136,-2.7292,-2.6783,-2.6783,-2.5092,-2.4064,-2.372,-2.3031,-2.274,-2.2695,-2.3453,-2.4235,-2.4921,-2.6103,-2.7292,-2.8305,-2.9481,-3.0036,-2.9986,-2.9934,-2.9996,-3.0159,-2.9621,-2.9212,-2.9103,-2.9063,-2.8577,-2.7969,-2.7776,-2.7843,-2.7949,-2.8298,-2.8506,-2.8278,-2.8318,-2.881,-2.9314,-2.9495,-2.9816,-3.0332,-3.0665,-3.0665,-3.0346,-3.0629,-3.0904,-3.0637,-3.0503,-3.011,-2.9575,-2.8822,-2.8113,-2.7534,-2.699,-2.6187,-2.5206,-2.4914,-2.4317,-2.3445,-2.3621,-2.4196,-2.504,-2.5571,-2.561,-2.5735,-2.5615,-2.553,-2.5775,-2.5397,-2.5481,-2.5249,-2.4745,-2.4745,-2.4912,-2.509,-2.4984,-2.5021,-2.5188,-2.5021,-2.4875,-2.4972,-2.4874,-2.4511,-2.402,-2.4511,-2.4821,-2.4887,-2.5575,-2.6223,-2.6955,-2.6965,-2.676,-2.6838,-2.6669,-2.5931,-2.4862,-2.4511,-2.4347,-2.4371,-2.454,-2.4625,-2.4625,-2.512,-2.5298,-2.545,-2.5956,-2.6298,-2.6259,-2.6646,-2.6998,-2.7224,-2.7589,-2.7843,-2.8123,-2.815,-2.815,-2.815,-2.7292,-2.6783,-2.6783,-2.5263,-2.4258,-2.3971,-2.3237,-2.2642,-2.2568,-2.3087,-2.381,-2.4499,-2.553,-2.6689,-2.7812,-2.881,-2.9495,-3.015,-3.0296,-3.0316,-3.0481,-2.9821,-2.9438,-2.9453,-2.9146,-2.8655,-2.8292,-2.815,-2.8123,-2.8305,-2.846,-2.8487,-2.8318,-2.8318,-2.8473,-2.916,-2.9314,-2.9481,-2.9998,-3.0332,-3.0499,-2.9998,-3.0332,-3.0605,-3.0609,-3.0433,-3.035,-3.0042,-2.9195,-2.8294,-2.7739,-2.7194,-2.6486,-2.5593,-2.5144,-2.4742,-2.4029,-2.4051,-2.4241,-2.5046,-2.5441,-2.5886,-2.6097,-2.6025,-2.5916,-2.5433,-2.5397,-2.5156,-2.5047,-2.5023,-2.5023,-2.5023,-2.5047,-2.5264,-2.5385,-2.5361,-2.5373,-2.524,-2.4987,-2.4733,-2.4613,-2.4447,-2.4613,-2.4924,-2.549,-2.5682,-2.5999,-2.6758,-2.7266,-2.7136,-2.6427,-2.6389,-2.5878,-2.4625,-2.4613,-2.4613,-2.4613,-2.4661,-2.4649,-2.4673,-2.5016,-2.531,-2.536,-2.569,-2.6159,-2.6514,-2.6887,-2.7004,-2.7044,-2.7543,-2.7856,-2.8096,-2.815,-2.815,-2.815,-2.7292,-2.6783,-2.6613,-2.5433,-2.4327,-2.3816,-2.3151,-2.2902,-2.3268,-2.349,-2.3883,-2.4418,-2.5634,-2.6745,-2.7369,-2.8359,-2.9187,-3.0179,-3.0136,-3.0441,-3.0607,-3.0245,-2.9774,-2.9467,-2.8992,-2.8655,-2.8318,-2.815,-2.815,-2.815,-2.815,-2.8318,-2.815,-2.815,-2.8487,-2.8824,-2.8824,-2.8992,-2.9481,-2.9998,-2.983,-2.9328,-2.9705,-3.0394,-3.0781,-3.0592,-3.035,-3.0192,-2.9309,-2.8294,-2.7739,-2.7328,-2.6641,-2.5971,-2.5519,-2.5126,-2.4621,-2.4452,-2.4463,-2.5026,-2.5542,-2.595,-2.6246,-2.6278,-2.617,-2.4749,-2.4909,-2.5167,-2.5289,-2.5301,-2.5289,-2.5131,-2.4791,-2.5227,-2.5263,-2.5092,-2.5263,-2.5385,-2.5289,-2.5192,-2.4711,-2.4065,-2.4388,-2.4362,-2.4415,-2.4779,-2.5337,-2.5933,-2.6456,-2.6575,-2.6318,-2.6136,-2.5818,-2.4914,-2.489,-2.4735,-2.4592,-2.4903,-2.4975,-2.4806,-2.5144,-2.5313,-2.5481,-2.5818,-2.6142,-2.631,-2.6929,-2.7409,-2.7578,-2.7915,-2.803,-2.8136,-2.815,-2.815,-2.815,-2.7292,-2.6783,-2.6613,-2.5263,-2.4166,-2.3686,-2.313,-2.3063,-2.3332,-2.3488,-2.3798,-2.4151,-2.5196,-2.6151,-2.6954,-2.8247,-2.9198,-2.9719,-3.0332,-3.0665,-3.0651,-3.0165,-2.9649,-2.9481,-2.881,-2.8318,-2.8318,-2.815,-2.815,-2.7812,-2.7812,-2.7981,-2.8332,-2.8318,-2.8487,-2.9146,-2.8992,-2.8992,-2.9328,-2.9663,-2.9495,-2.916,-2.9342,-2.9804,-2.987,-2.9962,-2.9877,-2.9853,-2.937,-2.8783,-2.8113,-2.7414,-2.6761,-2.6222,-2.5791,-2.5286,-2.4766,-2.4674,-2.4674,-2.5082,-2.5774,-2.6112,-2.6546,-2.6629,-2.6496,-2.4407,-2.4749,-2.5263,-2.5263,-2.5263,-2.5092,-2.4921,-2.4578,-2.4749,-2.4921,-2.4749,-2.5092,-2.5263,-2.5433,-2.5433,-2.4838,-2.4163,-2.4322,-2.4245,-2.3709,-2.4407,-2.4921,-2.5263,-2.5763,-2.5933,-2.5933,-2.5933,-2.5665,-2.5192,-2.5168,-2.4999,-2.4854,-2.5008,-2.5092,-2.4749,-2.5092,-2.5092,-2.5263,-2.5592,-2.5933,-2.6103,-2.6783,-2.7395,-2.7722,-2.818,-2.8337,-2.8417,-2.835,-2.8297,-2.8114,-2.7356,-2.6626,-2.6286,-2.5092,-2.4166,-2.3861,-2.3556,-2.3325,-2.3375,-2.3472,-2.3662,-2.4119,-2.5063,-2.589,-2.6698,-2.8034,-2.9131,-2.9648,-3.0183,-3.0476,-3.0614,-3.0055,-2.9495,-2.9314,-2.8642,-2.8136,-2.815,-2.815,-2.7981,-2.7656,-2.7487,-2.7852,-2.827,-2.8453,-2.8636,-2.9129,-2.8974,-2.8974,-2.9129,-2.9201,-2.9215,-2.8933,-2.9047,-2.9074,-2.9179,-2.9281,-2.9809,-2.9798,-2.9561,-2.8963,-2.8332,-2.7632,-2.7051,-2.6497,-2.5908,-2.5592,-2.5309,-2.5034,-2.5112,-2.5547,-2.5777,-2.6328,-2.6576,-2.6821,-2.6834,-2.4749,-2.4749,-2.5263,-2.5092,-2.4749,-2.4749,-2.4578,-2.4064,-2.4235,-2.4407,-2.4578,-2.4749,-2.4921,-2.5263,-2.5433,-2.508,-2.4714,-2.4531,-2.4372,-2.4064,-2.4407,-2.4578,-2.4749,-2.5592,-2.5763,-2.5433,-2.5433,-2.5433,-2.5409,-2.5397,-2.5397,-2.5251,-2.4897,-2.4749,-2.4749,-2.4749,-2.4749,-2.4921,-2.5263,-2.5604,-2.6103,-2.6613,-2.6991,-2.7565,-2.8116,-2.8738,-2.8991,-2.8751,-2.8591,-2.8379,-2.7499,-2.6468,-2.5653,-2.498,-2.4534,-2.4372,-2.3905,-2.3699,-2.3386,-2.3612,-2.3835,-2.4263,-2.5069,-2.5973,-2.6631,-2.7797,-2.8991,-2.9921,-3.0097,-3.0113,-3.0425,-2.9874,-2.9523,-2.9481,-2.8642,-2.8136,-2.815,-2.815,-2.7981,-2.7669,-2.7526,-2.7617,-2.7997,-2.8433,-2.8604,-2.8775,-2.8775,-2.8775,-2.8749,-2.89,-2.8846,-2.8641,-2.8757,-2.8832,-2.8628,-2.8644,-2.9393,-2.9771,-2.9521,-2.9015,-2.8538,-2.8045,-2.7573,-2.6893,-2.6576,-2.6075,-2.5525,-2.5258,-2.5206,-2.547,-2.5899,-2.6283,-2.6711,-2.6926,-2.6917,-2.4235,-2.4407,-2.5092,-2.5092,-2.4749,-2.4749,-2.4235,-2.372,-2.3892,-2.4064,-2.3892,-2.4407,-2.4749,-2.4921,-2.5263,-2.5092,-2.4749,-2.4407,-2.4064,-2.3709,-2.3709,-2.4064,-2.4407,-2.4909,-2.5263,-2.5433,-2.5433,-2.5433,-2.5433,-2.5433,-2.5263,-2.4921,-2.4749,-2.4578,-2.4407,-2.4578,-2.4749,-2.4749,-2.5092,-2.5604,-2.6103,-2.6273,-2.6702,-2.7787,-2.8233,-2.8696,-2.9312,-2.9058,-2.8818,-2.8631,-2.8194,-2.7465,-2.6302,-2.5532,-2.4963,-2.4269,-2.4339,-2.3996,-2.3629,-2.3763,-2.3957,-2.4266,-2.5037,-2.5669,-2.6187,-2.7561,-2.8706,-2.9433,-2.9817,-3.0279,-3.0395,-2.9829,-2.9395,-2.9006,-2.8487,-2.815,-2.815,-2.7643,-2.7395,-2.7735,-2.7418,-2.7547,-2.8113,-2.8551,-2.8911,-2.8911,-2.8898,-2.8898,-2.8858,-2.8829,-2.8762,-2.8818,-2.8789,-2.8641,-2.8617,-2.8831,-2.934,-2.9609,-2.9495,-2.8989,-2.8719,-2.8302,-2.7829,-2.7365,-2.7045,-2.6515,-2.5971,-2.5679,-2.5615,-2.5506,-2.5904,-2.6256,-2.6759,-2.6979,-2.6961,-2.3892,-2.3892,-2.4578,-2.4578,-2.4235,-2.4235,-2.3892,-2.3204,-2.3376,-2.3548,-2.3548,-2.4064,-2.452,-2.4632,-2.5119,-2.5059,-2.4637,-2.4117,-2.3608,-2.3483,-2.332,-2.3709,-2.4064,-2.4749,-2.5092,-2.5275,-2.5433,-2.5433,-2.5433,-2.5446,-2.5263,-2.4921,-2.4578,-2.4407,-2.4075,-2.4327,-2.4362,-2.4718,-2.5063,-2.5578,-2.5885,-2.5982,-2.6519,-2.7234,-2.7849,-2.843,-2.8789,-2.8815,-2.8884,-2.8658,-2.8325,-2.7381,-2.6389,-2.5874,-2.5325,-2.4592,-2.4317,-2.4219,-2.3531,-2.3688,-2.3978,-2.4171,-2.4774,-2.5491,-2.6077,-2.7479,-2.8462,-2.9406,-2.9973,-3.0239,-3.0184,-2.9666,-2.9207,-2.869,-2.8372,-2.815,-2.815,-2.7395,-2.717,-2.7349,-2.7292,-2.7495,-2.8049,-2.8666,-2.903,-2.9205,-2.9205,-2.9205,-2.9152,-2.8951,-2.9018,-2.9045,-2.8925,-2.8845,-2.8818,-2.9045,-2.9325,-2.9499,-2.9468,-2.9104,-2.868,-2.8534,-2.8307,-2.7731,-2.7433,-2.6887,-2.634,-2.608,-2.6016,-2.605,-2.5906,-2.6163,-2.6519,-2.7016,-2.699,-2.3376,-2.3548,-2.3892,-2.3892,-2.3548,-2.3548,-2.3204,-2.2859,-2.2686,-2.3031,-2.3376,-2.3892,-2.4132,-2.4456,-2.477,-2.4807,-2.4531,-2.37,-2.3413,-2.3359,-2.328,-2.3503,-2.4064,-2.4921,-2.5263,-2.5433,-2.5433,-2.5433,-2.5263,-2.5263,-2.5275,-2.5139,-2.443,-2.4086,-2.3971,-2.3794,-2.4046,-2.4395,-2.4928,-2.5275,-2.582,-2.5934,-2.6153,-2.6361,-2.7324,-2.7995,-2.8048,-2.84,-2.8758,-2.8736,-2.7843,-2.7021,-2.6127,-2.6122,-2.5666,-2.4649,-2.468,-2.4174,-2.3401,-2.3526,-2.3774,-2.3976,-2.4525,-2.5183,-2.6071,-2.7135,-2.8218,-2.9449,-2.9797,-3.0015,-3.0096,-2.974,-2.924,-2.8735,-2.831,-2.8163,-2.8163,-2.7695,-2.7349,-2.7279,-2.7134,-2.7234,-2.8029,-2.86,-2.8955,-2.9322,-2.9513,-2.9513,-2.9446,-2.9325,-2.9259,-2.9245,-2.9232,-2.9138,-2.9098,-2.9325,-2.9566,-2.9526,-2.9521,-2.9362,-2.8757,-2.8597,-2.826,-2.7864,-2.7649,-2.7274,-2.6712,-2.6239,-2.5951,-2.5637,-2.5736,-2.5891,-2.6388,-2.6897,-2.7192,-2.372,-2.3376,-2.3892,-2.3892,-2.3376,-2.3376,-2.3204,-2.2686,-2.2686,-2.2859,-2.302,-2.3376,-2.3846,-2.412,-2.4444,-2.4663,-2.4532,-2.3712,-2.3424,-2.3415,-2.2862,-2.322,-2.4029,-2.4578,-2.5092,-2.5263,-2.5263,-2.5263,-2.4921,-2.4921,-2.4832,-2.4662,-2.3982,-2.3637,-2.3794,-2.3697,-2.372,-2.408,-2.4777,-2.5231,-2.5536,-2.567,-2.6068,-2.6438,-2.7169,-2.7727,-2.7956,-2.8243,-2.8458,-2.8577,-2.8156,-2.7473,-2.693,-2.6807,-2.6152,-2.5173,-2.5006,-2.4719,-2.3765,-2.3662,-2.3731,-2.3944,-2.4332,-2.5001,-2.5742,-2.6652,-2.7739,-2.8642,-2.9283,-2.9601,-2.9918,-2.9622,-2.9259,-2.8644,-2.8364,-2.819,-2.8217,-2.7892,-2.7624,-2.7508,-2.7599,-2.7877,-2.8258,-2.8693,-2.923,-2.9588,-2.978,-2.978,-2.9686,-2.9579,-2.9459,-2.9579,-2.9579,-2.9446,-2.9432,-2.9646,-2.974,-2.9619,-2.9601,-2.9532,-2.8936,-2.8357,-2.7804,-2.7239,-2.7852,-2.7735,-2.6874,-2.6095,-2.5637,-2.5365,-2.5698,-2.6012,-2.6738,-2.714,-2.7251,-2.3376,-2.3204,-2.3376,-2.3376,-2.3031,-2.3031,-2.2859,-2.2686,-2.2686,-2.2686,-2.2859,-2.3204,-2.3492,-2.3722,-2.3925,-2.4065,-2.4045,-2.3321,-2.2999,-2.3044,-2.2572,-2.2972,-2.3664,-2.4235,-2.4749,-2.5092,-2.4932,-2.4749,-2.4749,-2.4578,-2.4316,-2.4235,-2.3715,-2.3598,-2.3709,-2.3677,-2.3765,-2.3986,-2.4402,-2.4776,-2.5287,-2.5382,-2.5586,-2.5957,-2.6587,-2.7068,-2.7554,-2.8186,-2.832,-2.8016,-2.7774,-2.7521,-2.701,-2.7062,-2.657,-2.5501,-2.5224,-2.4867,-2.4163,-2.3971,-2.3784,-2.3892,-2.4408,-2.4873,-2.5697,-2.6441,-2.7354,-2.8471,-2.9015,-2.9493,-2.9707,-2.9659,-2.9219,-2.8724,-2.8551,-2.8457,-2.8364,-2.8261,-2.8017,-2.7951,-2.7877,-2.8092,-2.8462,-2.8822,-2.9195,-2.9721,-2.9887,-2.9887,-2.9873,-2.974,-2.9673,-2.9766,-2.982,-2.9686,-2.9633,-2.9793,-2.9707,-2.978,-2.9601,-2.9558,-2.9026,-2.8247,-2.7679,-2.7509,-2.7984,-2.7926,-2.68,-2.614,-2.6062,-2.6005,-2.5979,-2.6056,-2.6602,-2.7111,-2.7238,-2.2675,-2.2686,-2.2686,-2.2686,-2.2686,-2.2686,-2.2686,-2.2686,-2.2686,-2.2686,-2.2686,-2.3031,-2.3104,-2.3043,-2.3393,-2.3291,-2.3081,-2.2932,-2.2555,-2.2488,-2.2392,-2.2739,-2.3354,-2.3787,-2.4281,-2.4601,-2.4247,-2.4258,-2.4418,-2.4064,-2.4086,-2.3821,-2.3609,-2.3512,-2.3589,-2.3434,-2.384,-2.4018,-2.3964,-2.4339,-2.4897,-2.487,-2.4984,-2.5252,-2.6019,-2.6512,-2.7197,-2.7864,-2.8245,-2.738,-2.738,-2.7226,-2.6725,-2.693,-2.6677,-2.6115,-2.5507,-2.516,-2.4598,-2.4228,-2.3817,-2.3978,-2.4064,-2.4561,-2.5604,-2.6363,-2.7097,-2.8364,-2.9208,-2.9404,-2.9761,-2.9659,-2.9312,-2.8911,-2.8938,-2.8885,-2.8818,-2.8578,-2.8302,-2.8017,-2.7925,-2.8076,-2.8294,-2.8474,-2.8835,-2.9734,-2.9913,-2.9734,-2.9913,-2.9847,-2.982,-2.986,-2.9887,-2.99,-2.9694,-2.9721,-2.9774,-2.9774,-2.9694,-2.9493,-2.9026,-2.8457,-2.7877,-2.7533,-2.7759,-2.7428,-2.6553,-2.6174,-2.6309,-2.5983,-2.5913,-2.6023,-2.6282,-2.6579,-2.6961,-2.3031,-2.2686,-2.2686,-2.2686,-2.2686,-2.2686,-2.2514,-2.2168,-2.2503,-2.2514,-2.2168,-2.2341,-2.2654,-2.3276,-2.2939,-2.2943,-2.3302,-2.2911,-2.2532,-2.2425,-2.2675,-2.2772,-2.2946,-2.3531,-2.3889,-2.4166,-2.4269,-2.4073,-2.3776,-2.357,-2.3476,-2.3272,-2.3195,-2.3032,-2.3238,-2.3423,-2.3311,-2.3423,-2.3776,-2.4041,-2.4274,-2.4555,-2.4685,-2.5114,-2.5957,-2.6438,-2.6896,-2.7371,-2.7429,-2.7243,-2.7279,-2.7267,-2.693,-2.6979,-2.6725,-2.6378,-2.5924,-2.5484,-2.481,-2.4576,-2.4124,-2.3871,-2.4032,-2.4496,-2.5434,-2.5868,-2.6588,-2.7657,-2.8382,-2.9171,-2.9774,-2.9673,-2.9446,-2.9272,-2.9152,-2.9138,-2.9245,-2.915,-2.904,-2.8626,-2.8476,-2.8474,-2.8835,-2.8281,-2.8642,-2.9554,-2.9734,-2.9554,-2.9734,-2.9913,-2.9913,-2.9913,-2.9913,-2.9913,-2.9554,-2.9568,-2.9647,-2.9673,-2.962,-2.9467,-2.9,-2.854,-2.7928,-2.7414,-2.7133,-2.672,-2.6273,-2.6096,-2.623,-2.5847,-2.5644,-2.5786,-2.6056,-2.6375,-2.667,-2.2859,-2.2686,-2.2686,-2.2686,-2.2686,-2.2686,-2.2514,-2.2168,-2.233,-2.2168,-2.1822,-2.1649,-2.2168,-2.2675,-2.2375,-2.2449,-2.284,-2.273,-2.2277,-2.2321,-2.2588,-2.262,-2.2599,-2.3076,-2.349,-2.39,-2.3704,-2.352,-2.352,-2.3259,-2.3086,-2.288,-2.2848,-2.2934,-2.3031,-2.3181,-2.3235,-2.3203,-2.3271,-2.3501,-2.3676,-2.3928,-2.4338,-2.5184,-2.6049,-2.6631,-2.6423,-2.6844,-2.6858,-2.6809,-2.6845,-2.7027,-2.7027,-2.7027,-2.6954,-2.6677,-2.6269,-2.5861,-2.5251,-2.4913,-2.447,-2.3914,-2.4043,-2.4518,-2.5375,-2.5649,-2.6398,-2.7488,-2.8503,-2.9363,-2.9986,-2.9673,-2.9654,-2.9526,-2.9296,-2.9106,-2.9119,-2.9296,-2.9362,-2.8934,-2.8745,-2.8629,-2.8474,-2.8101,-2.8101,-2.9015,-2.9375,-2.9375,-2.9554,-2.9734,-2.9913,-2.9913,-2.9913,-2.9734,-2.9362,-2.9234,-2.9325,-2.9532,-2.9686,-2.9391,-2.9013,-2.8477,-2.7915,-2.7283,-2.6828,-2.6839,-2.6439,-2.6298,-2.6016,-2.6062,-2.5883,-2.5913,-2.6034,-2.6012,-2.6297,-2.2686,-2.2686,-2.2686,-2.2686,-2.2686,-2.2729,-2.2373,-2.1995,-2.2037,-2.17,-2.1302,-2.1128,-2.1475,-2.1811,-2.1984,-2.2042,-2.2268,-2.2236,-2.2161,-2.2126,-2.2415,-2.2242,-2.2242,-2.2738,-2.3206,-2.3359,-2.3054,-2.3217,-2.3206,-2.2967,-2.288,-2.2729,-2.2869,-2.2923,-2.2977,-2.3052,-2.2952,-2.3037,-2.3063,-2.3063,-2.3311,-2.3403,-2.4035,-2.4905,-2.5772,-2.6175,-2.6092,-2.6461,-2.664,-2.63,-2.63,-2.6482,-2.6664,-2.7027,-2.7027,-2.7015,-2.6628,-2.6229,-2.5661,-2.515,-2.4807,-2.4118,-2.4118,-2.4378,-2.5106,-2.5774,-2.6353,-2.7397,-2.8421,-2.9474,-3.0199,-2.9911,-2.9673,-2.9575,-2.9422,-2.9039,-2.8895,-2.9185,-2.9139,-2.9091,-2.8796,-2.8642,-2.8474,-2.8113,-2.8294,-2.8487,-2.8835,-2.9182,-2.9362,-2.9554,-2.9734,-2.9913,-2.9913,-2.9554,-2.9015,-2.8642,-2.8925,-2.9132,-2.9493,-2.9391,-2.8936,-2.8521,-2.8,-2.7002,-2.6467,-2.6501,-2.625,-2.5905,-2.5905,-2.6084,-2.594,-2.56,-2.5538,-2.5829,-2.6105,-2.2686,-2.2686,-2.2686,-2.2686,-2.2718,-2.2891,-2.2347,-2.1526,-2.2019,-2.1638,-2.0801,-2.0781,-2.0955,-2.1302,-2.1475,-2.1791,-2.2256,-2.2245,-2.1932,-2.2026,-2.212,-2.1967,-2.171,-2.2368,-2.2834,-2.268,-2.2616,-2.2912,-2.2978,-2.2697,-2.2686,-2.2697,-2.274,-2.2772,-2.2837,-2.2923,-2.2701,-2.2631,-2.2962,-2.308,-2.2966,-2.3321,-2.3787,-2.4429,-2.5426,-2.5745,-2.5623,-2.5978,-2.6288,-2.5742,-2.6106,-2.6118,-2.6118,-2.6482,-2.6845,-2.6845,-2.6845,-2.63,-2.5742,-2.556,-2.5023,-2.4302,-2.4118,-2.4291,-2.4907,-2.5525,-2.6237,-2.714,-2.8013,-2.8976,-2.9893,-2.9703,-2.965,-2.9607,-2.9488,-2.9156,-2.9104,-2.8911,-2.8745,-2.8809,-2.8655,-2.8474,-2.8307,-2.7958,-2.7801,-2.8189,-2.8551,-2.8874,-2.9015,-2.9375,-2.9927,-2.9927,-2.9913,-2.9375,-2.8655,-2.8281,-2.8138,-2.8693,-2.8874,-2.9054,-2.8744,-2.8538,-2.7913,-2.6676,-2.6153,-2.6092,-2.5884,-2.5659,-2.5637,-2.565,-2.556,-2.5109,-2.5387,-2.5462,-2.5506,-2.2686,-2.2686,-2.2514,-2.2415,-2.2532,-2.2638,-2.2164,-2.1469,-2.1812,-2.1399,-2.0589,-2.0317,-2.0443,-2.0781,-2.0955,-2.1475,-2.1984,-2.2157,-2.1822,-2.1679,-2.1741,-2.1413,-2.1139,-2.1782,-2.2225,-2.2287,-2.2494,-2.2823,-2.2869,-2.274,-2.2697,-2.2686,-2.2686,-2.2686,-2.2697,-2.2447,-2.242,-2.2339,-2.2641,-2.2935,-2.2883,-2.3326,-2.3759,-2.4363,-2.4868,-2.5184,-2.5218,-2.5286,-2.5377,-2.5195,-2.5377,-2.556,-2.5742,-2.5936,-2.6288,-2.6482,-2.6664,-2.63,-2.5753,-2.556,-2.5206,-2.4302,-2.4118,-2.4107,-2.469,-2.5341,-2.6225,-2.7349,-2.7534,-2.8322,-2.9495,-2.9273,-2.9365,-2.9624,-2.9286,-2.8835,-2.8655,-2.8294,-2.8281,-2.8462,-2.8281,-2.8113,-2.8138,-2.7801,-2.7487,-2.7876,-2.8264,-2.8563,-2.8848,-2.9375,-2.994,-2.984,-2.9827,-2.9247,-2.8513,-2.8113,-2.7739,-2.8101,-2.8474,-2.8462,-2.8462,-2.8281,-2.7414,-2.6075,-2.5925,-2.5921,-2.5373,-2.5053,-2.5318,-2.5406,-2.5195,-2.485,-2.5001,-2.5289,-2.5376,-2.2686,-2.2686,-2.2221,-2.2172,-2.2339,-2.2444,-2.2016,-2.1383,-2.165,-2.1186,-2.0195,-2.0062,-2.0133,-2.0443,-2.0607,-2.1128,-2.1995,-2.1822,-2.1475,-2.1302,-2.1139,-2.0965,-2.0791,-2.0975,-2.1567,-2.2029,-2.2308,-2.2505,-2.2823,-2.2869,-2.2751,-2.2697,-2.2686,-2.2686,-2.2524,-2.2189,-2.2152,-2.2164,-2.2412,-2.2538,-2.2978,-2.3539,-2.4009,-2.4371,-2.4718,-2.4807,-2.4624,-2.4807,-2.4829,-2.4829,-2.4829,-2.5012,-2.5195,-2.5377,-2.556,-2.5924,-2.6106,-2.5936,-2.556,-2.556,-2.5206,-2.4302,-2.4118,-2.4129,-2.4432,-2.5314,-2.6608,-2.7804,-2.8026,-2.7928,-2.9059,-2.8996,-2.909,-2.9196,-2.8821,-2.8294,-2.8113,-2.7933,-2.7558,-2.7558,-2.7558,-2.7752,-2.7764,-2.7718,-2.7415,-2.7536,-2.8095,-2.8614,-2.8899,-2.9568,-2.9953,-2.9739,-2.9585,-2.8964,-2.837,-2.7933,-2.7739,-2.792,-2.8101,-2.8101,-2.792,-2.7739,-2.6857,-2.5982,-2.5628,-2.5593,-2.5029,-2.4747,-2.4955,-2.4866,-2.4757,-2.4779,-2.4753,-2.5001,-2.5195,-2.2686,-2.2697,-2.2389,-2.2329,-2.2412,-2.2747,-2.2291,-2.1292,-2.1951,-2.1442,-2.027,-2.0185,-2.0072,-2.0124,-2.0443,-2.1128,-2.1475,-2.1302,-2.1128,-2.1128,-2.0955,-2.0443,-2.0269,-2.0955,-2.1179,-2.1638,-2.2101,-2.2494,-2.2855,-2.2823,-2.2869,-2.2729,-2.2686,-2.2514,-2.2168,-2.1822,-2.17,-2.1492,-2.2286,-2.3031,-2.3742,-2.4032,-2.4043,-2.4237,-2.4441,-2.4646,-2.4291,-2.4463,-2.4646,-2.4291,-2.4646,-2.4646,-2.4474,-2.4646,-2.4818,-2.5183,-2.556,-2.5924,-2.5195,-2.5195,-2.5023,-2.4291,-2.4118,-2.4226,-2.4715,-2.5481,-2.6469,-2.7111,-2.7461,-2.8026,-2.8506,-2.8565,-2.8528,-2.8635,-2.8314,-2.7982,-2.7752,-2.7571,-2.739,-2.7208,-2.7208,-2.7377,-2.7571,-2.7378,-2.7341,-2.7622,-2.7925,-2.8289,-2.8808,-2.9493,-2.9927,-2.9867,-2.9443,-2.8847,-2.837,-2.7764,-2.7571,-2.7558,-2.7752,-2.7752,-2.7558,-2.7377,-2.6833,-2.6118,-2.5924,-2.524,-2.4822,-2.4584,-2.4538,-2.457,-2.4538,-2.4517,-2.4517,-2.4818,-2.5195,-2.2284,-2.2708,-2.206,-2.1883,-2.2036,-2.2171,-2.1777,-2.1432,-2.1758,-2.1468,-2.0544,-2.0308,-2.011,-1.9959,-2.0443,-2.0955,-2.1302,-2.0955,-2.0955,-2.0955,-2.0607,-2.0095,-2.0124,-2.0375,-2.0783,-2.1369,-2.1852,-2.2257,-2.2568,-2.2845,-2.2923,-2.2718,-2.2514,-2.2168,-2.1822,-2.1475,-2.1213,-2.1373,-2.2202,-2.3164,-2.3881,-2.4118,-2.4118,-2.4118,-2.4291,-2.4291,-2.4291,-2.4291,-2.4291,-2.4118,-2.4291,-2.4291,-2.4107,-2.4291,-2.4463,-2.4474,-2.5012,-2.5195,-2.4818,-2.5001,-2.4646,-2.4118,-2.3935,-2.4334,-2.4866,-2.5701,-2.6386,-2.6754,-2.7397,-2.7901,-2.8223,-2.8384,-2.8272,-2.8344,-2.7987,-2.7863,-2.7583,-2.7208,-2.7027,-2.7027,-2.7027,-2.7208,-2.7463,-2.7561,-2.7473,-2.7561,-2.8111,-2.8711,-2.9208,-2.969,-2.9907,-2.994,-2.9351,-2.8703,-2.8214,-2.7752,-2.722,-2.722,-2.722,-2.7402,-2.739,-2.7027,-2.6687,-2.6118,-2.5742,-2.509,-2.4464,-2.4312,-2.4355,-2.4452,-2.4538,-2.4603,-2.4689,-2.4904,-2.5238,-2.17,-2.1915,-2.1791,-2.1838,-2.207,-2.1748,-2.1558,-2.1315,-2.1549,-2.126,-2.0752,-2.0101,-1.9841,-1.9859,-2.0171,-2.0327,-2.1128,-2.0617,-2.0791,-2.0607,-2.0443,-1.9959,-2.0034,-2.0157,-2.0596,-2.1008,-2.1591,-2.2056,-2.2423,-2.2722,-2.2834,-2.2708,-2.2341,-2.1995,-2.1659,-2.1229,-2.093,-2.1701,-2.2242,-2.3148,-2.3935,-2.4118,-2.4118,-2.4118,-2.4118,-2.4118,-2.4118,-2.4118,-2.4118,-2.4118,-2.4118,-2.4118,-2.4118,-2.4118,-2.4107,-2.4291,-2.4657,-2.4646,-2.4646,-2.4646,-2.428,-2.3956,-2.3878,-2.4334,-2.4464,-2.5537,-2.6313,-2.662,-2.7295,-2.7799,-2.7799,-2.8124,-2.7952,-2.7989,-2.7854,-2.7731,-2.762,-2.7233,-2.7027,-2.7027,-2.7027,-2.7027,-2.7184,-2.7546,-2.763,-2.7694,-2.8088,-2.8926,-2.935,-2.9755,-2.996,-2.9927,-2.9247,-2.864,-2.8382,-2.7764,-2.7414,-2.7111,-2.7111,-2.7135,-2.7172,-2.7148,-2.6783,-2.6382,-2.5799,-2.5217,-2.4734,-2.4356,-2.4183,-2.4377,-2.4581,-2.4807,-2.4958,-2.495,-2.527,-2.0901,-1.9841,-2.1304,-2.1881,-2.2091,-2.1975,-2.1519,-2.1168,-2.1694,-2.1182,-2.0426,-1.9699,-1.9491,-1.9692,-1.9256,-1.9535,-2.0627,-2.0095,-2.0269,-2.0443,-2.0105,-2.0025,-2.0119,-2.0214,-2.0308,-2.0846,-2.1132,-2.1552,-2.2132,-2.2121,-2.2494,-2.2578,-2.1995,-2.1649,-2.1403,-2.1047,-2.1294,-2.184,-2.2505,-2.3179,-2.3751,-2.4118,-2.4118,-2.4118,-2.4118,-2.4118,-2.4118,-2.4118,-2.4118,-2.4118,-2.4118,-2.4118,-2.4118,-2.4118,-2.4118,-2.4118,-2.4118,-2.4291,-2.4291,-2.4463,-2.4463,-2.4226,-2.4234,-2.4196,-2.4037,-2.5606,-2.6496,-2.6547,-2.7357,-2.7673,-2.7775,-2.763,-2.7792,-2.7549,-2.7439,-2.7366,-2.7269,-2.722,-2.7027,-2.7027,-2.7039,-2.7051,-2.7232,-2.7582,-2.7715,-2.7594,-2.8458,-2.9115,-2.943,-2.9779,-2.988,-2.9761,-2.9028,-2.8513,-2.8513,-2.7982,-2.7342,-2.728,-2.7341,-2.7365,-2.7401,-2.7181,-2.7157,-2.6535,-2.6133,-2.5479,-2.4851,-2.4561,-2.4301,-2.4441,-2.4448,-2.4483,-2.4716,-2.4714,-2.5002,-1.9572,-1.9852,-2.0724,-2.1,-2.0837,-2.1258,-2.1353,-2.1168,-2.0788,-1.9849,-1.8854,-1.849,-1.8364,-1.8331,-1.8254,-1.8574,-1.972,-1.9259,-1.9756,-2.026,-2.0114,-2.0044,-1.9981,-1.9729,-1.9428,-1.9959,-2.0157,-1.9876,-1.971,-2.0692,-2.051,-2.0501,-2.1159,-2.1229,-2.1008,-2.0918,-2.139,-2.2091,-2.2505,-2.3189,-2.3935,-2.4118,-2.4118,-2.4118,-2.4118,-2.4118,-2.4118,-2.4118,-2.4118,-2.4118,-2.4118,-2.4118,-2.4118,-2.4118,-2.4118,-2.4118,-2.4118,-2.4118,-2.3935,-2.3924,-2.374,-2.3456,-2.3562,-2.3769,-2.379,-2.5392,-2.6343,-2.6679,-2.7238,-2.7783,-2.7824,-2.7836,-2.7811,-2.7401,-2.7196,-2.716,-2.7123,-2.7099,-2.7039,-2.7039,-2.7075,-2.7099,-2.7329,-2.7606,-2.7667,-2.7715,-2.8607,-2.9204,-2.9533,-2.9766,-2.9893,-2.98,-2.9054,-2.8668,-2.8487,-2.7876,-2.7292,-2.7437,-2.757,-2.7618,-2.7655,-2.7655,-2.7433,-2.6967,-2.633,-2.5717,-2.5302,-2.4715,-2.4387,-2.4101,-2.4114,-2.4367,-2.4417,-2.4442,-2.4688,-1.8516,-1.8975,-1.9762,-2.0189,-2.0198,-2.0917,-2.1168,-2.0983,-2.0232,-1.898,-1.7811,-1.7732,-1.7596,-1.7346,-1.7095,-1.789,-1.8681,-1.8918,-1.9407,-1.9765,-2.0171,-1.9943,-1.9738,-1.9339,-1.9121,-1.8984,-1.8879,-1.8604,-1.8535,-1.9231,-1.9133,-1.9202,-1.9877,-2.0519,-2.0606,-2.0791,-2.1231,-2.2069,-2.2535,-2.3005,-2.3751,-2.4118,-2.4118,-2.4118,-2.4118,-2.3935,-2.3935,-2.3935,-2.3935,-2.3935,-2.3935,-2.4118,-2.4118,-2.4118,-2.4118,-2.4118,-2.3924,-2.3935,-2.374,-2.3557,-2.3015,-2.2687,-2.3031,-2.3341,-2.401,-2.513,-2.6138,-2.667,-2.7326,-2.7842,-2.7793,-2.784,-2.7932,-2.757,-2.7377,-2.7317,-2.7256,-2.7208,-2.7111,-2.7051,-2.716,-2.7353,-2.7449,-2.7703,-2.7896,-2.7944,-2.8568,-2.9105,-2.9359,-2.9638,-2.9871,-2.9752,-2.9093,-2.8874,-2.8487,-2.795,-2.7413,-2.763,-2.7763,-2.7884,-2.7932,-2.7932,-2.7848,-2.7331,-2.6713,-2.6153,-2.5492,-2.4988,-2.442,-2.3893,-2.3937,-2.3786,-2.3779,-2.3972,-2.4258,-1.7724,-1.6804,-1.8626,-1.9647,-2.0187,-2.0973,-2.0983,-2.0797,-1.986,-1.8888,-1.7707,-1.6994,-1.7019,-1.6938,-1.6325,-1.6923,-1.7983,-1.8251,-1.876,-1.9341,-1.9627,-1.9437,-1.923,-1.8845,-1.8384,-1.8239,-1.8075,-1.7854,-1.7985,-1.8166,-1.8057,-1.8169,-1.8731,-1.9688,-1.9569,-2.0449,-2.1125,-2.1859,-2.2258,-2.2637,-2.3189,-2.3557,-2.374,-2.3557,-2.374,-2.3557,-2.3373,-2.3751,-2.3751,-2.3567,-2.3935,-2.3935,-2.4118,-2.4118,-2.4118,-2.4118,-2.3751,-2.3383,-2.3383,-2.3383,-2.2821,-2.2142,-2.2665,-2.3233,-2.3544,-2.4619,-2.5906,-2.6398,-2.7237,-2.7518,-2.7736,-2.7795,-2.7793,-2.7763,-2.7558,-2.7461,-2.7401,-2.7317,-2.7232,-2.728,-2.7534,-2.7739,-2.7727,-2.7824,-2.8101,-2.8387,-2.8576,-2.9005,-2.9339,-2.9741,-2.9978,-2.9521,-2.9028,-2.8732,-2.8201,-2.7866,-2.7522,-2.7763,-2.798,-2.8137,-2.8198,-2.8198,-2.79,-2.7721,-2.7146,-2.6439,-2.5825,-2.5206,-2.4266,-2.3541,-2.3341,-2.3364,-2.3345,-2.3322,-2.3645,-1.6695,-1.6219,-1.7772,-1.8198,-1.816,-1.8922,-1.9294,-1.9108,-1.8168,-1.7188,-1.6168,-1.5596,-1.5491,-1.5518,-1.5651,-1.5941,-1.6752,-1.6923,-1.7461,-1.8356,-1.8595,-1.8372,-1.8135,-1.7802,-1.7356,-1.7096,-1.6811,-1.6529,-1.5986,-1.6697,-1.6431,-1.6363,-1.7531,-1.8681,-1.9807,-2.0547,-2.0548,-2.1519,-2.1529,-2.1519,-2.2258,-2.2626,-2.2442,-2.2268,-2.2821,-2.2811,-2.2647,-2.321,-2.3373,-2.3383,-2.3567,-2.3751,-2.3935,-2.4118,-2.4118,-2.3935,-2.3557,-2.3015,-2.2647,-2.2268,-2.2093,-2.2035,-2.2251,-2.2874,-2.3334,-2.4287,-2.5249,-2.61,-2.6874,-2.7314,-2.751,-2.7843,-2.8053,-2.7811,-2.7642,-2.7606,-2.7558,-2.7449,-2.7389,-2.7558,-2.7787,-2.7944,-2.8005,-2.8089,-2.8318,-2.8403,-2.8784,-2.8876,-2.9055,-2.9704,-3.0147,-2.9389,-2.8975,-2.8471,-2.8095,-2.7805,-2.763,-2.7836,-2.796,-2.8248,-2.8284,-2.8236,-2.7818,-2.7498,-2.7106,-2.6511,-2.5794,-2.4757,-2.3728,-2.3198,-2.3014,-2.2994,-2.299,-2.2964,-2.2926,-1.6219,-1.6112,-1.7127,-1.6948,-1.6486,-1.7616,-1.7989,-1.7616,-1.7048,-1.6061,-1.5252,-1.5045,-1.493,-1.4808,-1.4794,-1.5258,-1.5948,-1.6167,-1.6545,-1.7467,-1.7705,-1.7604,-1.7102,-1.6582,-1.6517,-1.6197,-1.5903,-1.5427,-1.532,-1.5704,-1.586,-1.6044,-1.6272,-1.7788,-1.913,-1.941,-1.9471,-2.0223,-2.0037,-2.0214,-2.077,-2.1149,-2.1372,-2.1391,-2.1577,-2.1918,-2.1957,-2.2317,-2.3005,-2.3005,-2.3373,-2.3567,-2.3935,-2.4118,-2.3935,-2.374,-2.3189,-2.2462,-2.1908,-2.1723,-2.1538,-2.1382,-2.1875,-2.2436,-2.3124,-2.3809,-2.4605,-2.5475,-2.6476,-2.6795,-2.7042,-2.7569,-2.7843,-2.7805,-2.7709,-2.7685,-2.7836,-2.7739,-2.7606,-2.7787,-2.8029,-2.8174,-2.8282,-2.8415,-2.856,-2.8776,-2.8788,-2.8857,-2.8925,-2.9583,-3.0033,-2.9327,-2.8825,-2.8503,-2.8161,-2.7964,-2.7775,-2.7932,-2.8056,-2.8404,-2.8224,-2.796,-2.7611,-2.7249,-2.6761,-2.6208,-2.5305,-2.4512,-2.3676,-2.3132,-2.2894,-2.2681,-2.2645,-2.2586,-2.2721,-1.6306,-1.5938,-1.6494,-1.6112,-1.5744,-1.7242,-1.7429,-1.6681,-1.6681,-1.6112,-1.5174,-1.5153,-1.4812,-1.4821,-1.4903,-1.5188,-1.576,-1.5825,-1.6423,-1.7009,-1.7118,-1.6996,-1.6702,-1.6413,-1.5896,-1.5501,-1.5259,-1.521,-1.4997,-1.5197,-1.5624,-1.6241,-1.6241,-1.7188,-1.7771,-1.7965,-1.8168,-1.8727,-1.8727,-1.8938,-1.9337,-1.9674,-1.9967,-2.0198,-2.0536,-2.09,-2.1095,-2.1449,-2.2103,-2.2452,-2.3005,-2.3567,-2.3945,-2.4129,-2.3762,-2.3415,-2.2707,-2.1947,-2.1577,-2.1401,-2.1353,-2.1187,-2.1338,-2.1923,-2.2534,-2.3345,-2.4328,-2.5066,-2.5906,-2.6111,-2.6465,-2.7214,-2.7768,-2.7807,-2.7866,-2.802,-2.8198,-2.8089,-2.7908,-2.8017,-2.8306,-2.8463,-2.85,-2.862,-2.862,-2.862,-2.8812,-2.8788,-2.8857,-2.914,-2.9407,-2.9243,-2.8781,-2.8384,-2.8062,-2.7986,-2.792,-2.8053,-2.8331,-2.8428,-2.8031,-2.7646,-2.726,-2.6863,-2.6476,-2.5902,-2.5213,-2.4472,-2.3821,-2.3314,-2.3063,-2.2548,-2.251,-2.2548,-2.2663,-1.5751,-1.5368,-1.5938,-1.5744,-1.5368,-1.5744,-1.5931,-1.5556,-1.5556,-1.5368,-1.5174,-1.4699,-1.4427,-1.4356,-1.4395,-1.4527,-1.4909,-1.5149,-1.5596,-1.5996,-1.6175,-1.5846,-1.5723,-1.58,-1.5444,-1.543,-1.5215,-1.5194,-1.514,-1.512,-1.512,-1.5542,-1.5744,-1.5931,-1.6119,-1.6119,-1.7048,-1.7608,-1.7608,-1.7663,-1.7882,-1.8225,-1.8363,-1.8625,-1.9236,-1.9432,-1.9689,-2.0136,-2.0797,-2.1898,-2.1889,-2.2482,-2.4355,-2.4366,-2.4212,-2.3822,-2.3177,-2.2496,-2.1917,-2.1439,-2.1178,-2.1178,-2.1244,-2.1827,-2.2466,-2.3305,-2.3901,-2.4636,-2.5507,-2.5906,-2.6305,-2.6874,-2.726,-2.7564,-2.7651,-2.7986,-2.8164,-2.8294,-2.8137,-2.8258,-2.8548,-2.8536,-2.8584,-2.862,-2.862,-2.862,-2.862,-2.8812,-2.8788,-2.8882,-2.8974,-2.8839,-2.8867,-2.8457,-2.8258,-2.7968,-2.8065,-2.821,-2.8451,-2.8236,-2.7646,-2.726,-2.7067,-2.6658,-2.6056,-2.5731,-2.5141,-2.4652,-2.4038,-2.3546,-2.3282,-2.2713,-2.2354,-2.2606,-2.2654,-1.5556,-1.5368,-1.5751,-1.5563,-1.5181,-1.4993,-1.4805,-1.4993,-1.5181,-1.5181,-1.5167,-1.4532,-1.4274,-1.4229,-1.4274,-1.4274,-1.4408,-1.4892,-1.5341,-1.5341,-1.5181,-1.5362,-1.5221,-1.5276,-1.5289,-1.5289,-1.5289,-1.5269,-1.5242,-1.5194,-1.5181,-1.5181,-1.5181,-1.5181,-1.5368,-1.5556,-1.5931,-1.6306,-1.6501,-1.656,-1.6567,-1.6748,-1.6693,-1.6979,-1.7734,-1.7962,-1.8279,-1.869,-1.971,-2.1058,-2.1077,-2.2241,-2.3914,-2.4165,-2.4051,-2.38,-2.3172,-2.2468,-2.1836,-2.1553,-2.1263,-2.1196,-2.1187,-2.1592,-2.2208,-2.2843,-2.3475,-2.4248,-2.5087,-2.5712,-2.61,-2.6487,-2.6874,-2.7067,-2.7384,-2.7698,-2.8069,-2.8248,-2.8475,-2.8548,-2.8572,-2.8536,-2.856,-2.8596,-2.862,-2.862,-2.862,-2.862,-2.862,-2.8776,-2.8727,-2.8642,-2.8686,-2.8527,-2.8338,-2.8149,-2.8234,-2.8343,-2.8487,-2.8224,-2.7453,-2.7067,-2.6885,-2.626,-2.5625,-2.5324,-2.5249,-2.4907,-2.4328,-2.3789,-2.3411,-2.2848,-2.2469,-2.2497,-2.2535,-1.5563,-1.5181,-1.5751,-1.5563,-1.5181,-1.4617,-1.4435,-1.4435,-1.4818,-1.5181,-1.4986,-1.461,-1.4164,-1.4113,-1.4164,-1.4158,-1.4319,-1.4759,-1.5181,-1.5181,-1.5181,-1.5181,-1.5187,-1.5221,-1.5316,-1.533,-1.5337,-1.5343,-1.5323,-1.5255,-1.5181,-1.5181,-1.5181,-1.5181,-1.5181,-1.5181,-1.5368,-1.5556,-1.5563,-1.5591,-1.5598,-1.5793,-1.601,-1.6145,-1.6656,-1.6996,-1.7368,-1.7891,-1.8273,-1.9894,-2.0906,-2.1668,-2.3112,-2.3841,-2.3734,-2.3544,-2.3174,-2.2505,-2.2019,-2.1735,-2.1395,-2.1291,-2.1215,-2.1433,-2.2058,-2.2563,-2.3163,-2.4044,-2.473,-2.5324,-2.5712,-2.5906,-2.6294,-2.6681,-2.7033,-2.7384,-2.796,-2.8152,-2.856,-2.8596,-2.856,-2.8536,-2.8584,-2.862,-2.862,-2.862,-2.862,-2.862,-2.862,-2.862,-2.8608,-2.8572,-2.8475,-2.8557,-2.8403,-2.8403,-2.8415,-2.85,-2.8596,-2.8224,-2.7646,-2.7079,-2.6714,-2.6144,-2.5583,-2.5475,-2.5217,-2.4851,-2.4442,-2.3809,-2.3257,-2.2945,-2.2779,-2.2387,-2.2387,-1.5368,-1.5181,-1.5368,-1.5368,-1.5181,-1.4617,-1.4487,-1.4577,-1.4096,-1.4241,-1.4429,-1.4052,-1.3858,-1.3827,-1.3846,-1.3833,-1.4027,-1.4584,-1.5174,-1.5181,-1.5181,-1.5181,-1.5235,-1.5357,-1.5384,-1.535,-1.5357,-1.5391,-1.5276,-1.5208,-1.5181,-1.5181,-1.5181,-1.5181,-1.5181,-1.5181,-1.5181,-1.5181,-1.5187,-1.5242,-1.5316,-1.5276,-1.5471,-1.5765,-1.5955,-1.6313,-1.6612,-1.6803,-1.755,-1.8789,-1.8806,-2.0228,-2.2681,-2.3079,-2.3769,-2.3962,-2.3232,-2.274,-2.226,-2.1954,-2.1612,-2.1471,-2.1423,-2.1565,-2.1878,-2.2305,-2.2872,-2.3769,-2.4351,-2.4935,-2.5324,-2.5712,-2.5917,-2.6111,-2.6521,-2.709,-2.7658,-2.8043,-2.844,-2.8584,-2.8536,-2.856,-2.8608,-2.862,-2.862,-2.862,-2.862,-2.862,-2.862,-2.862,-2.862,-2.8596,-2.8608,-2.856,-2.8596,-2.8572,-2.8344,-2.8368,-2.8259,-2.8055,-2.7669,-2.717,-2.6677,-2.6157,-2.5766,-2.5463,-2.5377,-2.5345,-2.4719,-2.387,-2.3471,-2.3355,-2.2779,-2.2387,-2.2387,-1.5181,-1.5181,-1.5181,-1.4993,-1.4805,-1.4241,-1.3914,-1.3767,-1.3524,-1.3493,-1.3676,-1.3493,-1.3493,-1.3493,-1.3493,-1.3499,-1.387,-1.4429,-1.4993,-1.5181,-1.5181,-1.5181,-1.5296,-1.5425,-1.5404,-1.5371,-1.5425,-1.5398,-1.5215,-1.5181,-1.5181,-1.5181,-1.5181,-1.5181,-1.5181,-1.5181,-1.5181,-1.5181,-1.5181,-1.5269,-1.5384,-1.5309,-1.5248,-1.5526,-1.5533,-1.5751,-1.5855,-1.6081,-1.6714,-1.7966,-1.8809,-1.9876,-2.156,-2.2274,-2.275,-2.2926,-2.2654,-2.2383,-2.2287,-2.2173,-2.182,-2.1678,-2.1499,-2.1584,-2.1849,-2.2298,-2.2749,-2.3605,-2.4136,-2.4546,-2.5324,-2.5518,-2.5712,-2.5906,-2.6427,-2.7089,-2.7604,-2.8126,-2.8476,-2.8608,-2.8584,-2.8596,-2.862,-2.862,-2.862,-2.862,-2.862,-2.862,-2.862,-2.862,-2.862,-2.862,-2.862,-2.862,-2.8608,-2.8416,-2.8212,-2.8055,-2.8126,-2.7696,-2.7203,-2.7018,-2.666,-2.6157,-2.597,-2.5644,-2.5569,-2.5288,-2.4988,-2.392,-2.3736,-2.3756,-2.317,-2.2593,-2.2387,-1.5181,-1.5181,-1.5181,-1.4993,-1.4422,-1.387,-1.3511,-1.2956,-1.2933,-1.2939,-1.2956,-1.2939,-1.3116,-1.3305,-1.3116,-1.3305,-1.3682,-1.4241,-1.4805,-1.5181,-1.5181,-1.5181,-1.5235,-1.5337,-1.5371,-1.5377,-1.5384,-1.5316,-1.5187,-1.5181,-1.5181,-1.5181,-1.5181,-1.5181,-1.5181,-1.5181,-1.5181,-1.5194,-1.5221,-1.5289,-1.5303,-1.5289,-1.5269,-1.5235,-1.5255,-1.5384,-1.5513,-1.5794,-1.6215,-1.7113,-1.8614,-1.9461,-2.0115,-2.0782,-2.1183,-2.1388,-2.1781,-2.1689,-2.18,-2.2151,-2.2009,-2.1849,-2.1641,-2.1688,-2.1962,-2.2249,-2.2886,-2.3207,-2.3726,-2.4382,-2.4967,-2.5572,-2.5572,-2.5766,-2.632,-2.6822,-2.7318,-2.7798,-2.8114,-2.844,-2.8428,-2.8428,-2.8428,-2.8428,-2.8428,-2.8428,-2.8632,-2.862,-2.862,-2.862,-2.862,-2.862,-2.862,-2.862,-2.862,-2.8248,-2.8067,-2.8185,-2.8085,-2.7547,-2.6926,-2.6926,-2.6761,-2.6406,-2.5976,-2.5681,-2.5522,-2.5198,-2.4701,-2.3971,-2.3766,-2.3561,-2.318,-2.2788,-2.2387,-1.5181,-1.5181,-1.5181,-1.4805,-1.4429,-1.387,-1.337,-1.3055,-1.2589,-1.26,-1.283,-1.2584,-1.255,-1.3116,-1.2928,-1.3116,-1.3682,-1.4241,-1.4617,-1.5181,-1.5181,-1.5181,-1.5215,-1.5303,-1.5391,-1.5377,-1.5316,-1.5215,-1.5181,-1.5181,-1.5181,-1.5181,-1.5181,-1.5181,-1.5181,-1.5181,-1.5194,-1.5221,-1.5303,-1.5384,-1.5411,-1.5398,-1.5384,-1.5411,-1.5493,-1.5567,-1.5642,-1.573,-1.6055,-1.6567,-1.721,-1.8205,-1.8616,-1.9232,-1.9626,-2.0021,-2.0423,-2.079,-2.0925,-2.1698,-2.1782,-2.1863,-2.1723,-2.1924,-2.2085,-2.2075,-2.2567,-2.3131,-2.363,-2.4299,-2.4907,-2.5548,-2.5766,-2.5918,-2.6386,-2.6604,-2.6962,-2.7421,-2.7897,-2.7862,-2.7839,-2.7839,-2.8031,-2.8031,-2.7839,-2.8043,-2.8079,-2.8079,-2.844,-2.844,-2.8644,-2.8644,-2.8644,-2.862,-2.862,-2.809,-2.7944,-2.8074,-2.8054,-2.73,-2.7092,-2.7225,-2.6868,-2.6487,-2.6243,-2.5956,-2.5577,-2.5106,-2.4536,-2.4011,-2.358,-2.317,-2.318,-2.2827,-2.2659]}]]